<?xml version="1.0" encoding="UTF-8" standalone="no" ?>
<gpx xmlns="http://www.topografix.com/GPX/1/1" xmlns:xsi="http://www.w3.org/2001/XMLSchema-instance" xsi:schemaLocation="http://www.topografix.com/GPX/1/1 http://www.topografix.com/GPX/1/1/gpx.xsd" version="1.1" creator="VisuGPX - https://www.visugpx.com">
  <metadata>
    <name>Boucle Sainte-Honorine-La-Guillaume n°5</name>
    <desc><![CDATA[La Petite Héroudière - l'Être Chauvel]]></desc>
  </metadata>
  <trk>
    <name><![CDATA[Boucle Sainte-Honorine-La-Guillaume n°5]]></name>
    <extensions>
      <line xmlns="http://www.topografix.com/GPX/gpx_style/0/2">
        <color>0000FF</color>
        <width>4</width>
      </line>
    </extensions>
    <trkseg>
      <trkpt lat="48.77921" lon="-0.37713">
        <ele>201.8</ele>
        <time>2025-05-26T14:07:27.000Z</time>
      </trkpt>
      <trkpt lat="48.77915" lon="-0.37704">
        <ele>202.3</ele>
        <time>2025-05-26T14:07:33.188Z</time>
      </trkpt>
      <trkpt lat="48.7791" lon="-0.37696">
        <ele>202.7</ele>
        <time>2025-05-26T14:07:39.376Z</time>
      </trkpt>
      <trkpt lat="48.77904" lon="-0.37687">
        <ele>202.8</ele>
        <time>2025-05-26T14:07:45.564Z</time>
      </trkpt>
      <trkpt lat="48.77898" lon="-0.37678">
        <ele>202.9</ele>
        <time>2025-05-26T14:07:51.752Z</time>
      </trkpt>
      <trkpt lat="48.77892" lon="-0.37669">
        <ele>203</ele>
        <time>2025-05-26T14:07:57.940Z</time>
      </trkpt>
      <trkpt lat="48.77887" lon="-0.37661">
        <ele>203.3</ele>
        <time>2025-05-26T14:08:04.129Z</time>
      </trkpt>
      <trkpt lat="48.77881" lon="-0.37652">
        <ele>203.7</ele>
        <time>2025-05-26T14:08:10.318Z</time>
      </trkpt>
      <trkpt lat="48.77875" lon="-0.37643">
        <ele>203.9</ele>
        <time>2025-05-26T14:08:16.508Z</time>
      </trkpt>
      <trkpt lat="48.77871" lon="-0.37638">
        <ele>204</ele>
        <time>2025-05-26T14:08:20.291Z</time>
      </trkpt>
      <trkpt lat="48.77866" lon="-0.3763">
        <ele>204</ele>
        <time>2025-05-26T14:08:25.687Z</time>
      </trkpt>
      <trkpt lat="48.7786" lon="-0.37621">
        <ele>204</ele>
        <time>2025-05-26T14:08:31.084Z</time>
      </trkpt>
      <trkpt lat="48.77855" lon="-0.37612">
        <ele>204.2</ele>
        <time>2025-05-26T14:08:37.459Z</time>
      </trkpt>
      <trkpt lat="48.77849" lon="-0.37603">
        <ele>204.7</ele>
        <time>2025-05-26T14:08:43.835Z</time>
      </trkpt>
      <trkpt lat="48.77843" lon="-0.37594">
        <ele>205.3</ele>
        <time>2025-05-26T14:08:50.799Z</time>
      </trkpt>
      <trkpt lat="48.77837" lon="-0.37584">
        <ele>205.8</ele>
        <time>2025-05-26T14:08:57.763Z</time>
      </trkpt>
      <trkpt lat="48.77831" lon="-0.37575">
        <ele>206.1</ele>
        <time>2025-05-26T14:09:04.727Z</time>
      </trkpt>
      <trkpt lat="48.77825" lon="-0.37565">
        <ele>206.4</ele>
        <time>2025-05-26T14:09:11.693Z</time>
      </trkpt>
      <trkpt lat="48.7782" lon="-0.37566">
        <ele>206.6</ele>
        <time>2025-05-26T14:09:15.600Z</time>
      </trkpt>
      <trkpt lat="48.77815" lon="-0.37566">
        <ele>206.8</ele>
        <time>2025-05-26T14:09:19.507Z</time>
        <extensions>
          <visugpx:TrkExtension xmlns:visugpx="https://www.visugpx.com/editgpx/">
            <visugpx:node>1</visugpx:node>
            </visugpx:TrkExtension>
        </extensions>
      </trkpt>
      <trkpt lat="48.77812" lon="-0.37566">
        <ele>207</ele>
        <time>2025-05-26T14:09:22.061Z</time>
      </trkpt>
      <trkpt lat="48.77807" lon="-0.37562">
        <ele>207.5</ele>
        <time>2025-05-26T14:09:27.242Z</time>
      </trkpt>
      <trkpt lat="48.77802" lon="-0.37558">
        <ele>208</ele>
        <time>2025-05-26T14:09:32.425Z</time>
      </trkpt>
      <trkpt lat="48.77798" lon="-0.37548">
        <ele>208.5</ele>
        <time>2025-05-26T14:09:40.306Z</time>
      </trkpt>
      <trkpt lat="48.77794" lon="-0.37538">
        <ele>209.2</ele>
        <time>2025-05-26T14:09:48.187Z</time>
      </trkpt>
      <trkpt lat="48.77789" lon="-0.37528">
        <ele>210.4</ele>
        <time>2025-05-26T14:09:56.069Z</time>
      </trkpt>
      <trkpt lat="48.77785" lon="-0.37518">
        <ele>211.6</ele>
        <time>2025-05-26T14:10:03.952Z</time>
      </trkpt>
      <trkpt lat="48.77782" lon="-0.3751">
        <ele>212.6</ele>
        <time>2025-05-26T14:10:13.004Z</time>
      </trkpt>
      <trkpt lat="48.7778" lon="-0.37501">
        <ele>213.5</ele>
        <time>2025-05-26T14:10:22.057Z</time>
      </trkpt>
      <trkpt lat="48.77777" lon="-0.37493">
        <ele>215</ele>
        <time>2025-05-26T14:10:31.110Z</time>
      </trkpt>
      <trkpt lat="48.77774" lon="-0.37484">
        <ele>216.9</ele>
        <time>2025-05-26T14:10:40.164Z</time>
      </trkpt>
      <trkpt lat="48.77775" lon="-0.37475">
        <ele>217.6</ele>
        <time>2025-05-26T14:10:46.683Z</time>
      </trkpt>
      <trkpt lat="48.77775" lon="-0.37466">
        <ele>218.6</ele>
        <time>2025-05-26T14:10:53.202Z</time>
      </trkpt>
      <trkpt lat="48.77776" lon="-0.37457">
        <ele>219.2</ele>
        <time>2025-05-26T14:10:59.721Z</time>
      </trkpt>
      <trkpt lat="48.77776" lon="-0.37448">
        <ele>220.2</ele>
        <time>2025-05-26T14:11:06.240Z</time>
      </trkpt>
      <trkpt lat="48.77779" lon="-0.37439">
        <ele>220</ele>
        <time>2025-05-26T14:11:10.383Z</time>
      </trkpt>
      <trkpt lat="48.77781" lon="-0.3743">
        <ele>220.1</ele>
        <time>2025-05-26T14:11:14.526Z</time>
      </trkpt>
      <trkpt lat="48.77784" lon="-0.37421">
        <ele>219.9</ele>
        <time>2025-05-26T14:11:18.669Z</time>
      </trkpt>
      <trkpt lat="48.77786" lon="-0.37413">
        <ele>219.8</ele>
        <time>2025-05-26T14:11:22.812Z</time>
      </trkpt>
      <trkpt lat="48.77789" lon="-0.37404">
        <ele>219.6</ele>
        <time>2025-05-26T14:11:26.955Z</time>
      </trkpt>
      <trkpt lat="48.77791" lon="-0.37395">
        <ele>219.7</ele>
        <time>2025-05-26T14:11:31.098Z</time>
      </trkpt>
      <trkpt lat="48.77794" lon="-0.37386">
        <ele>219.6</ele>
        <time>2025-05-26T14:11:35.241Z</time>
      </trkpt>
      <trkpt lat="48.77796" lon="-0.37377">
        <ele>219.3</ele>
        <time>2025-05-26T14:11:39.385Z</time>
      </trkpt>
      <trkpt lat="48.77799" lon="-0.37371">
        <ele>218.9</ele>
        <time>2025-05-26T14:11:42.327Z</time>
      </trkpt>
      <trkpt lat="48.77801" lon="-0.37365">
        <ele>218.7</ele>
        <time>2025-05-26T14:11:45.269Z</time>
      </trkpt>
      <trkpt lat="48.77804" lon="-0.37359">
        <ele>218.4</ele>
        <time>2025-05-26T14:11:48.211Z</time>
      </trkpt>
      <trkpt lat="48.77807" lon="-0.37354">
        <ele>218.2</ele>
        <time>2025-05-26T14:11:51.153Z</time>
      </trkpt>
      <trkpt lat="48.77809" lon="-0.37348">
        <ele>218.2</ele>
        <time>2025-05-26T14:11:54.095Z</time>
      </trkpt>
      <trkpt lat="48.77812" lon="-0.37342">
        <ele>218.2</ele>
        <time>2025-05-26T14:11:57.037Z</time>
      </trkpt>
      <trkpt lat="48.77814" lon="-0.37336">
        <ele>218.3</ele>
        <time>2025-05-26T14:11:59.979Z</time>
      </trkpt>
      <trkpt lat="48.77817" lon="-0.3733">
        <ele>218.2</ele>
        <time>2025-05-26T14:12:02.921Z</time>
      </trkpt>
      <trkpt lat="48.77817" lon="-0.37323">
        <ele>218.3</ele>
        <time>2025-05-26T14:12:06.471Z</time>
      </trkpt>
      <trkpt lat="48.77817" lon="-0.37316">
        <ele>218.4</ele>
        <time>2025-05-26T14:12:10.021Z</time>
      </trkpt>
      <trkpt lat="48.77817" lon="-0.37309">
        <ele>218.5</ele>
        <time>2025-05-26T14:12:13.571Z</time>
      </trkpt>
      <trkpt lat="48.77818" lon="-0.37303">
        <ele>218.6</ele>
        <time>2025-05-26T14:12:17.122Z</time>
      </trkpt>
      <trkpt lat="48.77818" lon="-0.37296">
        <ele>218.9</ele>
        <time>2025-05-26T14:12:20.673Z</time>
      </trkpt>
      <trkpt lat="48.77818" lon="-0.37289">
        <ele>219.1</ele>
        <time>2025-05-26T14:12:24.224Z</time>
      </trkpt>
      <trkpt lat="48.77818" lon="-0.37282">
        <ele>219.4</ele>
        <time>2025-05-26T14:12:27.775Z</time>
      </trkpt>
      <trkpt lat="48.77818" lon="-0.37275">
        <ele>219.7</ele>
        <time>2025-05-26T14:12:31.326Z</time>
      </trkpt>
      <trkpt lat="48.77815" lon="-0.37266">
        <ele>220.1</ele>
        <time>2025-05-26T14:12:37.200Z</time>
      </trkpt>
      <trkpt lat="48.77812" lon="-0.37256">
        <ele>220.6</ele>
        <time>2025-05-26T14:12:43.075Z</time>
        <extensions>
          <visugpx:TrkExtension xmlns:visugpx="https://www.visugpx.com/editgpx/">
            <visugpx:node>2</visugpx:node>
            </visugpx:TrkExtension>
        </extensions>
      </trkpt>
      <trkpt lat="48.77809" lon="-0.37245">
        <ele>220.9</ele>
        <time>2025-05-26T14:12:49.584Z</time>
      </trkpt>
      <trkpt lat="48.77806" lon="-0.37234">
        <ele>221</ele>
        <time>2025-05-26T14:12:56.093Z</time>
      </trkpt>
      <trkpt lat="48.77802" lon="-0.37222">
        <ele>221.3</ele>
        <time>2025-05-26T14:13:02.603Z</time>
      </trkpt>
      <trkpt lat="48.77799" lon="-0.37211">
        <ele>222.2</ele>
        <time>2025-05-26T14:13:09.114Z</time>
      </trkpt>
      <trkpt lat="48.77794" lon="-0.372">
        <ele>223.1</ele>
        <time>2025-05-26T14:13:16.780Z</time>
      </trkpt>
      <trkpt lat="48.77789" lon="-0.3719">
        <ele>223.8</ele>
        <time>2025-05-26T14:13:24.446Z</time>
      </trkpt>
      <trkpt lat="48.77784" lon="-0.37179">
        <ele>224.3</ele>
        <time>2025-05-26T14:13:32.112Z</time>
      </trkpt>
      <trkpt lat="48.77779" lon="-0.37168">
        <ele>224.9</ele>
        <time>2025-05-26T14:13:39.780Z</time>
      </trkpt>
      <trkpt lat="48.7778" lon="-0.37156">
        <ele>225.3</ele>
        <time>2025-05-26T14:13:46.917Z</time>
      </trkpt>
      <trkpt lat="48.7778" lon="-0.37144">
        <ele>225.8</ele>
        <time>2025-05-26T14:13:54.054Z</time>
      </trkpt>
      <trkpt lat="48.77781" lon="-0.37131">
        <ele>226.6</ele>
        <time>2025-05-26T14:14:01.191Z</time>
      </trkpt>
      <trkpt lat="48.77781" lon="-0.37119">
        <ele>227.4</ele>
        <time>2025-05-26T14:14:08.329Z</time>
      </trkpt>
      <trkpt lat="48.77784" lon="-0.37112">
        <ele>227.9</ele>
        <time>2025-05-26T14:14:13.419Z</time>
      </trkpt>
      <trkpt lat="48.77786" lon="-0.37106">
        <ele>228.4</ele>
        <time>2025-05-26T14:14:18.510Z</time>
      </trkpt>
      <trkpt lat="48.77789" lon="-0.37099">
        <ele>229</ele>
        <time>2025-05-26T14:14:23.601Z</time>
      </trkpt>
      <trkpt lat="48.77791" lon="-0.37092">
        <ele>229.7</ele>
        <time>2025-05-26T14:14:28.692Z</time>
      </trkpt>
      <trkpt lat="48.77793" lon="-0.37082">
        <ele>230.6</ele>
        <time>2025-05-26T14:14:34.881Z</time>
      </trkpt>
      <trkpt lat="48.77795" lon="-0.37072">
        <ele>231</ele>
        <time>2025-05-26T14:14:41.071Z</time>
      </trkpt>
      <trkpt lat="48.77796" lon="-0.37061">
        <ele>231.5</ele>
        <time>2025-05-26T14:14:47.261Z</time>
      </trkpt>
      <trkpt lat="48.77798" lon="-0.37051">
        <ele>231.9</ele>
        <time>2025-05-26T14:14:53.451Z</time>
      </trkpt>
      <trkpt lat="48.77801" lon="-0.37041">
        <ele>232.4</ele>
        <time>2025-05-26T14:15:00.953Z</time>
      </trkpt>
      <trkpt lat="48.77805" lon="-0.37031">
        <ele>232.9</ele>
        <time>2025-05-26T14:15:08.455Z</time>
      </trkpt>
      <trkpt lat="48.77808" lon="-0.37021">
        <ele>234.1</ele>
        <time>2025-05-26T14:15:15.957Z</time>
      </trkpt>
      <trkpt lat="48.77811" lon="-0.37012">
        <ele>235.4</ele>
        <time>2025-05-26T14:15:23.459Z</time>
      </trkpt>
      <trkpt lat="48.77814" lon="-0.37002">
        <ele>236.7</ele>
        <time>2025-05-26T14:15:30.961Z</time>
      </trkpt>
      <trkpt lat="48.77818" lon="-0.36992">
        <ele>237.7</ele>
        <time>2025-05-26T14:15:38.464Z</time>
      </trkpt>
      <trkpt lat="48.77821" lon="-0.36982">
        <ele>238.3</ele>
        <time>2025-05-26T14:15:45.967Z</time>
      </trkpt>
      <trkpt lat="48.77824" lon="-0.36972">
        <ele>239</ele>
        <time>2025-05-26T14:15:53.470Z</time>
      </trkpt>
      <trkpt lat="48.77825" lon="-0.36965">
        <ele>239.3</ele>
        <time>2025-05-26T14:15:57.486Z</time>
      </trkpt>
      <trkpt lat="48.77827" lon="-0.36958">
        <ele>239.7</ele>
        <time>2025-05-26T14:16:01.503Z</time>
      </trkpt>
      <trkpt lat="48.77828" lon="-0.36951">
        <ele>240</ele>
        <time>2025-05-26T14:16:05.520Z</time>
      </trkpt>
      <trkpt lat="48.77829" lon="-0.36944">
        <ele>240.2</ele>
        <time>2025-05-26T14:16:09.537Z</time>
        <extensions>
          <visugpx:TrkExtension xmlns:visugpx="https://www.visugpx.com/editgpx/">
            <visugpx:node>3</visugpx:node>
            </visugpx:TrkExtension>
        </extensions>
      </trkpt>
      <trkpt lat="48.7783" lon="-0.36937">
        <ele>240.1</ele>
        <time>2025-05-26T14:16:12.703Z</time>
      </trkpt>
      <trkpt lat="48.77832" lon="-0.3693">
        <ele>240.2</ele>
        <time>2025-05-26T14:16:15.869Z</time>
      </trkpt>
      <trkpt lat="48.77833" lon="-0.36922">
        <ele>240.1</ele>
        <time>2025-05-26T14:16:19.036Z</time>
      </trkpt>
      <trkpt lat="48.77835" lon="-0.36915">
        <ele>240.2</ele>
        <time>2025-05-26T14:16:22.203Z</time>
      </trkpt>
      <trkpt lat="48.77836" lon="-0.36908">
        <ele>239.9</ele>
        <time>2025-05-26T14:16:25.370Z</time>
      </trkpt>
      <trkpt lat="48.77837" lon="-0.36901">
        <ele>239.6</ele>
        <time>2025-05-26T14:16:28.537Z</time>
      </trkpt>
      <trkpt lat="48.77839" lon="-0.36893">
        <ele>239.5</ele>
        <time>2025-05-26T14:16:31.704Z</time>
      </trkpt>
      <trkpt lat="48.7784" lon="-0.36886">
        <ele>239.2</ele>
        <time>2025-05-26T14:16:34.871Z</time>
      </trkpt>
      <trkpt lat="48.7784" lon="-0.36876">
        <ele>238.4</ele>
        <time>2025-05-26T14:16:39.033Z</time>
      </trkpt>
      <trkpt lat="48.7784" lon="-0.36865">
        <ele>237.5</ele>
        <time>2025-05-26T14:16:43.195Z</time>
      </trkpt>
      <trkpt lat="48.7784" lon="-0.36855">
        <ele>236.8</ele>
        <time>2025-05-26T14:16:47.357Z</time>
      </trkpt>
      <trkpt lat="48.7784" lon="-0.36844">
        <ele>236</ele>
        <time>2025-05-26T14:16:51.519Z</time>
      </trkpt>
      <trkpt lat="48.77844" lon="-0.36848">
        <ele>237</ele>
        <time>2025-05-26T14:16:58.596Z</time>
      </trkpt>
      <trkpt lat="48.77849" lon="-0.36851">
        <ele>238.1</ele>
        <time>2025-05-26T14:17:05.673Z</time>
      </trkpt>
      <trkpt lat="48.77853" lon="-0.36855">
        <ele>239.1</ele>
        <time>2025-05-26T14:17:12.750Z</time>
      </trkpt>
      <trkpt lat="48.77857" lon="-0.36858">
        <ele>240</ele>
        <time>2025-05-26T14:17:19.827Z</time>
      </trkpt>
      <trkpt lat="48.77861" lon="-0.36862">
        <ele>241.1</ele>
        <time>2025-05-26T14:17:26.905Z</time>
      </trkpt>
      <trkpt lat="48.77866" lon="-0.36865">
        <ele>242.3</ele>
        <time>2025-05-26T14:17:33.983Z</time>
      </trkpt>
      <trkpt lat="48.7787" lon="-0.36869">
        <ele>243.4</ele>
        <time>2025-05-26T14:17:41.061Z</time>
      </trkpt>
      <trkpt lat="48.77874" lon="-0.36872">
        <ele>244.3</ele>
        <time>2025-05-26T14:17:48.139Z</time>
      </trkpt>
      <trkpt lat="48.77882" lon="-0.36872">
        <ele>245.6</ele>
        <time>2025-05-26T14:17:57.716Z</time>
      </trkpt>
      <trkpt lat="48.7789" lon="-0.36871">
        <ele>246.9</ele>
        <time>2025-05-26T14:18:07.293Z</time>
        <extensions>
          <visugpx:TrkExtension xmlns:visugpx="https://www.visugpx.com/editgpx/">
            <visugpx:node>4</visugpx:node>
            </visugpx:TrkExtension>
        </extensions>
      </trkpt>
      <trkpt lat="48.77897" lon="-0.36871">
        <ele>247.9</ele>
        <time>2025-05-26T14:18:14.024Z</time>
      </trkpt>
      <trkpt lat="48.77903" lon="-0.36871">
        <ele>248.7</ele>
        <time>2025-05-26T14:18:20.755Z</time>
      </trkpt>
      <trkpt lat="48.7791" lon="-0.3687">
        <ele>249.7</ele>
        <time>2025-05-26T14:18:27.486Z</time>
      </trkpt>
      <trkpt lat="48.77916" lon="-0.3687">
        <ele>250.5</ele>
        <time>2025-05-26T14:18:34.217Z</time>
      </trkpt>
      <trkpt lat="48.77923" lon="-0.3687">
        <ele>251.3</ele>
        <time>2025-05-26T14:18:40.948Z</time>
      </trkpt>
      <trkpt lat="48.77929" lon="-0.3687">
        <ele>252</ele>
        <time>2025-05-26T14:18:47.679Z</time>
      </trkpt>
      <trkpt lat="48.77936" lon="-0.36869">
        <ele>252.7</ele>
        <time>2025-05-26T14:18:54.410Z</time>
      </trkpt>
      <trkpt lat="48.77942" lon="-0.36869">
        <ele>253.3</ele>
        <time>2025-05-26T14:19:01.141Z</time>
      </trkpt>
      <trkpt lat="48.77948" lon="-0.36867">
        <ele>253.8</ele>
        <time>2025-05-26T14:19:06.718Z</time>
      </trkpt>
      <trkpt lat="48.77954" lon="-0.36865">
        <ele>254.3</ele>
        <time>2025-05-26T14:19:12.295Z</time>
      </trkpt>
      <trkpt lat="48.7796" lon="-0.36864">
        <ele>254.8</ele>
        <time>2025-05-26T14:19:17.872Z</time>
      </trkpt>
      <trkpt lat="48.77966" lon="-0.36862">
        <ele>255.4</ele>
        <time>2025-05-26T14:19:23.450Z</time>
      </trkpt>
      <trkpt lat="48.77972" lon="-0.3686">
        <ele>255.9</ele>
        <time>2025-05-26T14:19:29.028Z</time>
      </trkpt>
      <trkpt lat="48.77978" lon="-0.36858">
        <ele>256.4</ele>
        <time>2025-05-26T14:19:34.606Z</time>
      </trkpt>
      <trkpt lat="48.77984" lon="-0.36856">
        <ele>256.9</ele>
        <time>2025-05-26T14:19:40.184Z</time>
      </trkpt>
      <trkpt lat="48.7799" lon="-0.36855">
        <ele>257.5</ele>
        <time>2025-05-26T14:19:45.762Z</time>
      </trkpt>
      <trkpt lat="48.77995" lon="-0.36853">
        <ele>257.9</ele>
        <time>2025-05-26T14:19:51.340Z</time>
      </trkpt>
      <trkpt lat="48.78001" lon="-0.36851">
        <ele>258.4</ele>
        <time>2025-05-26T14:19:56.918Z</time>
      </trkpt>
      <trkpt lat="48.78007" lon="-0.36849">
        <ele>259</ele>
        <time>2025-05-26T14:20:02.496Z</time>
      </trkpt>
      <trkpt lat="48.78013" lon="-0.36847">
        <ele>259.6</ele>
        <time>2025-05-26T14:20:08.074Z</time>
      </trkpt>
      <trkpt lat="48.78019" lon="-0.36845">
        <ele>260.2</ele>
        <time>2025-05-26T14:20:13.652Z</time>
      </trkpt>
      <trkpt lat="48.78025" lon="-0.36844">
        <ele>260.8</ele>
        <time>2025-05-26T14:20:19.230Z</time>
      </trkpt>
      <trkpt lat="48.78031" lon="-0.36842">
        <ele>261.4</ele>
        <time>2025-05-26T14:20:24.808Z</time>
      </trkpt>
      <trkpt lat="48.78037" lon="-0.3684">
        <ele>262</ele>
        <time>2025-05-26T14:20:30.386Z</time>
      </trkpt>
      <trkpt lat="48.78042" lon="-0.3684">
        <ele>262.8</ele>
        <time>2025-05-26T14:20:35.877Z</time>
      </trkpt>
      <trkpt lat="48.78047" lon="-0.36841">
        <ele>263.6</ele>
        <time>2025-05-26T14:20:41.368Z</time>
      </trkpt>
      <trkpt lat="48.78052" lon="-0.36841">
        <ele>264.3</ele>
        <time>2025-05-26T14:20:46.859Z</time>
      </trkpt>
      <trkpt lat="48.78057" lon="-0.36841">
        <ele>265</ele>
        <time>2025-05-26T14:20:52.350Z</time>
      </trkpt>
      <trkpt lat="48.78061" lon="-0.36841">
        <ele>265.6</ele>
        <time>2025-05-26T14:20:57.841Z</time>
      </trkpt>
      <trkpt lat="48.78066" lon="-0.36842">
        <ele>266.3</ele>
        <time>2025-05-26T14:21:03.332Z</time>
      </trkpt>
      <trkpt lat="48.78071" lon="-0.36842">
        <ele>267</ele>
        <time>2025-05-26T14:21:08.823Z</time>
      </trkpt>
      <trkpt lat="48.78076" lon="-0.36842">
        <ele>267.7</ele>
        <time>2025-05-26T14:21:14.314Z</time>
      </trkpt>
      <trkpt lat="48.78083" lon="-0.36839">
        <ele>268.4</ele>
        <time>2025-05-26T14:21:20.701Z</time>
      </trkpt>
      <trkpt lat="48.78091" lon="-0.36835">
        <ele>268.9</ele>
        <time>2025-05-26T14:21:27.088Z</time>
      </trkpt>
      <trkpt lat="48.78098" lon="-0.36832">
        <ele>269.4</ele>
        <time>2025-05-26T14:21:33.475Z</time>
      </trkpt>
      <trkpt lat="48.78105" lon="-0.36828">
        <ele>269.6</ele>
        <time>2025-05-26T14:21:39.862Z</time>
      </trkpt>
      <trkpt lat="48.7811" lon="-0.36828">
        <ele>270.1</ele>
        <time>2025-05-26T14:21:43.996Z</time>
      </trkpt>
      <trkpt lat="48.78116" lon="-0.36829">
        <ele>270.4</ele>
        <time>2025-05-26T14:21:48.130Z</time>
      </trkpt>
      <trkpt lat="48.78121" lon="-0.36829">
        <ele>270.4</ele>
        <time>2025-05-26T14:21:52.265Z</time>
      </trkpt>
      <trkpt lat="48.78126" lon="-0.36829">
        <ele>270.5</ele>
        <time>2025-05-26T14:21:56.400Z</time>
      </trkpt>
      <trkpt lat="48.78132" lon="-0.3682">
        <ele>269.4</ele>
        <time>2025-05-26T14:22:01.412Z</time>
      </trkpt>
      <trkpt lat="48.78137" lon="-0.3681">
        <ele>268.4</ele>
        <time>2025-05-26T14:22:06.425Z</time>
      </trkpt>
      <trkpt lat="48.78142" lon="-0.36811">
        <ele>268.4</ele>
        <time>2025-05-26T14:22:09.054Z</time>
      </trkpt>
      <trkpt lat="48.78146" lon="-0.36811">
        <ele>268.2</ele>
        <time>2025-05-26T14:22:11.683Z</time>
      </trkpt>
      <trkpt lat="48.78154" lon="-0.36811">
        <ele>267.8</ele>
        <time>2025-05-26T14:22:16.941Z</time>
      </trkpt>
      <trkpt lat="48.78157" lon="-0.36819">
        <ele>268.2</ele>
        <time>2025-05-26T14:22:21.465Z</time>
      </trkpt>
      <trkpt lat="48.78159" lon="-0.36826">
        <ele>268.4</ele>
        <time>2025-05-26T14:22:25.990Z</time>
      </trkpt>
      <trkpt lat="48.78164" lon="-0.36825">
        <ele>267.9</ele>
        <time>2025-05-26T14:22:29.038Z</time>
      </trkpt>
      <trkpt lat="48.78169" lon="-0.36824">
        <ele>267.2</ele>
        <time>2025-05-26T14:22:32.086Z</time>
      </trkpt>
      <trkpt lat="48.78174" lon="-0.36822">
        <ele>266.2</ele>
        <time>2025-05-26T14:22:35.134Z</time>
      </trkpt>
      <trkpt lat="48.78179" lon="-0.36821">
        <ele>265.3</ele>
        <time>2025-05-26T14:22:38.182Z</time>
      </trkpt>
      <trkpt lat="48.78184" lon="-0.3682">
        <ele>264.4</ele>
        <time>2025-05-26T14:22:41.230Z</time>
      </trkpt>
      <trkpt lat="48.78189" lon="-0.36819">
        <ele>263.5</ele>
        <time>2025-05-26T14:22:44.278Z</time>
      </trkpt>
      <trkpt lat="48.78194" lon="-0.36817">
        <ele>262.7</ele>
        <time>2025-05-26T14:22:47.326Z</time>
      </trkpt>
      <trkpt lat="48.78199" lon="-0.36816">
        <ele>261.8</ele>
        <time>2025-05-26T14:22:50.374Z</time>
      </trkpt>
      <trkpt lat="48.78204" lon="-0.36815">
        <ele>260.9</ele>
        <time>2025-05-26T14:22:53.422Z</time>
      </trkpt>
      <trkpt lat="48.78209" lon="-0.36814">
        <ele>260.1</ele>
        <time>2025-05-26T14:22:56.470Z</time>
      </trkpt>
      <trkpt lat="48.78214" lon="-0.36812">
        <ele>259.2</ele>
        <time>2025-05-26T14:22:59.518Z</time>
      </trkpt>
      <trkpt lat="48.78219" lon="-0.36811">
        <ele>258.4</ele>
        <time>2025-05-26T14:23:02.566Z</time>
      </trkpt>
      <trkpt lat="48.78224" lon="-0.3681">
        <ele>257.6</ele>
        <time>2025-05-26T14:23:05.614Z</time>
      </trkpt>
      <trkpt lat="48.78229" lon="-0.36809">
        <ele>256.9</ele>
        <time>2025-05-26T14:23:08.662Z</time>
      </trkpt>
      <trkpt lat="48.78234" lon="-0.36807">
        <ele>256.3</ele>
        <time>2025-05-26T14:23:11.710Z</time>
      </trkpt>
      <trkpt lat="48.78239" lon="-0.36806">
        <ele>255.6</ele>
        <time>2025-05-26T14:23:14.759Z</time>
      </trkpt>
      <trkpt lat="48.78243" lon="-0.36802">
        <ele>255</ele>
        <time>2025-05-26T14:23:17.651Z</time>
      </trkpt>
      <trkpt lat="48.78247" lon="-0.36799">
        <ele>254.4</ele>
        <time>2025-05-26T14:23:20.543Z</time>
      </trkpt>
      <trkpt lat="48.78251" lon="-0.36795">
        <ele>253.9</ele>
        <time>2025-05-26T14:23:23.435Z</time>
      </trkpt>
      <trkpt lat="48.78256" lon="-0.36791">
        <ele>253.1</ele>
        <time>2025-05-26T14:23:26.327Z</time>
      </trkpt>
      <trkpt lat="48.7826" lon="-0.36787">
        <ele>252.6</ele>
        <time>2025-05-26T14:23:29.219Z</time>
      </trkpt>
      <trkpt lat="48.78264" lon="-0.36784">
        <ele>252</ele>
        <time>2025-05-26T14:23:32.111Z</time>
      </trkpt>
      <trkpt lat="48.78268" lon="-0.3678">
        <ele>251.4</ele>
        <time>2025-05-26T14:23:35.004Z</time>
      </trkpt>
      <trkpt lat="48.78272" lon="-0.36776">
        <ele>250.8</ele>
        <time>2025-05-26T14:23:37.897Z</time>
      </trkpt>
      <trkpt lat="48.78277" lon="-0.36776">
        <ele>250</ele>
        <time>2025-05-26T14:23:40.761Z</time>
      </trkpt>
      <trkpt lat="48.78282" lon="-0.36775">
        <ele>249.5</ele>
        <time>2025-05-26T14:23:43.625Z</time>
      </trkpt>
      <trkpt lat="48.78286" lon="-0.36775">
        <ele>249</ele>
        <time>2025-05-26T14:23:46.489Z</time>
      </trkpt>
      <trkpt lat="48.78291" lon="-0.36774">
        <ele>248.5</ele>
        <time>2025-05-26T14:23:49.353Z</time>
      </trkpt>
      <trkpt lat="48.78296" lon="-0.36774">
        <ele>248</ele>
        <time>2025-05-26T14:23:52.217Z</time>
      </trkpt>
      <trkpt lat="48.78301" lon="-0.36773">
        <ele>247.5</ele>
        <time>2025-05-26T14:23:55.081Z</time>
      </trkpt>
      <trkpt lat="48.78305" lon="-0.36773">
        <ele>247.1</ele>
        <time>2025-05-26T14:23:57.945Z</time>
      </trkpt>
      <trkpt lat="48.7831" lon="-0.36772">
        <ele>246.7</ele>
        <time>2025-05-26T14:24:00.809Z</time>
      </trkpt>
      <trkpt lat="48.78312" lon="-0.36783">
        <ele>246.5</ele>
        <time>2025-05-26T14:24:05.578Z</time>
        <extensions>
          <visugpx:TrkExtension xmlns:visugpx="https://www.visugpx.com/editgpx/">
            <visugpx:node>5</visugpx:node>
            </visugpx:TrkExtension>
        </extensions>
      </trkpt>
      <trkpt lat="48.78314" lon="-0.36793">
        <ele>246.2</ele>
        <time>2025-05-26T14:24:09.630Z</time>
      </trkpt>
      <trkpt lat="48.78316" lon="-0.36803">
        <ele>245.9</ele>
        <time>2025-05-26T14:24:13.683Z</time>
      </trkpt>
      <trkpt lat="48.78317" lon="-0.36813">
        <ele>245.2</ele>
        <time>2025-05-26T14:24:17.736Z</time>
      </trkpt>
      <trkpt lat="48.78319" lon="-0.36823">
        <ele>244.3</ele>
        <time>2025-05-26T14:24:21.789Z</time>
      </trkpt>
      <trkpt lat="48.78321" lon="-0.36832">
        <ele>243.4</ele>
        <time>2025-05-26T14:24:25.842Z</time>
      </trkpt>
      <trkpt lat="48.78323" lon="-0.36842">
        <ele>242.3</ele>
        <time>2025-05-26T14:24:29.895Z</time>
      </trkpt>
      <trkpt lat="48.78324" lon="-0.36852">
        <ele>241.2</ele>
        <time>2025-05-26T14:24:33.948Z</time>
      </trkpt>
      <trkpt lat="48.78326" lon="-0.36862">
        <ele>240</ele>
        <time>2025-05-26T14:24:38.001Z</time>
      </trkpt>
      <trkpt lat="48.78324" lon="-0.36875">
        <ele>239</ele>
        <time>2025-05-26T14:24:43.291Z</time>
      </trkpt>
      <trkpt lat="48.78322" lon="-0.36888">
        <ele>238.1</ele>
        <time>2025-05-26T14:24:48.583Z</time>
      </trkpt>
      <trkpt lat="48.7832" lon="-0.36896">
        <ele>237.6</ele>
        <time>2025-05-26T14:24:52.066Z</time>
      </trkpt>
      <trkpt lat="48.78318" lon="-0.36905">
        <ele>237</ele>
        <time>2025-05-26T14:24:55.550Z</time>
      </trkpt>
      <trkpt lat="48.78316" lon="-0.36913">
        <ele>236.5</ele>
        <time>2025-05-26T14:24:59.034Z</time>
      </trkpt>
      <trkpt lat="48.78314" lon="-0.36921">
        <ele>235.9</ele>
        <time>2025-05-26T14:25:02.519Z</time>
      </trkpt>
      <trkpt lat="48.78314" lon="-0.3693">
        <ele>234.7</ele>
        <time>2025-05-26T14:25:06.036Z</time>
      </trkpt>
      <trkpt lat="48.78314" lon="-0.36939">
        <ele>233.5</ele>
        <time>2025-05-26T14:25:09.553Z</time>
      </trkpt>
      <trkpt lat="48.78314" lon="-0.36948">
        <ele>232.6</ele>
        <time>2025-05-26T14:25:13.070Z</time>
      </trkpt>
      <trkpt lat="48.78314" lon="-0.36957">
        <ele>232</ele>
        <time>2025-05-26T14:25:16.587Z</time>
      </trkpt>
      <trkpt lat="48.78314" lon="-0.36965">
        <ele>231.5</ele>
        <time>2025-05-26T14:25:20.105Z</time>
      </trkpt>
      <trkpt lat="48.78314" lon="-0.36974">
        <ele>231.1</ele>
        <time>2025-05-26T14:25:23.623Z</time>
      </trkpt>
      <trkpt lat="48.78314" lon="-0.36983">
        <ele>231.1</ele>
        <time>2025-05-26T14:25:27.141Z</time>
      </trkpt>
      <trkpt lat="48.78314" lon="-0.36992">
        <ele>231.1</ele>
        <time>2025-05-26T14:25:30.659Z</time>
      </trkpt>
      <trkpt lat="48.78313" lon="-0.37003">
        <ele>231.1</ele>
        <time>2025-05-26T14:25:35.496Z</time>
      </trkpt>
      <trkpt lat="48.78312" lon="-0.37015">
        <ele>231</ele>
        <time>2025-05-26T14:25:40.334Z</time>
      </trkpt>
      <trkpt lat="48.78311" lon="-0.37026">
        <ele>230.8</ele>
        <time>2025-05-26T14:25:45.172Z</time>
      </trkpt>
      <trkpt lat="48.7831" lon="-0.37037">
        <ele>230.5</ele>
        <time>2025-05-26T14:25:50.011Z</time>
      </trkpt>
      <trkpt lat="48.78307" lon="-0.37048">
        <ele>230.2</ele>
        <time>2025-05-26T14:25:54.986Z</time>
      </trkpt>
      <trkpt lat="48.78303" lon="-0.3706">
        <ele>229.8</ele>
        <time>2025-05-26T14:25:59.961Z</time>
      </trkpt>
      <trkpt lat="48.783" lon="-0.37071">
        <ele>229.1</ele>
        <time>2025-05-26T14:26:04.936Z</time>
      </trkpt>
      <trkpt lat="48.78296" lon="-0.37083">
        <ele>228.4</ele>
        <time>2025-05-26T14:26:09.911Z</time>
      </trkpt>
      <trkpt lat="48.78293" lon="-0.37094">
        <ele>227.5</ele>
        <time>2025-05-26T14:26:14.887Z</time>
      </trkpt>
      <trkpt lat="48.78289" lon="-0.37105">
        <ele>226.7</ele>
        <time>2025-05-26T14:26:19.863Z</time>
      </trkpt>
      <trkpt lat="48.78286" lon="-0.37117">
        <ele>225.8</ele>
        <time>2025-05-26T14:26:24.839Z</time>
      </trkpt>
      <trkpt lat="48.78282" lon="-0.37128">
        <ele>224.9</ele>
        <time>2025-05-26T14:26:29.816Z</time>
      </trkpt>
      <trkpt lat="48.78281" lon="-0.37138">
        <ele>223.9</ele>
        <time>2025-05-26T14:26:34.093Z</time>
      </trkpt>
      <trkpt lat="48.7828" lon="-0.37149">
        <ele>223.8</ele>
        <time>2025-05-26T14:26:38.370Z</time>
      </trkpt>
      <trkpt lat="48.78278" lon="-0.37159">
        <ele>224</ele>
        <time>2025-05-26T14:26:42.647Z</time>
      </trkpt>
      <trkpt lat="48.78277" lon="-0.37169">
        <ele>224</ele>
        <time>2025-05-26T14:26:46.926Z</time>
      </trkpt>
      <trkpt lat="48.78278" lon="-0.37179">
        <ele>223.5</ele>
        <time>2025-05-26T14:26:51.085Z</time>
      </trkpt>
      <trkpt lat="48.78279" lon="-0.3719">
        <ele>223</ele>
        <time>2025-05-26T14:26:55.244Z</time>
      </trkpt>
      <trkpt lat="48.78279" lon="-0.372">
        <ele>223.1</ele>
        <time>2025-05-26T14:26:59.403Z</time>
      </trkpt>
      <trkpt lat="48.7828" lon="-0.3721">
        <ele>223.3</ele>
        <time>2025-05-26T14:27:03.562Z</time>
      </trkpt>
      <trkpt lat="48.78281" lon="-0.3722">
        <ele>223.6</ele>
        <time>2025-05-26T14:27:07.721Z</time>
      </trkpt>
      <trkpt lat="48.78282" lon="-0.37231">
        <ele>223.5</ele>
        <time>2025-05-26T14:27:11.880Z</time>
      </trkpt>
      <trkpt lat="48.78282" lon="-0.37241">
        <ele>223.5</ele>
        <time>2025-05-26T14:27:16.039Z</time>
      </trkpt>
      <trkpt lat="48.78283" lon="-0.37251">
        <ele>223.4</ele>
        <time>2025-05-26T14:27:20.198Z</time>
      </trkpt>
      <trkpt lat="48.78284" lon="-0.37261">
        <ele>222.9</ele>
        <time>2025-05-26T14:27:24.357Z</time>
      </trkpt>
      <trkpt lat="48.78285" lon="-0.37272">
        <ele>222.4</ele>
        <time>2025-05-26T14:27:28.516Z</time>
      </trkpt>
      <trkpt lat="48.78285" lon="-0.37282">
        <ele>222.1</ele>
        <time>2025-05-26T14:27:32.675Z</time>
      </trkpt>
      <trkpt lat="48.78286" lon="-0.37292">
        <ele>221.6</ele>
        <time>2025-05-26T14:27:36.834Z</time>
      </trkpt>
      <trkpt lat="48.78287" lon="-0.37302">
        <ele>221.1</ele>
        <time>2025-05-26T14:27:40.994Z</time>
      </trkpt>
      <trkpt lat="48.78288" lon="-0.37313">
        <ele>220.6</ele>
        <time>2025-05-26T14:27:45.154Z</time>
      </trkpt>
      <trkpt lat="48.78288" lon="-0.37323">
        <ele>220.3</ele>
        <time>2025-05-26T14:27:49.314Z</time>
      </trkpt>
      <trkpt lat="48.78289" lon="-0.37333">
        <ele>219.8</ele>
        <time>2025-05-26T14:27:53.474Z</time>
      </trkpt>
      <trkpt lat="48.78291" lon="-0.37341">
        <ele>219.4</ele>
        <time>2025-05-26T14:27:56.746Z</time>
      </trkpt>
      <trkpt lat="48.78293" lon="-0.37349">
        <ele>219.1</ele>
        <time>2025-05-26T14:28:00.018Z</time>
      </trkpt>
      <trkpt lat="48.78295" lon="-0.37356">
        <ele>218.8</ele>
        <time>2025-05-26T14:28:03.290Z</time>
      </trkpt>
      <trkpt lat="48.78297" lon="-0.37364">
        <ele>218.4</ele>
        <time>2025-05-26T14:28:06.562Z</time>
      </trkpt>
      <trkpt lat="48.78298" lon="-0.37372">
        <ele>217.8</ele>
        <time>2025-05-26T14:28:09.834Z</time>
      </trkpt>
      <trkpt lat="48.783" lon="-0.3738">
        <ele>217</ele>
        <time>2025-05-26T14:28:13.106Z</time>
      </trkpt>
      <trkpt lat="48.78302" lon="-0.37387">
        <ele>216.4</ele>
        <time>2025-05-26T14:28:16.378Z</time>
      </trkpt>
      <trkpt lat="48.78304" lon="-0.37395">
        <ele>215.9</ele>
        <time>2025-05-26T14:28:19.651Z</time>
      </trkpt>
      <trkpt lat="48.78307" lon="-0.37402">
        <ele>215.5</ele>
        <time>2025-05-26T14:28:22.806Z</time>
      </trkpt>
      <trkpt lat="48.78309" lon="-0.37409">
        <ele>215.3</ele>
        <time>2025-05-26T14:28:25.962Z</time>
      </trkpt>
      <trkpt lat="48.78311" lon="-0.37416">
        <ele>215</ele>
        <time>2025-05-26T14:28:28.620Z</time>
      </trkpt>
      <trkpt lat="48.78312" lon="-0.37422">
        <ele>214.8</ele>
        <time>2025-05-26T14:28:31.279Z</time>
      </trkpt>
      <trkpt lat="48.78314" lon="-0.37429">
        <ele>214.5</ele>
        <time>2025-05-26T14:28:33.937Z</time>
      </trkpt>
      <trkpt lat="48.78315" lon="-0.37435">
        <ele>214.1</ele>
        <time>2025-05-26T14:28:36.596Z</time>
      </trkpt>
      <trkpt lat="48.78317" lon="-0.37447">
        <ele>213.6</ele>
        <time>2025-05-26T14:28:41.913Z</time>
      </trkpt>
      <trkpt lat="48.78319" lon="-0.37454">
        <ele>213.5</ele>
        <time>2025-05-26T14:28:44.572Z</time>
      </trkpt>
      <trkpt lat="48.7832" lon="-0.3746">
        <ele>213.5</ele>
        <time>2025-05-26T14:28:47.231Z</time>
      </trkpt>
      <trkpt lat="48.78315" lon="-0.37463">
        <ele>213.4</ele>
        <time>2025-05-26T14:28:51.044Z</time>
      </trkpt>
      <trkpt lat="48.78309" lon="-0.37466">
        <ele>213.3</ele>
        <time>2025-05-26T14:28:54.858Z</time>
      </trkpt>
      <trkpt lat="48.78313" lon="-0.37478">
        <ele>212.9</ele>
        <time>2025-05-26T14:29:00.188Z</time>
      </trkpt>
      <trkpt lat="48.7832" lon="-0.37482">
        <ele>212.8</ele>
        <time>2025-05-26T14:29:05.125Z</time>
        <extensions>
          <visugpx:TrkExtension xmlns:visugpx="https://www.visugpx.com/editgpx/">
            <visugpx:node>6</visugpx:node>
            </visugpx:TrkExtension>
        </extensions>
      </trkpt>
      <trkpt lat="48.78326" lon="-0.3748">
        <ele>213.2</ele>
        <time>2025-05-26T14:29:09.399Z</time>
      </trkpt>
      <trkpt lat="48.78332" lon="-0.37478">
        <ele>213.5</ele>
        <time>2025-05-26T14:29:13.674Z</time>
      </trkpt>
      <trkpt lat="48.78337" lon="-0.37476">
        <ele>213.5</ele>
        <time>2025-05-26T14:29:17.949Z</time>
      </trkpt>
      <trkpt lat="48.78343" lon="-0.37474">
        <ele>213.2</ele>
        <time>2025-05-26T14:29:22.224Z</time>
      </trkpt>
      <trkpt lat="48.78349" lon="-0.3747">
        <ele>212.9</ele>
        <time>2025-05-26T14:29:26.804Z</time>
      </trkpt>
      <trkpt lat="48.78355" lon="-0.37466">
        <ele>212.6</ele>
        <time>2025-05-26T14:29:31.384Z</time>
      </trkpt>
      <trkpt lat="48.78361" lon="-0.37462">
        <ele>212.4</ele>
        <time>2025-05-26T14:29:35.964Z</time>
      </trkpt>
      <trkpt lat="48.78368" lon="-0.37458">
        <ele>212.6</ele>
        <time>2025-05-26T14:29:40.544Z</time>
      </trkpt>
      <trkpt lat="48.78374" lon="-0.37453">
        <ele>212.8</ele>
        <time>2025-05-26T14:29:45.124Z</time>
      </trkpt>
      <trkpt lat="48.7838" lon="-0.37449">
        <ele>212.9</ele>
        <time>2025-05-26T14:29:49.704Z</time>
      </trkpt>
      <trkpt lat="48.78386" lon="-0.37445">
        <ele>213</ele>
        <time>2025-05-26T14:29:54.284Z</time>
      </trkpt>
      <trkpt lat="48.78392" lon="-0.37441">
        <ele>213.1</ele>
        <time>2025-05-26T14:29:58.865Z</time>
      </trkpt>
      <trkpt lat="48.78396" lon="-0.37439">
        <ele>213.2</ele>
        <time>2025-05-26T14:30:01.945Z</time>
      </trkpt>
      <trkpt lat="48.784" lon="-0.37436">
        <ele>213.3</ele>
        <time>2025-05-26T14:30:05.025Z</time>
      </trkpt>
      <trkpt lat="48.78405" lon="-0.37434">
        <ele>213.4</ele>
        <time>2025-05-26T14:30:08.105Z</time>
      </trkpt>
      <trkpt lat="48.78409" lon="-0.37431">
        <ele>213.4</ele>
        <time>2025-05-26T14:30:11.185Z</time>
      </trkpt>
      <trkpt lat="48.78413" lon="-0.37429">
        <ele>213.4</ele>
        <time>2025-05-26T14:30:14.265Z</time>
      </trkpt>
      <trkpt lat="48.78417" lon="-0.37426">
        <ele>213.3</ele>
        <time>2025-05-26T14:30:17.345Z</time>
      </trkpt>
      <trkpt lat="48.78421" lon="-0.37424">
        <ele>213.3</ele>
        <time>2025-05-26T14:30:20.425Z</time>
      </trkpt>
      <trkpt lat="48.78426" lon="-0.37421">
        <ele>213.2</ele>
        <time>2025-05-26T14:30:23.505Z</time>
      </trkpt>
      <trkpt lat="48.7843" lon="-0.37419">
        <ele>213.1</ele>
        <time>2025-05-26T14:30:26.585Z</time>
      </trkpt>
      <trkpt lat="48.78434" lon="-0.37416">
        <ele>213</ele>
        <time>2025-05-26T14:30:29.665Z</time>
      </trkpt>
      <trkpt lat="48.78438" lon="-0.37414">
        <ele>213</ele>
        <time>2025-05-26T14:30:32.745Z</time>
      </trkpt>
      <trkpt lat="48.78442" lon="-0.37411">
        <ele>213</ele>
        <time>2025-05-26T14:30:35.825Z</time>
      </trkpt>
      <trkpt lat="48.78446" lon="-0.37409">
        <ele>213</ele>
        <time>2025-05-26T14:30:38.905Z</time>
      </trkpt>
      <trkpt lat="48.78451" lon="-0.37406">
        <ele>213</ele>
        <time>2025-05-26T14:30:41.986Z</time>
      </trkpt>
      <trkpt lat="48.78455" lon="-0.37404">
        <ele>213</ele>
        <time>2025-05-26T14:30:45.067Z</time>
      </trkpt>
      <trkpt lat="48.78459" lon="-0.37401">
        <ele>213</ele>
        <time>2025-05-26T14:30:48.148Z</time>
      </trkpt>
      <trkpt lat="48.78465" lon="-0.37397">
        <ele>213</ele>
        <time>2025-05-26T14:30:52.427Z</time>
      </trkpt>
      <trkpt lat="48.78471" lon="-0.37394">
        <ele>213</ele>
        <time>2025-05-26T14:30:56.706Z</time>
      </trkpt>
      <trkpt lat="48.78477" lon="-0.3739">
        <ele>213</ele>
        <time>2025-05-26T14:31:00.985Z</time>
      </trkpt>
      <trkpt lat="48.78483" lon="-0.37386">
        <ele>212.9</ele>
        <time>2025-05-26T14:31:05.264Z</time>
      </trkpt>
      <trkpt lat="48.78488" lon="-0.37383">
        <ele>212.8</ele>
        <time>2025-05-26T14:31:09.543Z</time>
      </trkpt>
      <trkpt lat="48.78494" lon="-0.37379">
        <ele>212.6</ele>
        <time>2025-05-26T14:31:13.822Z</time>
      </trkpt>
      <trkpt lat="48.785" lon="-0.37375">
        <ele>212.5</ele>
        <time>2025-05-26T14:31:18.101Z</time>
      </trkpt>
      <trkpt lat="48.78506" lon="-0.37372">
        <ele>212.4</ele>
        <time>2025-05-26T14:31:22.380Z</time>
      </trkpt>
      <trkpt lat="48.78512" lon="-0.37368">
        <ele>212.2</ele>
        <time>2025-05-26T14:31:26.659Z</time>
      </trkpt>
      <trkpt lat="48.78518" lon="-0.37364">
        <ele>212.1</ele>
        <time>2025-05-26T14:31:30.938Z</time>
      </trkpt>
      <trkpt lat="48.78524" lon="-0.3736">
        <ele>212</ele>
        <time>2025-05-26T14:31:35.217Z</time>
      </trkpt>
      <trkpt lat="48.7853" lon="-0.37357">
        <ele>212.1</ele>
        <time>2025-05-26T14:31:39.496Z</time>
      </trkpt>
      <trkpt lat="48.78535" lon="-0.37353">
        <ele>212.2</ele>
        <time>2025-05-26T14:31:43.775Z</time>
      </trkpt>
      <trkpt lat="48.78541" lon="-0.37349">
        <ele>212.3</ele>
        <time>2025-05-26T14:31:48.055Z</time>
      </trkpt>
      <trkpt lat="48.78547" lon="-0.37346">
        <ele>212.3</ele>
        <time>2025-05-26T14:31:52.335Z</time>
      </trkpt>
      <trkpt lat="48.78553" lon="-0.37342">
        <ele>212.3</ele>
        <time>2025-05-26T14:31:56.615Z</time>
      </trkpt>
      <trkpt lat="48.7856" lon="-0.37341">
        <ele>212.1</ele>
        <time>2025-05-26T14:32:00.708Z</time>
      </trkpt>
      <trkpt lat="48.78566" lon="-0.37339">
        <ele>211.8</ele>
        <time>2025-05-26T14:32:04.801Z</time>
      </trkpt>
      <trkpt lat="48.78573" lon="-0.37338">
        <ele>211.5</ele>
        <time>2025-05-26T14:32:08.894Z</time>
      </trkpt>
      <trkpt lat="48.7858" lon="-0.37336">
        <ele>211.2</ele>
        <time>2025-05-26T14:32:12.987Z</time>
      </trkpt>
      <trkpt lat="48.78586" lon="-0.37335">
        <ele>211</ele>
        <time>2025-05-26T14:32:17.080Z</time>
      </trkpt>
      <trkpt lat="48.78593" lon="-0.37333">
        <ele>210.7</ele>
        <time>2025-05-26T14:32:21.173Z</time>
      </trkpt>
      <trkpt lat="48.78599" lon="-0.37332">
        <ele>210.4</ele>
        <time>2025-05-26T14:32:25.266Z</time>
      </trkpt>
      <trkpt lat="48.78606" lon="-0.3733">
        <ele>210.2</ele>
        <time>2025-05-26T14:32:29.360Z</time>
      </trkpt>
      <trkpt lat="48.78614" lon="-0.37324">
        <ele>210</ele>
        <time>2025-05-26T14:32:34.707Z</time>
      </trkpt>
      <trkpt lat="48.78621" lon="-0.37317">
        <ele>209.8</ele>
        <time>2025-05-26T14:32:40.054Z</time>
      </trkpt>
      <trkpt lat="48.78629" lon="-0.37311">
        <ele>209.5</ele>
        <time>2025-05-26T14:32:45.401Z</time>
      </trkpt>
      <trkpt lat="48.78636" lon="-0.37304">
        <ele>209</ele>
        <time>2025-05-26T14:32:50.748Z</time>
      </trkpt>
      <trkpt lat="48.7864" lon="-0.37298">
        <ele>208.7</ele>
        <time>2025-05-26T14:32:53.954Z</time>
      </trkpt>
      <trkpt lat="48.78644" lon="-0.37293">
        <ele>208.5</ele>
        <time>2025-05-26T14:32:57.160Z</time>
      </trkpt>
      <trkpt lat="48.78647" lon="-0.37287">
        <ele>208.1</ele>
        <time>2025-05-26T14:33:00.367Z</time>
      </trkpt>
      <trkpt lat="48.78651" lon="-0.37281">
        <ele>207.7</ele>
        <time>2025-05-26T14:33:03.574Z</time>
      </trkpt>
      <trkpt lat="48.78656" lon="-0.37279">
        <ele>207.5</ele>
        <time>2025-05-26T14:33:06.883Z</time>
      </trkpt>
      <trkpt lat="48.78662" lon="-0.37276">
        <ele>207.1</ele>
        <time>2025-05-26T14:33:10.192Z</time>
      </trkpt>
      <trkpt lat="48.78667" lon="-0.37274">
        <ele>206.9</ele>
        <time>2025-05-26T14:33:13.502Z</time>
      </trkpt>
      <trkpt lat="48.78672" lon="-0.37271">
        <ele>206.7</ele>
        <time>2025-05-26T14:33:16.812Z</time>
      </trkpt>
      <trkpt lat="48.78677" lon="-0.37271">
        <ele>206.7</ele>
        <time>2025-05-26T14:33:20.279Z</time>
      </trkpt>
      <trkpt lat="48.78683" lon="-0.37271">
        <ele>206.6</ele>
        <time>2025-05-26T14:33:23.746Z</time>
      </trkpt>
      <trkpt lat="48.78688" lon="-0.37271">
        <ele>206.6</ele>
        <time>2025-05-26T14:33:27.214Z</time>
      </trkpt>
      <trkpt lat="48.78694" lon="-0.37272">
        <ele>206.6</ele>
        <time>2025-05-26T14:33:30.682Z</time>
      </trkpt>
      <trkpt lat="48.78699" lon="-0.37272">
        <ele>206.4</ele>
        <time>2025-05-26T14:33:34.150Z</time>
      </trkpt>
      <trkpt lat="48.78704" lon="-0.37272">
        <ele>206.2</ele>
        <time>2025-05-26T14:33:37.618Z</time>
      </trkpt>
      <trkpt lat="48.7871" lon="-0.37272">
        <ele>206</ele>
        <time>2025-05-26T14:33:41.086Z</time>
      </trkpt>
      <trkpt lat="48.78715" lon="-0.37272">
        <ele>205.8</ele>
        <time>2025-05-26T14:33:44.554Z</time>
      </trkpt>
      <trkpt lat="48.78723" lon="-0.37269">
        <ele>205.3</ele>
        <time>2025-05-26T14:33:50.273Z</time>
      </trkpt>
      <trkpt lat="48.78731" lon="-0.37265">
        <ele>204.9</ele>
        <time>2025-05-26T14:33:55.992Z</time>
      </trkpt>
      <trkpt lat="48.78739" lon="-0.37262">
        <ele>204.6</ele>
        <time>2025-05-26T14:34:01.711Z</time>
      </trkpt>
      <trkpt lat="48.78744" lon="-0.3726">
        <ele>204.4</ele>
        <time>2025-05-26T14:34:04.570Z</time>
      </trkpt>
      <trkpt lat="48.78748" lon="-0.37258">
        <ele>204.3</ele>
        <time>2025-05-26T14:34:07.430Z</time>
      </trkpt>
      <trkpt lat="48.78756" lon="-0.37255">
        <ele>204.4</ele>
        <time>2025-05-26T14:34:13.150Z</time>
      </trkpt>
      <trkpt lat="48.78764" lon="-0.37251">
        <ele>204.5</ele>
        <time>2025-05-26T14:34:18.870Z</time>
      </trkpt>
      <trkpt lat="48.78772" lon="-0.37248">
        <ele>204.6</ele>
        <time>2025-05-26T14:34:24.590Z</time>
      </trkpt>
      <trkpt lat="48.7878" lon="-0.37245">
        <ele>204.7</ele>
        <time>2025-05-26T14:34:30.310Z</time>
      </trkpt>
      <trkpt lat="48.78788" lon="-0.37241">
        <ele>204.7</ele>
        <time>2025-05-26T14:34:36.030Z</time>
      </trkpt>
      <trkpt lat="48.78796" lon="-0.37238">
        <ele>204.8</ele>
        <time>2025-05-26T14:34:41.750Z</time>
      </trkpt>
      <trkpt lat="48.78804" lon="-0.37234">
        <ele>204.8</ele>
        <time>2025-05-26T14:34:47.470Z</time>
      </trkpt>
      <trkpt lat="48.78809" lon="-0.37233">
        <ele>204.8</ele>
        <time>2025-05-26T14:34:50.330Z</time>
      </trkpt>
      <trkpt lat="48.78813" lon="-0.37231">
        <ele>204.9</ele>
        <time>2025-05-26T14:34:53.190Z</time>
      </trkpt>
      <trkpt lat="48.78821" lon="-0.37227">
        <ele>204.9</ele>
        <time>2025-05-26T14:34:58.910Z</time>
      </trkpt>
      <trkpt lat="48.78829" lon="-0.37224">
        <ele>205</ele>
        <time>2025-05-26T14:35:04.630Z</time>
      </trkpt>
      <trkpt lat="48.78837" lon="-0.3722">
        <ele>205</ele>
        <time>2025-05-26T14:35:10.350Z</time>
      </trkpt>
      <trkpt lat="48.78845" lon="-0.37217">
        <ele>205.2</ele>
        <time>2025-05-26T14:35:16.070Z</time>
      </trkpt>
      <trkpt lat="48.78851" lon="-0.37215">
        <ele>205.3</ele>
        <time>2025-05-26T14:35:20.272Z</time>
      </trkpt>
      <trkpt lat="48.78857" lon="-0.37213">
        <ele>205.4</ele>
        <time>2025-05-26T14:35:24.474Z</time>
      </trkpt>
      <trkpt lat="48.78863" lon="-0.3721">
        <ele>205.3</ele>
        <time>2025-05-26T14:35:28.676Z</time>
      </trkpt>
      <trkpt lat="48.7887" lon="-0.37208">
        <ele>205.3</ele>
        <time>2025-05-26T14:35:32.879Z</time>
      </trkpt>
      <trkpt lat="48.78876" lon="-0.37206">
        <ele>205.2</ele>
        <time>2025-05-26T14:35:37.082Z</time>
      </trkpt>
      <trkpt lat="48.78882" lon="-0.37204">
        <ele>205.1</ele>
        <time>2025-05-26T14:35:41.285Z</time>
      </trkpt>
      <trkpt lat="48.78888" lon="-0.37201">
        <ele>204.9</ele>
        <time>2025-05-26T14:35:45.488Z</time>
      </trkpt>
      <trkpt lat="48.78894" lon="-0.37199">
        <ele>204.7</ele>
        <time>2025-05-26T14:35:49.691Z</time>
      </trkpt>
      <trkpt lat="48.789" lon="-0.37198">
        <ele>204.5</ele>
        <time>2025-05-26T14:35:53.278Z</time>
      </trkpt>
      <trkpt lat="48.78905" lon="-0.37198">
        <ele>204.5</ele>
        <time>2025-05-26T14:35:56.866Z</time>
      </trkpt>
      <trkpt lat="48.78911" lon="-0.37197">
        <ele>204.4</ele>
        <time>2025-05-26T14:36:00.454Z</time>
      </trkpt>
      <trkpt lat="48.78916" lon="-0.37197">
        <ele>204.4</ele>
        <time>2025-05-26T14:36:04.042Z</time>
      </trkpt>
      <trkpt lat="48.78922" lon="-0.37196">
        <ele>204.2</ele>
        <time>2025-05-26T14:36:07.630Z</time>
      </trkpt>
      <trkpt lat="48.78927" lon="-0.37195">
        <ele>204.1</ele>
        <time>2025-05-26T14:36:11.218Z</time>
      </trkpt>
      <trkpt lat="48.78933" lon="-0.37195">
        <ele>204.1</ele>
        <time>2025-05-26T14:36:14.806Z</time>
      </trkpt>
      <trkpt lat="48.78938" lon="-0.37194">
        <ele>203.9</ele>
        <time>2025-05-26T14:36:18.394Z</time>
      </trkpt>
      <trkpt lat="48.78943" lon="-0.37194">
        <ele>203.9</ele>
        <time>2025-05-26T14:36:21.934Z</time>
      </trkpt>
      <trkpt lat="48.78949" lon="-0.37194">
        <ele>203.8</ele>
        <time>2025-05-26T14:36:25.475Z</time>
      </trkpt>
      <trkpt lat="48.78954" lon="-0.37194">
        <ele>203.6</ele>
        <time>2025-05-26T14:36:29.016Z</time>
      </trkpt>
      <trkpt lat="48.7896" lon="-0.37194">
        <ele>203.4</ele>
        <time>2025-05-26T14:36:32.557Z</time>
      </trkpt>
      <trkpt lat="48.78965" lon="-0.37194">
        <ele>203.2</ele>
        <time>2025-05-26T14:36:36.098Z</time>
      </trkpt>
      <trkpt lat="48.7897" lon="-0.37194">
        <ele>203</ele>
        <time>2025-05-26T14:36:39.639Z</time>
      </trkpt>
      <trkpt lat="48.78976" lon="-0.37194">
        <ele>203.1</ele>
        <time>2025-05-26T14:36:43.180Z</time>
      </trkpt>
      <trkpt lat="48.78981" lon="-0.37194">
        <ele>203.3</ele>
        <time>2025-05-26T14:36:46.721Z</time>
      </trkpt>
      <trkpt lat="48.78983" lon="-0.37183">
        <ele>202.2</ele>
        <time>2025-05-26T14:36:51.075Z</time>
      </trkpt>
      <trkpt lat="48.78984" lon="-0.37173">
        <ele>201.1</ele>
        <time>2025-05-26T14:36:55.429Z</time>
      </trkpt>
      <trkpt lat="48.78986" lon="-0.37162">
        <ele>199.8</ele>
        <time>2025-05-26T14:36:59.784Z</time>
      </trkpt>
      <trkpt lat="48.78987" lon="-0.37151">
        <ele>198.3</ele>
        <time>2025-05-26T14:37:04.139Z</time>
      </trkpt>
      <trkpt lat="48.7899" lon="-0.37141">
        <ele>196.9</ele>
        <time>2025-05-26T14:37:08.525Z</time>
      </trkpt>
      <trkpt lat="48.78993" lon="-0.37131">
        <ele>196</ele>
        <time>2025-05-26T14:37:12.911Z</time>
      </trkpt>
      <trkpt lat="48.78995" lon="-0.3712">
        <ele>194.9</ele>
        <time>2025-05-26T14:37:17.297Z</time>
      </trkpt>
      <trkpt lat="48.78998" lon="-0.3711">
        <ele>194</ele>
        <time>2025-05-26T14:37:21.683Z</time>
      </trkpt>
      <trkpt lat="48.79003" lon="-0.37103">
        <ele>194.3</ele>
        <time>2025-05-26T14:37:26.587Z</time>
      </trkpt>
      <trkpt lat="48.79008" lon="-0.37096">
        <ele>194.4</ele>
        <time>2025-05-26T14:37:31.491Z</time>
      </trkpt>
      <trkpt lat="48.79012" lon="-0.37089">
        <ele>194.5</ele>
        <time>2025-05-26T14:37:36.395Z</time>
      </trkpt>
      <trkpt lat="48.79017" lon="-0.37083">
        <ele>194.4</ele>
        <time>2025-05-26T14:37:41.299Z</time>
      </trkpt>
      <trkpt lat="48.79022" lon="-0.37076">
        <ele>194.8</ele>
        <time>2025-05-26T14:37:46.204Z</time>
      </trkpt>
      <trkpt lat="48.79027" lon="-0.37069">
        <ele>195.1</ele>
        <time>2025-05-26T14:37:51.109Z</time>
      </trkpt>
      <trkpt lat="48.79031" lon="-0.37062">
        <ele>195.3</ele>
        <time>2025-05-26T14:37:56.014Z</time>
      </trkpt>
      <trkpt lat="48.79036" lon="-0.37055">
        <ele>195.4</ele>
        <time>2025-05-26T14:38:00.919Z</time>
      </trkpt>
      <trkpt lat="48.7904" lon="-0.37062">
        <ele>194.8</ele>
        <time>2025-05-26T14:38:05.018Z</time>
      </trkpt>
      <trkpt lat="48.79045" lon="-0.37069">
        <ele>194.1</ele>
        <time>2025-05-26T14:38:09.118Z</time>
      </trkpt>
      <trkpt lat="48.79049" lon="-0.37076">
        <ele>193.6</ele>
        <time>2025-05-26T14:38:13.218Z</time>
      </trkpt>
      <trkpt lat="48.79054" lon="-0.37083">
        <ele>193.1</ele>
        <time>2025-05-26T14:38:17.318Z</time>
      </trkpt>
      <trkpt lat="48.79058" lon="-0.37089">
        <ele>193.2</ele>
        <time>2025-05-26T14:38:21.418Z</time>
      </trkpt>
      <trkpt lat="48.79062" lon="-0.37096">
        <ele>193.4</ele>
        <time>2025-05-26T14:38:25.518Z</time>
      </trkpt>
      <trkpt lat="48.79067" lon="-0.37103">
        <ele>193.9</ele>
        <time>2025-05-26T14:38:29.618Z</time>
      </trkpt>
      <trkpt lat="48.79071" lon="-0.3711">
        <ele>194.5</ele>
        <time>2025-05-26T14:38:33.718Z</time>
      </trkpt>
      <trkpt lat="48.79073" lon="-0.37117">
        <ele>195.1</ele>
        <time>2025-05-26T14:38:38.680Z</time>
      </trkpt>
      <trkpt lat="48.79075" lon="-0.37123">
        <ele>195.7</ele>
        <time>2025-05-26T14:38:43.642Z</time>
      </trkpt>
      <trkpt lat="48.79076" lon="-0.3713">
        <ele>196.3</ele>
        <time>2025-05-26T14:38:48.415Z</time>
      </trkpt>
      <trkpt lat="48.79077" lon="-0.37137">
        <ele>196.8</ele>
        <time>2025-05-26T14:38:53.188Z</time>
      </trkpt>
      <trkpt lat="48.79074" lon="-0.37146">
        <ele>197.5</ele>
        <time>2025-05-26T14:38:59.648Z</time>
      </trkpt>
      <trkpt lat="48.79082" lon="-0.37143">
        <ele>197.3</ele>
        <time>2025-05-26T14:39:04.511Z</time>
      </trkpt>
      <trkpt lat="48.7909" lon="-0.37139">
        <ele>196.5</ele>
        <time>2025-05-26T14:39:09.375Z</time>
      </trkpt>
      <trkpt lat="48.79097" lon="-0.37136">
        <ele>195.9</ele>
        <time>2025-05-26T14:39:14.239Z</time>
      </trkpt>
      <trkpt lat="48.79105" lon="-0.37132">
        <ele>195.1</ele>
        <time>2025-05-26T14:39:19.103Z</time>
      </trkpt>
      <trkpt lat="48.7911" lon="-0.37132">
        <ele>194.8</ele>
        <time>2025-05-26T14:39:21.855Z</time>
      </trkpt>
      <trkpt lat="48.79114" lon="-0.37132">
        <ele>194.7</ele>
        <time>2025-05-26T14:39:24.607Z</time>
      </trkpt>
      <trkpt lat="48.79119" lon="-0.37132">
        <ele>194.5</ele>
        <time>2025-05-26T14:39:27.359Z</time>
      </trkpt>
      <trkpt lat="48.79123" lon="-0.37132">
        <ele>194.4</ele>
        <time>2025-05-26T14:39:30.112Z</time>
      </trkpt>
      <trkpt lat="48.79128" lon="-0.3714">
        <ele>194.4</ele>
        <time>2025-05-26T14:39:35.324Z</time>
      </trkpt>
      <trkpt lat="48.79133" lon="-0.37148">
        <ele>194.6</ele>
        <time>2025-05-26T14:39:40.536Z</time>
      </trkpt>
      <trkpt lat="48.79138" lon="-0.37156">
        <ele>194.7</ele>
        <time>2025-05-26T14:39:45.470Z</time>
      </trkpt>
      <trkpt lat="48.79143" lon="-0.37164">
        <ele>194.5</ele>
        <time>2025-05-26T14:39:50.404Z</time>
      </trkpt>
      <trkpt lat="48.79148" lon="-0.37172">
        <ele>194.2</ele>
        <time>2025-05-26T14:39:55.338Z</time>
      </trkpt>
      <trkpt lat="48.79154" lon="-0.3718">
        <ele>193.8</ele>
        <time>2025-05-26T14:40:00.273Z</time>
      </trkpt>
      <trkpt lat="48.79159" lon="-0.37187">
        <ele>193.6</ele>
        <time>2025-05-26T14:40:05.208Z</time>
      </trkpt>
      <trkpt lat="48.79164" lon="-0.37195">
        <ele>193.3</ele>
        <time>2025-05-26T14:40:10.143Z</time>
      </trkpt>
      <trkpt lat="48.79169" lon="-0.37203">
        <ele>193.8</ele>
        <time>2025-05-26T14:40:15.078Z</time>
      </trkpt>
      <trkpt lat="48.79174" lon="-0.37211">
        <ele>194.3</ele>
        <time>2025-05-26T14:40:20.013Z</time>
      </trkpt>
      <trkpt lat="48.79178" lon="-0.37216">
        <ele>194.5</ele>
        <time>2025-05-26T14:40:23.620Z</time>
      </trkpt>
      <trkpt lat="48.79182" lon="-0.37221">
        <ele>194.8</ele>
        <time>2025-05-26T14:40:27.227Z</time>
      </trkpt>
      <trkpt lat="48.79186" lon="-0.37226">
        <ele>194.7</ele>
        <time>2025-05-26T14:40:30.834Z</time>
      </trkpt>
      <trkpt lat="48.7919" lon="-0.37231">
        <ele>194.6</ele>
        <time>2025-05-26T14:40:34.441Z</time>
      </trkpt>
      <trkpt lat="48.79194" lon="-0.37235">
        <ele>194.5</ele>
        <time>2025-05-26T14:40:38.048Z</time>
      </trkpt>
      <trkpt lat="48.79198" lon="-0.3724">
        <ele>194.5</ele>
        <time>2025-05-26T14:40:41.655Z</time>
      </trkpt>
      <trkpt lat="48.79202" lon="-0.37245">
        <ele>194.5</ele>
        <time>2025-05-26T14:40:45.262Z</time>
      </trkpt>
      <trkpt lat="48.79206" lon="-0.3725">
        <ele>194.6</ele>
        <time>2025-05-26T14:40:48.869Z</time>
      </trkpt>
      <trkpt lat="48.79209" lon="-0.37256">
        <ele>194.5</ele>
        <time>2025-05-26T14:40:51.814Z</time>
      </trkpt>
      <trkpt lat="48.79212" lon="-0.37262">
        <ele>194.4</ele>
        <time>2025-05-26T14:40:54.759Z</time>
      </trkpt>
      <trkpt lat="48.79215" lon="-0.37268">
        <ele>194.3</ele>
        <time>2025-05-26T14:40:57.704Z</time>
      </trkpt>
      <trkpt lat="48.79218" lon="-0.37274">
        <ele>194.2</ele>
        <time>2025-05-26T14:41:00.650Z</time>
      </trkpt>
      <trkpt lat="48.79221" lon="-0.37279">
        <ele>194</ele>
        <time>2025-05-26T14:41:03.596Z</time>
      </trkpt>
      <trkpt lat="48.79224" lon="-0.37285">
        <ele>193.6</ele>
        <time>2025-05-26T14:41:06.542Z</time>
      </trkpt>
      <trkpt lat="48.79227" lon="-0.37291">
        <ele>193.2</ele>
        <time>2025-05-26T14:41:09.488Z</time>
      </trkpt>
      <trkpt lat="48.7923" lon="-0.37297">
        <ele>192.7</ele>
        <time>2025-05-26T14:41:12.434Z</time>
      </trkpt>
      <trkpt lat="48.79232" lon="-0.37305">
        <ele>192.3</ele>
        <time>2025-05-26T14:41:15.972Z</time>
      </trkpt>
      <trkpt lat="48.79235" lon="-0.37314">
        <ele>191.8</ele>
        <time>2025-05-26T14:41:19.510Z</time>
      </trkpt>
      <trkpt lat="48.79237" lon="-0.37322">
        <ele>191.3</ele>
        <time>2025-05-26T14:41:23.048Z</time>
      </trkpt>
      <trkpt lat="48.79239" lon="-0.3733">
        <ele>190.9</ele>
        <time>2025-05-26T14:41:26.587Z</time>
      </trkpt>
      <trkpt lat="48.79239" lon="-0.3734">
        <ele>190.6</ele>
        <time>2025-05-26T14:41:30.718Z</time>
      </trkpt>
      <trkpt lat="48.79239" lon="-0.3735">
        <ele>190.2</ele>
        <time>2025-05-26T14:41:34.850Z</time>
      </trkpt>
      <trkpt lat="48.79239" lon="-0.3736">
        <ele>189.8</ele>
        <time>2025-05-26T14:41:38.982Z</time>
      </trkpt>
      <trkpt lat="48.79239" lon="-0.3737">
        <ele>190.1</ele>
        <time>2025-05-26T14:41:43.114Z</time>
      </trkpt>
      <trkpt lat="48.79238" lon="-0.37383">
        <ele>190.7</ele>
        <time>2025-05-26T14:41:51.731Z</time>
      </trkpt>
      <trkpt lat="48.79238" lon="-0.3739">
        <ele>190.9</ele>
        <time>2025-05-26T14:41:56.039Z</time>
      </trkpt>
      <trkpt lat="48.79238" lon="-0.37397">
        <ele>191.4</ele>
        <time>2025-05-26T14:42:00.348Z</time>
      </trkpt>
      <trkpt lat="48.79237" lon="-0.3741">
        <ele>192.5</ele>
        <time>2025-05-26T14:42:08.965Z</time>
      </trkpt>
      <trkpt lat="48.79237" lon="-0.37417">
        <ele>193</ele>
        <time>2025-05-26T14:42:13.273Z</time>
      </trkpt>
      <trkpt lat="48.79236" lon="-0.37424">
        <ele>193.5</ele>
        <time>2025-05-26T14:42:17.582Z</time>
      </trkpt>
      <trkpt lat="48.79235" lon="-0.37437">
        <ele>194.5</ele>
        <time>2025-05-26T14:42:26.199Z</time>
      </trkpt>
      <trkpt lat="48.79235" lon="-0.3745">
        <ele>195.5</ele>
        <time>2025-05-26T14:42:34.817Z</time>
      </trkpt>
      <trkpt lat="48.79235" lon="-0.37457">
        <ele>196</ele>
        <time>2025-05-26T14:42:39.125Z</time>
      </trkpt>
      <trkpt lat="48.79234" lon="-0.37464">
        <ele>196.6</ele>
        <time>2025-05-26T14:42:43.435Z</time>
      </trkpt>
      <trkpt lat="48.79233" lon="-0.37477">
        <ele>197.6</ele>
        <time>2025-05-26T14:42:52.054Z</time>
      </trkpt>
      <trkpt lat="48.79234" lon="-0.37487">
        <ele>198.2</ele>
        <time>2025-05-26T14:42:59.065Z</time>
      </trkpt>
      <trkpt lat="48.79235" lon="-0.37498">
        <ele>198.9</ele>
        <time>2025-05-26T14:43:06.077Z</time>
      </trkpt>
      <trkpt lat="48.79236" lon="-0.37508">
        <ele>199.9</ele>
        <time>2025-05-26T14:43:13.089Z</time>
      </trkpt>
      <trkpt lat="48.79237" lon="-0.37518">
        <ele>200.9</ele>
        <time>2025-05-26T14:43:20.101Z</time>
      </trkpt>
      <trkpt lat="48.79241" lon="-0.37523">
        <ele>201.1</ele>
        <time>2025-05-26T14:43:24.206Z</time>
      </trkpt>
      <trkpt lat="48.79244" lon="-0.37528">
        <ele>201.5</ele>
        <time>2025-05-26T14:43:28.311Z</time>
      </trkpt>
      <trkpt lat="48.79248" lon="-0.37532">
        <ele>201.7</ele>
        <time>2025-05-26T14:43:32.416Z</time>
      </trkpt>
      <trkpt lat="48.79251" lon="-0.37537">
        <ele>202.3</ele>
        <time>2025-05-26T14:43:36.521Z</time>
      </trkpt>
      <trkpt lat="48.79258" lon="-0.37542">
        <ele>202.5</ele>
        <time>2025-05-26T14:43:41.920Z</time>
      </trkpt>
      <trkpt lat="48.79265" lon="-0.37546">
        <ele>202.5</ele>
        <time>2025-05-26T14:43:47.320Z</time>
      </trkpt>
      <trkpt lat="48.79271" lon="-0.37551">
        <ele>202.8</ele>
        <time>2025-05-26T14:43:52.720Z</time>
      </trkpt>
      <trkpt lat="48.79278" lon="-0.37555">
        <ele>202.9</ele>
        <time>2025-05-26T14:43:58.120Z</time>
      </trkpt>
      <trkpt lat="48.79284" lon="-0.37563">
        <ele>203.1</ele>
        <time>2025-05-26T14:44:03.353Z</time>
      </trkpt>
      <trkpt lat="48.7929" lon="-0.37571">
        <ele>203.1</ele>
        <time>2025-05-26T14:44:08.586Z</time>
      </trkpt>
      <trkpt lat="48.79295" lon="-0.37578">
        <ele>203.1</ele>
        <time>2025-05-26T14:44:13.820Z</time>
      </trkpt>
      <trkpt lat="48.79301" lon="-0.37586">
        <ele>202.8</ele>
        <time>2025-05-26T14:44:19.054Z</time>
      </trkpt>
      <trkpt lat="48.79306" lon="-0.37595">
        <ele>202.8</ele>
        <time>2025-05-26T14:44:23.729Z</time>
      </trkpt>
      <trkpt lat="48.7931" lon="-0.37604">
        <ele>202.7</ele>
        <time>2025-05-26T14:44:28.404Z</time>
      </trkpt>
      <trkpt lat="48.79315" lon="-0.37612">
        <ele>202.3</ele>
        <time>2025-05-26T14:44:33.079Z</time>
      </trkpt>
      <trkpt lat="48.79319" lon="-0.37621">
        <ele>202.1</ele>
        <time>2025-05-26T14:44:37.755Z</time>
      </trkpt>
      <trkpt lat="48.79323" lon="-0.37627">
        <ele>201.8</ele>
        <time>2025-05-26T14:44:41.379Z</time>
      </trkpt>
      <trkpt lat="48.79327" lon="-0.37634">
        <ele>201.6</ele>
        <time>2025-05-26T14:44:45.004Z</time>
      </trkpt>
      <trkpt lat="48.7933" lon="-0.3764">
        <ele>201.6</ele>
        <time>2025-05-26T14:44:48.629Z</time>
      </trkpt>
      <trkpt lat="48.79334" lon="-0.37646">
        <ele>201.7</ele>
        <time>2025-05-26T14:44:52.254Z</time>
      </trkpt>
      <trkpt lat="48.79341" lon="-0.37654">
        <ele>202.2</ele>
        <time>2025-05-26T14:44:59.480Z</time>
      </trkpt>
      <trkpt lat="48.79348" lon="-0.37654">
        <ele>201.9</ele>
        <time>2025-05-26T14:45:03.845Z</time>
      </trkpt>
      <trkpt lat="48.79356" lon="-0.37653">
        <ele>201.3</ele>
        <time>2025-05-26T14:45:08.210Z</time>
      </trkpt>
      <trkpt lat="48.79363" lon="-0.37653">
        <ele>200.9</ele>
        <time>2025-05-26T14:45:12.575Z</time>
      </trkpt>
      <trkpt lat="48.7937" lon="-0.37652">
        <ele>200.4</ele>
        <time>2025-05-26T14:45:16.941Z</time>
      </trkpt>
      <trkpt lat="48.79376" lon="-0.37654">
        <ele>200.3</ele>
        <time>2025-05-26T14:45:21.097Z</time>
      </trkpt>
      <trkpt lat="48.79383" lon="-0.37655">
        <ele>200.1</ele>
        <time>2025-05-26T14:45:25.253Z</time>
      </trkpt>
      <trkpt lat="48.79389" lon="-0.37657">
        <ele>200</ele>
        <time>2025-05-26T14:45:29.410Z</time>
      </trkpt>
      <trkpt lat="48.79396" lon="-0.37658">
        <ele>199.7</ele>
        <time>2025-05-26T14:45:33.567Z</time>
      </trkpt>
      <trkpt lat="48.79402" lon="-0.3766">
        <ele>199.7</ele>
        <time>2025-05-26T14:45:37.724Z</time>
      </trkpt>
      <trkpt lat="48.79408" lon="-0.37661">
        <ele>199.6</ele>
        <time>2025-05-26T14:45:41.881Z</time>
      </trkpt>
      <trkpt lat="48.79415" lon="-0.37663">
        <ele>199.5</ele>
        <time>2025-05-26T14:45:46.038Z</time>
      </trkpt>
      <trkpt lat="48.79421" lon="-0.37664">
        <ele>199.3</ele>
        <time>2025-05-26T14:45:50.195Z</time>
      </trkpt>
      <trkpt lat="48.79421" lon="-0.37676">
        <ele>200.3</ele>
        <time>2025-05-26T14:45:57.398Z</time>
      </trkpt>
      <trkpt lat="48.79422" lon="-0.37689">
        <ele>201.1</ele>
        <time>2025-05-26T14:46:04.601Z</time>
      </trkpt>
      <trkpt lat="48.79422" lon="-0.37701">
        <ele>201.7</ele>
        <time>2025-05-26T14:46:11.804Z</time>
      </trkpt>
      <trkpt lat="48.79422" lon="-0.37713">
        <ele>202.1</ele>
        <time>2025-05-26T14:46:19.007Z</time>
      </trkpt>
      <trkpt lat="48.79422" lon="-0.37725">
        <ele>202.6</ele>
        <time>2025-05-26T14:46:26.210Z</time>
      </trkpt>
      <trkpt lat="48.79423" lon="-0.37738">
        <ele>203.3</ele>
        <time>2025-05-26T14:46:33.414Z</time>
      </trkpt>
      <trkpt lat="48.79423" lon="-0.3775">
        <ele>204.1</ele>
        <time>2025-05-26T14:46:40.618Z</time>
      </trkpt>
      <trkpt lat="48.79423" lon="-0.37762">
        <ele>204.5</ele>
        <time>2025-05-26T14:46:47.822Z</time>
        <extensions>
          <visugpx:TrkExtension xmlns:visugpx="https://www.visugpx.com/editgpx/">
            <visugpx:node>7</visugpx:node>
            </visugpx:TrkExtension>
        </extensions>
      </trkpt>
      <trkpt lat="48.79424" lon="-0.37774">
        <ele>204.8</ele>
        <time>2025-05-26T14:46:54.084Z</time>
      </trkpt>
      <trkpt lat="48.79424" lon="-0.37786">
        <ele>205.2</ele>
        <time>2025-05-26T14:47:00.346Z</time>
      </trkpt>
      <trkpt lat="48.79431" lon="-0.3779">
        <ele>204.4</ele>
        <time>2025-05-26T14:47:04.845Z</time>
      </trkpt>
      <trkpt lat="48.79438" lon="-0.37794">
        <ele>203.5</ele>
        <time>2025-05-26T14:47:09.344Z</time>
      </trkpt>
      <trkpt lat="48.79446" lon="-0.37791">
        <ele>202.4</ele>
        <time>2025-05-26T14:47:14.155Z</time>
      </trkpt>
      <trkpt lat="48.79454" lon="-0.37788">
        <ele>201.6</ele>
        <time>2025-05-26T14:47:18.966Z</time>
      </trkpt>
      <trkpt lat="48.79461" lon="-0.37785">
        <ele>200.8</ele>
        <time>2025-05-26T14:47:23.777Z</time>
      </trkpt>
      <trkpt lat="48.79469" lon="-0.37782">
        <ele>199.8</ele>
        <time>2025-05-26T14:47:28.588Z</time>
      </trkpt>
      <trkpt lat="48.79476" lon="-0.3778">
        <ele>199.1</ele>
        <time>2025-05-26T14:47:32.706Z</time>
      </trkpt>
      <trkpt lat="48.79483" lon="-0.37779">
        <ele>198.7</ele>
        <time>2025-05-26T14:47:36.825Z</time>
      </trkpt>
      <trkpt lat="48.79489" lon="-0.37777">
        <ele>198.3</ele>
        <time>2025-05-26T14:47:40.944Z</time>
      </trkpt>
      <trkpt lat="48.79496" lon="-0.37775">
        <ele>197.8</ele>
        <time>2025-05-26T14:47:45.063Z</time>
      </trkpt>
      <trkpt lat="48.79503" lon="-0.37773">
        <ele>197.2</ele>
        <time>2025-05-26T14:47:49.182Z</time>
      </trkpt>
      <trkpt lat="48.7951" lon="-0.37772">
        <ele>196.8</ele>
        <time>2025-05-26T14:47:53.301Z</time>
      </trkpt>
      <trkpt lat="48.79516" lon="-0.3777">
        <ele>196.3</ele>
        <time>2025-05-26T14:47:57.420Z</time>
      </trkpt>
      <trkpt lat="48.79523" lon="-0.37768">
        <ele>195.8</ele>
        <time>2025-05-26T14:48:01.539Z</time>
      </trkpt>
      <trkpt lat="48.79531" lon="-0.37767">
        <ele>195.5</ele>
        <time>2025-05-26T14:48:06.619Z</time>
      </trkpt>
      <trkpt lat="48.79538" lon="-0.37766">
        <ele>195.5</ele>
        <time>2025-05-26T14:48:11.699Z</time>
      </trkpt>
      <trkpt lat="48.79546" lon="-0.37765">
        <ele>195.5</ele>
        <time>2025-05-26T14:48:16.779Z</time>
      </trkpt>
      <trkpt lat="48.79554" lon="-0.37764">
        <ele>195.5</ele>
        <time>2025-05-26T14:48:21.860Z</time>
      </trkpt>
      <trkpt lat="48.79561" lon="-0.37763">
        <ele>195.4</ele>
        <time>2025-05-26T14:48:26.941Z</time>
      </trkpt>
      <trkpt lat="48.79569" lon="-0.37762">
        <ele>195.3</ele>
        <time>2025-05-26T14:48:32.022Z</time>
      </trkpt>
      <trkpt lat="48.79576" lon="-0.37761">
        <ele>195.2</ele>
        <time>2025-05-26T14:48:37.103Z</time>
      </trkpt>
      <trkpt lat="48.79584" lon="-0.3776">
        <ele>195.1</ele>
        <time>2025-05-26T14:48:42.184Z</time>
      </trkpt>
      <trkpt lat="48.7959" lon="-0.37758">
        <ele>195</ele>
        <time>2025-05-26T14:48:46.168Z</time>
      </trkpt>
      <trkpt lat="48.79596" lon="-0.37755">
        <ele>194.9</ele>
        <time>2025-05-26T14:48:50.153Z</time>
      </trkpt>
      <trkpt lat="48.79602" lon="-0.37753">
        <ele>194.9</ele>
        <time>2025-05-26T14:48:54.138Z</time>
      </trkpt>
      <trkpt lat="48.79608" lon="-0.37751">
        <ele>195</ele>
        <time>2025-05-26T14:48:58.123Z</time>
      </trkpt>
      <trkpt lat="48.79614" lon="-0.37748">
        <ele>194.8</ele>
        <time>2025-05-26T14:49:02.108Z</time>
      </trkpt>
      <trkpt lat="48.7962" lon="-0.37746">
        <ele>194.6</ele>
        <time>2025-05-26T14:49:06.093Z</time>
      </trkpt>
      <trkpt lat="48.79626" lon="-0.37743">
        <ele>194.2</ele>
        <time>2025-05-26T14:49:10.078Z</time>
      </trkpt>
      <trkpt lat="48.79632" lon="-0.37741">
        <ele>194</ele>
        <time>2025-05-26T14:49:14.063Z</time>
      </trkpt>
      <trkpt lat="48.79639" lon="-0.37741">
        <ele>194</ele>
        <time>2025-05-26T14:49:18.407Z</time>
      </trkpt>
      <trkpt lat="48.79646" lon="-0.37741">
        <ele>194</ele>
        <time>2025-05-26T14:49:22.751Z</time>
      </trkpt>
      <trkpt lat="48.79653" lon="-0.37741">
        <ele>194</ele>
        <time>2025-05-26T14:49:27.095Z</time>
      </trkpt>
      <trkpt lat="48.7966" lon="-0.37742">
        <ele>194.1</ele>
        <time>2025-05-26T14:49:31.439Z</time>
      </trkpt>
      <trkpt lat="48.79667" lon="-0.37742">
        <ele>194.1</ele>
        <time>2025-05-26T14:49:35.784Z</time>
      </trkpt>
      <trkpt lat="48.79674" lon="-0.37742">
        <ele>193.4</ele>
        <time>2025-05-26T14:49:40.129Z</time>
      </trkpt>
      <trkpt lat="48.79681" lon="-0.37742">
        <ele>192.7</ele>
        <time>2025-05-26T14:49:44.474Z</time>
      </trkpt>
      <trkpt lat="48.79688" lon="-0.37742">
        <ele>192.1</ele>
        <time>2025-05-26T14:49:48.819Z</time>
      </trkpt>
      <trkpt lat="48.79692" lon="-0.37746">
        <ele>192</ele>
        <time>2025-05-26T14:49:51.776Z</time>
      </trkpt>
      <trkpt lat="48.79697" lon="-0.3775">
        <ele>191.4</ele>
        <time>2025-05-26T14:49:54.733Z</time>
      </trkpt>
      <trkpt lat="48.79701" lon="-0.37753">
        <ele>190.8</ele>
        <time>2025-05-26T14:49:57.690Z</time>
      </trkpt>
      <trkpt lat="48.79705" lon="-0.37757">
        <ele>190.1</ele>
        <time>2025-05-26T14:50:00.647Z</time>
      </trkpt>
      <trkpt lat="48.79706" lon="-0.37766">
        <ele>190.4</ele>
        <time>2025-05-26T14:50:05.490Z</time>
      </trkpt>
      <trkpt lat="48.79707" lon="-0.37775">
        <ele>190.7</ele>
        <time>2025-05-26T14:50:10.333Z</time>
      </trkpt>
      <trkpt lat="48.79706" lon="-0.37786">
        <ele>191.6</ele>
        <time>2025-05-26T14:50:17.475Z</time>
      </trkpt>
      <trkpt lat="48.79705" lon="-0.37798">
        <ele>192.5</ele>
        <time>2025-05-26T14:50:24.617Z</time>
      </trkpt>
      <trkpt lat="48.79704" lon="-0.37809">
        <ele>193.3</ele>
        <time>2025-05-26T14:50:31.759Z</time>
      </trkpt>
      <trkpt lat="48.79703" lon="-0.3782">
        <ele>193.7</ele>
        <time>2025-05-26T14:50:38.903Z</time>
      </trkpt>
      <trkpt lat="48.79711" lon="-0.37822">
        <ele>191.6</ele>
        <time>2025-05-26T14:50:43.797Z</time>
      </trkpt>
      <trkpt lat="48.79719" lon="-0.37825">
        <ele>189.5</ele>
        <time>2025-05-26T14:50:48.691Z</time>
      </trkpt>
      <trkpt lat="48.79727" lon="-0.37827">
        <ele>187.1</ele>
        <time>2025-05-26T14:50:53.585Z</time>
      </trkpt>
      <trkpt lat="48.79735" lon="-0.37829">
        <ele>184.2</ele>
        <time>2025-05-26T14:50:58.479Z</time>
      </trkpt>
      <trkpt lat="48.79736" lon="-0.37837">
        <ele>184.2</ele>
        <time>2025-05-26T14:51:01.798Z</time>
      </trkpt>
      <trkpt lat="48.79737" lon="-0.37845">
        <ele>184.1</ele>
        <time>2025-05-26T14:51:05.117Z</time>
      </trkpt>
      <trkpt lat="48.79737" lon="-0.37852">
        <ele>184.4</ele>
        <time>2025-05-26T14:51:08.436Z</time>
      </trkpt>
      <trkpt lat="48.79738" lon="-0.3786">
        <ele>184.3</ele>
        <time>2025-05-26T14:51:11.756Z</time>
      </trkpt>
      <trkpt lat="48.79739" lon="-0.37868">
        <ele>184.1</ele>
        <time>2025-05-26T14:51:15.076Z</time>
      </trkpt>
      <trkpt lat="48.7974" lon="-0.37876">
        <ele>183.9</ele>
        <time>2025-05-26T14:51:18.396Z</time>
      </trkpt>
      <trkpt lat="48.7974" lon="-0.37883">
        <ele>184.1</ele>
        <time>2025-05-26T14:51:21.716Z</time>
      </trkpt>
      <trkpt lat="48.79741" lon="-0.37891">
        <ele>184</ele>
        <time>2025-05-26T14:51:25.036Z</time>
      </trkpt>
      <trkpt lat="48.79742" lon="-0.37899">
        <ele>183.9</ele>
        <time>2025-05-26T14:51:28.356Z</time>
      </trkpt>
      <trkpt lat="48.79743" lon="-0.37907">
        <ele>183.8</ele>
        <time>2025-05-26T14:51:31.676Z</time>
      </trkpt>
      <trkpt lat="48.79743" lon="-0.37914">
        <ele>183.9</ele>
        <time>2025-05-26T14:51:34.996Z</time>
      </trkpt>
      <trkpt lat="48.79744" lon="-0.37922">
        <ele>183.7</ele>
        <time>2025-05-26T14:51:38.316Z</time>
      </trkpt>
      <trkpt lat="48.79745" lon="-0.3793">
        <ele>183.4</ele>
        <time>2025-05-26T14:51:41.636Z</time>
      </trkpt>
      <trkpt lat="48.79746" lon="-0.37938">
        <ele>183</ele>
        <time>2025-05-26T14:51:44.956Z</time>
      </trkpt>
      <trkpt lat="48.79746" lon="-0.37945">
        <ele>183</ele>
        <time>2025-05-26T14:51:48.276Z</time>
      </trkpt>
      <trkpt lat="48.79747" lon="-0.37953">
        <ele>182.4</ele>
        <time>2025-05-26T14:51:51.596Z</time>
      </trkpt>
      <trkpt lat="48.79747" lon="-0.37965">
        <ele>182</ele>
        <time>2025-05-26T14:51:56.353Z</time>
      </trkpt>
      <trkpt lat="48.79748" lon="-0.37977">
        <ele>181.2</ele>
        <time>2025-05-26T14:52:01.110Z</time>
      </trkpt>
      <trkpt lat="48.79748" lon="-0.37989">
        <ele>180.3</ele>
        <time>2025-05-26T14:52:05.867Z</time>
      </trkpt>
      <trkpt lat="48.79748" lon="-0.38001">
        <ele>179.4</ele>
        <time>2025-05-26T14:52:10.624Z</time>
      </trkpt>
      <trkpt lat="48.79746" lon="-0.38012">
        <ele>179.1</ele>
        <time>2025-05-26T14:52:15.141Z</time>
      </trkpt>
      <trkpt lat="48.79743" lon="-0.38023">
        <ele>178.9</ele>
        <time>2025-05-26T14:52:19.658Z</time>
      </trkpt>
      <trkpt lat="48.79741" lon="-0.38033">
        <ele>178.3</ele>
        <time>2025-05-26T14:52:24.175Z</time>
      </trkpt>
      <trkpt lat="48.79738" lon="-0.38044">
        <ele>177.6</ele>
        <time>2025-05-26T14:52:28.693Z</time>
      </trkpt>
      <trkpt lat="48.79734" lon="-0.38053">
        <ele>177.2</ele>
        <time>2025-05-26T14:52:32.921Z</time>
      </trkpt>
      <trkpt lat="48.7973" lon="-0.38061">
        <ele>176.8</ele>
        <time>2025-05-26T14:52:37.149Z</time>
      </trkpt>
      <trkpt lat="48.79725" lon="-0.3807">
        <ele>176.4</ele>
        <time>2025-05-26T14:52:41.377Z</time>
      </trkpt>
      <trkpt lat="48.79721" lon="-0.38078">
        <ele>176</ele>
        <time>2025-05-26T14:52:45.606Z</time>
      </trkpt>
      <trkpt lat="48.79717" lon="-0.38085">
        <ele>175.7</ele>
        <time>2025-05-26T14:52:49.451Z</time>
      </trkpt>
      <trkpt lat="48.79713" lon="-0.38093">
        <ele>175.2</ele>
        <time>2025-05-26T14:52:53.296Z</time>
      </trkpt>
      <trkpt lat="48.79708" lon="-0.381">
        <ele>174.9</ele>
        <time>2025-05-26T14:52:57.141Z</time>
      </trkpt>
      <trkpt lat="48.79704" lon="-0.38107">
        <ele>174.3</ele>
        <time>2025-05-26T14:53:00.986Z</time>
      </trkpt>
      <trkpt lat="48.797" lon="-0.38114">
        <ele>173.8</ele>
        <time>2025-05-26T14:53:04.831Z</time>
      </trkpt>
      <trkpt lat="48.79696" lon="-0.38122">
        <ele>173.2</ele>
        <time>2025-05-26T14:53:08.676Z</time>
      </trkpt>
      <trkpt lat="48.79691" lon="-0.38129">
        <ele>173</ele>
        <time>2025-05-26T14:53:12.522Z</time>
      </trkpt>
      <trkpt lat="48.79687" lon="-0.38136">
        <ele>172.5</ele>
        <time>2025-05-26T14:53:16.369Z</time>
      </trkpt>
      <trkpt lat="48.79682" lon="-0.38143">
        <ele>172.1</ele>
        <time>2025-05-26T14:53:20.228Z</time>
      </trkpt>
      <trkpt lat="48.79678" lon="-0.3815">
        <ele>171.4</ele>
        <time>2025-05-26T14:53:24.087Z</time>
      </trkpt>
      <trkpt lat="48.79673" lon="-0.38156">
        <ele>171</ele>
        <time>2025-05-26T14:53:27.946Z</time>
      </trkpt>
      <trkpt lat="48.79669" lon="-0.38163">
        <ele>170.3</ele>
        <time>2025-05-26T14:53:31.805Z</time>
      </trkpt>
      <trkpt lat="48.79664" lon="-0.3817">
        <ele>169.7</ele>
        <time>2025-05-26T14:53:35.664Z</time>
      </trkpt>
      <trkpt lat="48.79659" lon="-0.38177">
        <ele>169</ele>
        <time>2025-05-26T14:53:39.523Z</time>
      </trkpt>
      <trkpt lat="48.79655" lon="-0.38183">
        <ele>168.3</ele>
        <time>2025-05-26T14:53:43.382Z</time>
      </trkpt>
      <trkpt lat="48.7965" lon="-0.3819">
        <ele>167.5</ele>
        <time>2025-05-26T14:53:47.242Z</time>
      </trkpt>
      <trkpt lat="48.79646" lon="-0.38194">
        <ele>167.1</ele>
        <time>2025-05-26T14:53:50.018Z</time>
      </trkpt>
      <trkpt lat="48.79642" lon="-0.38197">
        <ele>166.9</ele>
        <time>2025-05-26T14:53:52.795Z</time>
      </trkpt>
      <trkpt lat="48.79638" lon="-0.38201">
        <ele>166.5</ele>
        <time>2025-05-26T14:53:55.572Z</time>
      </trkpt>
      <trkpt lat="48.79634" lon="-0.38204">
        <ele>166.5</ele>
        <time>2025-05-26T14:53:58.349Z</time>
      </trkpt>
      <trkpt lat="48.7963" lon="-0.38208">
        <ele>166.2</ele>
        <time>2025-05-26T14:54:01.126Z</time>
      </trkpt>
      <trkpt lat="48.79626" lon="-0.38211">
        <ele>166.1</ele>
        <time>2025-05-26T14:54:03.903Z</time>
      </trkpt>
      <trkpt lat="48.79622" lon="-0.38215">
        <ele>165.9</ele>
        <time>2025-05-26T14:54:06.680Z</time>
      </trkpt>
      <trkpt lat="48.79618" lon="-0.38218">
        <ele>165.8</ele>
        <time>2025-05-26T14:54:09.458Z</time>
      </trkpt>
      <trkpt lat="48.79616" lon="-0.38228">
        <ele>163.9</ele>
        <time>2025-05-26T14:54:13.598Z</time>
      </trkpt>
      <trkpt lat="48.79614" lon="-0.38238">
        <ele>162.1</ele>
        <time>2025-05-26T14:54:17.740Z</time>
      </trkpt>
      <trkpt lat="48.79611" lon="-0.38243">
        <ele>161.5</ele>
        <time>2025-05-26T14:54:20.699Z</time>
      </trkpt>
      <trkpt lat="48.79607" lon="-0.38249">
        <ele>160.8</ele>
        <time>2025-05-26T14:54:23.658Z</time>
      </trkpt>
      <trkpt lat="48.79604" lon="-0.38254">
        <ele>160.2</ele>
        <time>2025-05-26T14:54:26.617Z</time>
      </trkpt>
      <trkpt lat="48.796" lon="-0.38259">
        <ele>159.8</ele>
        <time>2025-05-26T14:54:29.576Z</time>
      </trkpt>
      <trkpt lat="48.79597" lon="-0.38264">
        <ele>159.3</ele>
        <time>2025-05-26T14:54:32.536Z</time>
      </trkpt>
      <trkpt lat="48.79593" lon="-0.3827">
        <ele>158.8</ele>
        <time>2025-05-26T14:54:35.496Z</time>
      </trkpt>
      <trkpt lat="48.7959" lon="-0.38275">
        <ele>158.3</ele>
        <time>2025-05-26T14:54:38.456Z</time>
      </trkpt>
      <trkpt lat="48.79586" lon="-0.3828">
        <ele>158.2</ele>
        <time>2025-05-26T14:54:41.417Z</time>
      </trkpt>
      <trkpt lat="48.79584" lon="-0.3829">
        <ele>157.1</ele>
        <time>2025-05-26T14:54:45.470Z</time>
      </trkpt>
      <trkpt lat="48.79581" lon="-0.38299">
        <ele>156.2</ele>
        <time>2025-05-26T14:54:49.523Z</time>
      </trkpt>
      <trkpt lat="48.79579" lon="-0.38309">
        <ele>155.2</ele>
        <time>2025-05-26T14:54:53.577Z</time>
      </trkpt>
      <trkpt lat="48.79576" lon="-0.38318">
        <ele>154.8</ele>
        <time>2025-05-26T14:54:57.632Z</time>
      </trkpt>
      <trkpt lat="48.79572" lon="-0.3832">
        <ele>155</ele>
        <time>2025-05-26T14:55:01.117Z</time>
      </trkpt>
      <trkpt lat="48.79568" lon="-0.38323">
        <ele>155.1</ele>
        <time>2025-05-26T14:55:04.602Z</time>
      </trkpt>
      <trkpt lat="48.79563" lon="-0.38325">
        <ele>155.3</ele>
        <time>2025-05-26T14:55:08.087Z</time>
      </trkpt>
      <trkpt lat="48.79559" lon="-0.38328">
        <ele>155.3</ele>
        <time>2025-05-26T14:55:11.572Z</time>
      </trkpt>
      <trkpt lat="48.79555" lon="-0.3833">
        <ele>155.4</ele>
        <time>2025-05-26T14:55:15.057Z</time>
      </trkpt>
      <trkpt lat="48.79551" lon="-0.38332">
        <ele>155.6</ele>
        <time>2025-05-26T14:55:18.543Z</time>
      </trkpt>
      <trkpt lat="48.79546" lon="-0.38335">
        <ele>155.9</ele>
        <time>2025-05-26T14:55:22.029Z</time>
      </trkpt>
      <trkpt lat="48.79542" lon="-0.38337">
        <ele>156.1</ele>
        <time>2025-05-26T14:55:25.516Z</time>
      </trkpt>
      <trkpt lat="48.79535" lon="-0.38342">
        <ele>156.1</ele>
        <time>2025-05-26T14:55:30.937Z</time>
      </trkpt>
      <trkpt lat="48.79527" lon="-0.38348">
        <ele>155.9</ele>
        <time>2025-05-26T14:55:36.358Z</time>
      </trkpt>
      <trkpt lat="48.7952" lon="-0.38353">
        <ele>155.7</ele>
        <time>2025-05-26T14:55:41.779Z</time>
      </trkpt>
      <trkpt lat="48.79512" lon="-0.38358">
        <ele>155.6</ele>
        <time>2025-05-26T14:55:47.202Z</time>
      </trkpt>
      <trkpt lat="48.79507" lon="-0.38363">
        <ele>155.3</ele>
        <time>2025-05-26T14:55:50.705Z</time>
      </trkpt>
      <trkpt lat="48.79503" lon="-0.38369">
        <ele>154.7</ele>
        <time>2025-05-26T14:55:54.208Z</time>
      </trkpt>
      <trkpt lat="48.79498" lon="-0.38374">
        <ele>154.2</ele>
        <time>2025-05-26T14:55:57.711Z</time>
      </trkpt>
      <trkpt lat="48.79494" lon="-0.3838">
        <ele>153.5</ele>
        <time>2025-05-26T14:56:01.214Z</time>
      </trkpt>
      <trkpt lat="48.79489" lon="-0.38385">
        <ele>153</ele>
        <time>2025-05-26T14:56:04.718Z</time>
      </trkpt>
      <trkpt lat="48.79484" lon="-0.3839">
        <ele>152.4</ele>
        <time>2025-05-26T14:56:08.222Z</time>
      </trkpt>
      <trkpt lat="48.7948" lon="-0.38396">
        <ele>151.7</ele>
        <time>2025-05-26T14:56:11.726Z</time>
      </trkpt>
      <trkpt lat="48.79475" lon="-0.38401">
        <ele>151.2</ele>
        <time>2025-05-26T14:56:15.231Z</time>
        <extensions>
          <visugpx:TrkExtension xmlns:visugpx="https://www.visugpx.com/editgpx/">
            <visugpx:node>8</visugpx:node>
            </visugpx:TrkExtension>
        </extensions>
      </trkpt>
      <trkpt lat="48.79469" lon="-0.38408">
        <ele>150.4</ele>
        <time>2025-05-26T14:56:19.543Z</time>
      </trkpt>
      <trkpt lat="48.79464" lon="-0.38414">
        <ele>149.7</ele>
        <time>2025-05-26T14:56:23.855Z</time>
      </trkpt>
      <trkpt lat="48.79458" lon="-0.38421">
        <ele>149</ele>
        <time>2025-05-26T14:56:28.167Z</time>
      </trkpt>
      <trkpt lat="48.79452" lon="-0.38427">
        <ele>148.3</ele>
        <time>2025-05-26T14:56:32.480Z</time>
      </trkpt>
      <trkpt lat="48.79446" lon="-0.3843">
        <ele>148.1</ele>
        <time>2025-05-26T14:56:36.706Z</time>
      </trkpt>
      <trkpt lat="48.79439" lon="-0.38433">
        <ele>147.8</ele>
        <time>2025-05-26T14:56:40.932Z</time>
      </trkpt>
      <trkpt lat="48.79433" lon="-0.38436">
        <ele>147.6</ele>
        <time>2025-05-26T14:56:45.158Z</time>
      </trkpt>
      <trkpt lat="48.79426" lon="-0.38439">
        <ele>147.4</ele>
        <time>2025-05-26T14:56:49.385Z</time>
      </trkpt>
      <trkpt lat="48.7942" lon="-0.38441">
        <ele>147.4</ele>
        <time>2025-05-26T14:56:53.189Z</time>
      </trkpt>
      <trkpt lat="48.79415" lon="-0.38443">
        <ele>147.3</ele>
        <time>2025-05-26T14:56:56.993Z</time>
      </trkpt>
      <trkpt lat="48.79409" lon="-0.38445">
        <ele>147.2</ele>
        <time>2025-05-26T14:57:00.797Z</time>
      </trkpt>
      <trkpt lat="48.79404" lon="-0.38447">
        <ele>147.1</ele>
        <time>2025-05-26T14:57:04.601Z</time>
      </trkpt>
      <trkpt lat="48.79398" lon="-0.38448">
        <ele>147.1</ele>
        <time>2025-05-26T14:57:08.406Z</time>
      </trkpt>
      <trkpt lat="48.79392" lon="-0.3845">
        <ele>146.9</ele>
        <time>2025-05-26T14:57:12.211Z</time>
      </trkpt>
      <trkpt lat="48.79387" lon="-0.38452">
        <ele>146.8</ele>
        <time>2025-05-26T14:57:16.016Z</time>
      </trkpt>
      <trkpt lat="48.79381" lon="-0.38454">
        <ele>146.8</ele>
        <time>2025-05-26T14:57:19.822Z</time>
      </trkpt>
      <trkpt lat="48.79377" lon="-0.38458">
        <ele>146.2</ele>
        <time>2025-05-26T14:57:22.778Z</time>
      </trkpt>
      <trkpt lat="48.79373" lon="-0.38462">
        <ele>145.6</ele>
        <time>2025-05-26T14:57:25.735Z</time>
      </trkpt>
      <trkpt lat="48.79368" lon="-0.38465">
        <ele>145.2</ele>
        <time>2025-05-26T14:57:28.692Z</time>
      </trkpt>
      <trkpt lat="48.79364" lon="-0.38469">
        <ele>144.6</ele>
        <time>2025-05-26T14:57:31.650Z</time>
      </trkpt>
      <trkpt lat="48.79359" lon="-0.38478">
        <ele>143.3</ele>
        <time>2025-05-26T14:57:36.391Z</time>
      </trkpt>
      <trkpt lat="48.79354" lon="-0.38488">
        <ele>141.9</ele>
        <time>2025-05-26T14:57:41.132Z</time>
      </trkpt>
      <trkpt lat="48.79349" lon="-0.38497">
        <ele>140.5</ele>
        <time>2025-05-26T14:57:45.873Z</time>
      </trkpt>
      <trkpt lat="48.79344" lon="-0.38506">
        <ele>139.7</ele>
        <time>2025-05-26T14:57:50.615Z</time>
      </trkpt>
      <trkpt lat="48.79344" lon="-0.38517">
        <ele>139.2</ele>
        <time>2025-05-26T14:57:55.593Z</time>
      </trkpt>
      <trkpt lat="48.79344" lon="-0.38528">
        <ele>138.6</ele>
        <time>2025-05-26T14:58:00.571Z</time>
      </trkpt>
      <trkpt lat="48.79343" lon="-0.38538">
        <ele>139.3</ele>
        <time>2025-05-26T14:58:05.550Z</time>
      </trkpt>
      <trkpt lat="48.79343" lon="-0.38549">
        <ele>139.9</ele>
        <time>2025-05-26T14:58:10.530Z</time>
      </trkpt>
      <trkpt lat="48.79342" lon="-0.38557">
        <ele>140.5</ele>
        <time>2025-05-26T14:58:15.859Z</time>
      </trkpt>
      <trkpt lat="48.79341" lon="-0.38565">
        <ele>141.1</ele>
        <time>2025-05-26T14:58:21.189Z</time>
      </trkpt>
      <trkpt lat="48.7934" lon="-0.38572">
        <ele>141.7</ele>
        <time>2025-05-26T14:58:26.519Z</time>
      </trkpt>
      <trkpt lat="48.79339" lon="-0.3858">
        <ele>142.4</ele>
        <time>2025-05-26T14:58:31.850Z</time>
      </trkpt>
      <trkpt lat="48.79334" lon="-0.3858">
        <ele>142.7</ele>
        <time>2025-05-26T14:58:36.631Z</time>
      </trkpt>
      <trkpt lat="48.79328" lon="-0.38581">
        <ele>143.2</ele>
        <time>2025-05-26T14:58:41.412Z</time>
      </trkpt>
      <trkpt lat="48.79323" lon="-0.38581">
        <ele>143.5</ele>
        <time>2025-05-26T14:58:46.193Z</time>
      </trkpt>
      <trkpt lat="48.79317" lon="-0.38581">
        <ele>144</ele>
        <time>2025-05-26T14:58:50.974Z</time>
      </trkpt>
      <trkpt lat="48.79309" lon="-0.38582">
        <ele>144.6</ele>
        <time>2025-05-26T14:58:57.105Z</time>
      </trkpt>
      <trkpt lat="48.79302" lon="-0.38584">
        <ele>145.2</ele>
        <time>2025-05-26T14:59:03.236Z</time>
      </trkpt>
      <trkpt lat="48.79294" lon="-0.38585">
        <ele>145.6</ele>
        <time>2025-05-26T14:59:09.367Z</time>
      </trkpt>
      <trkpt lat="48.79286" lon="-0.38586">
        <ele>146</ele>
        <time>2025-05-26T14:59:15.498Z</time>
      </trkpt>
      <trkpt lat="48.79278" lon="-0.38588">
        <ele>146.5</ele>
        <time>2025-05-26T14:59:21.629Z</time>
      </trkpt>
      <trkpt lat="48.79271" lon="-0.38589">
        <ele>146.9</ele>
        <time>2025-05-26T14:59:27.760Z</time>
      </trkpt>
      <trkpt lat="48.79263" lon="-0.3859">
        <ele>147.3</ele>
        <time>2025-05-26T14:59:33.891Z</time>
      </trkpt>
      <trkpt lat="48.79255" lon="-0.38592">
        <ele>147.8</ele>
        <time>2025-05-26T14:59:40.022Z</time>
      </trkpt>
      <trkpt lat="48.79247" lon="-0.38593">
        <ele>148</ele>
        <time>2025-05-26T14:59:46.153Z</time>
      </trkpt>
      <trkpt lat="48.7924" lon="-0.38594">
        <ele>148.2</ele>
        <time>2025-05-26T14:59:52.284Z</time>
      </trkpt>
      <trkpt lat="48.79232" lon="-0.38595">
        <ele>148.3</ele>
        <time>2025-05-26T14:59:58.415Z</time>
      </trkpt>
      <trkpt lat="48.79224" lon="-0.38597">
        <ele>148.5</ele>
        <time>2025-05-26T15:00:04.546Z</time>
      </trkpt>
      <trkpt lat="48.79216" lon="-0.38598">
        <ele>148.7</ele>
        <time>2025-05-26T15:00:10.677Z</time>
      </trkpt>
      <trkpt lat="48.79209" lon="-0.38599">
        <ele>148.9</ele>
        <time>2025-05-26T15:00:16.808Z</time>
      </trkpt>
      <trkpt lat="48.79201" lon="-0.38601">
        <ele>149.2</ele>
        <time>2025-05-26T15:00:22.940Z</time>
      </trkpt>
      <trkpt lat="48.79193" lon="-0.38602">
        <ele>149.3</ele>
        <time>2025-05-26T15:00:29.072Z</time>
      </trkpt>
      <trkpt lat="48.79185" lon="-0.38605">
        <ele>149.6</ele>
        <time>2025-05-26T15:00:35.066Z</time>
      </trkpt>
      <trkpt lat="48.79177" lon="-0.38608">
        <ele>149.8</ele>
        <time>2025-05-26T15:00:41.061Z</time>
      </trkpt>
      <trkpt lat="48.79169" lon="-0.38611">
        <ele>150</ele>
        <time>2025-05-26T15:00:47.056Z</time>
      </trkpt>
      <trkpt lat="48.79161" lon="-0.38614">
        <ele>149.9</ele>
        <time>2025-05-26T15:00:53.052Z</time>
      </trkpt>
      <trkpt lat="48.79154" lon="-0.38618">
        <ele>150</ele>
        <time>2025-05-26T15:00:59.108Z</time>
      </trkpt>
      <trkpt lat="48.79146" lon="-0.38622">
        <ele>150.2</ele>
        <time>2025-05-26T15:01:05.164Z</time>
      </trkpt>
      <trkpt lat="48.79139" lon="-0.38625">
        <ele>150.5</ele>
        <time>2025-05-26T15:01:11.221Z</time>
      </trkpt>
      <trkpt lat="48.79131" lon="-0.38629">
        <ele>151</ele>
        <time>2025-05-26T15:01:17.279Z</time>
      </trkpt>
      <trkpt lat="48.79124" lon="-0.38632">
        <ele>151.4</ele>
        <time>2025-05-26T15:01:23.506Z</time>
      </trkpt>
      <trkpt lat="48.79117" lon="-0.38635">
        <ele>151.7</ele>
        <time>2025-05-26T15:01:29.733Z</time>
      </trkpt>
      <trkpt lat="48.79109" lon="-0.38637">
        <ele>152</ele>
        <time>2025-05-26T15:01:35.961Z</time>
      </trkpt>
      <trkpt lat="48.79102" lon="-0.3864">
        <ele>152.8</ele>
        <time>2025-05-26T15:01:42.190Z</time>
      </trkpt>
      <trkpt lat="48.79095" lon="-0.3864">
        <ele>153.3</ele>
        <time>2025-05-26T15:01:48.440Z</time>
      </trkpt>
      <trkpt lat="48.79087" lon="-0.38639">
        <ele>153.7</ele>
        <time>2025-05-26T15:01:54.691Z</time>
      </trkpt>
      <trkpt lat="48.79084" lon="-0.38648">
        <ele>154.6</ele>
        <time>2025-05-26T15:02:01.886Z</time>
        <extensions>
          <visugpx:TrkExtension xmlns:visugpx="https://www.visugpx.com/editgpx/">
            <visugpx:node>9</visugpx:node>
            </visugpx:TrkExtension>
        </extensions>
      </trkpt>
      <trkpt lat="48.79081" lon="-0.38657">
        <ele>155.3</ele>
        <time>2025-05-26T15:02:07.996Z</time>
      </trkpt>
      <trkpt lat="48.79078" lon="-0.38665">
        <ele>155.9</ele>
        <time>2025-05-26T15:02:14.108Z</time>
      </trkpt>
      <trkpt lat="48.79078" lon="-0.38676">
        <ele>156.7</ele>
        <time>2025-05-26T15:02:21.034Z</time>
      </trkpt>
      <trkpt lat="48.79077" lon="-0.38687">
        <ele>157.5</ele>
        <time>2025-05-26T15:02:27.960Z</time>
      </trkpt>
      <trkpt lat="48.79077" lon="-0.38698">
        <ele>158.2</ele>
        <time>2025-05-26T15:02:34.886Z</time>
      </trkpt>
      <trkpt lat="48.79076" lon="-0.38709">
        <ele>158.8</ele>
        <time>2025-05-26T15:02:41.814Z</time>
      </trkpt>
      <trkpt lat="48.79076" lon="-0.38717">
        <ele>159.2</ele>
        <time>2025-05-26T15:02:46.306Z</time>
      </trkpt>
      <trkpt lat="48.79076" lon="-0.38724">
        <ele>159.6</ele>
        <time>2025-05-26T15:02:50.798Z</time>
      </trkpt>
      <trkpt lat="48.79076" lon="-0.38732">
        <ele>160</ele>
        <time>2025-05-26T15:02:55.290Z</time>
      </trkpt>
      <trkpt lat="48.79076" lon="-0.38739">
        <ele>160.3</ele>
        <time>2025-05-26T15:02:59.782Z</time>
      </trkpt>
      <trkpt lat="48.79076" lon="-0.38747">
        <ele>160.7</ele>
        <time>2025-05-26T15:03:04.274Z</time>
      </trkpt>
      <trkpt lat="48.79076" lon="-0.38754">
        <ele>161.1</ele>
        <time>2025-05-26T15:03:08.766Z</time>
      </trkpt>
      <trkpt lat="48.79076" lon="-0.38762">
        <ele>161.7</ele>
        <time>2025-05-26T15:03:13.258Z</time>
      </trkpt>
      <trkpt lat="48.79076" lon="-0.38769">
        <ele>162.2</ele>
        <time>2025-05-26T15:03:17.751Z</time>
      </trkpt>
      <trkpt lat="48.79078" lon="-0.38778">
        <ele>162.6</ele>
        <time>2025-05-26T15:03:23.031Z</time>
      </trkpt>
      <trkpt lat="48.79081" lon="-0.38781">
        <ele>162.4</ele>
        <time>2025-05-26T15:03:25.192Z</time>
      </trkpt>
      <trkpt lat="48.79088" lon="-0.38783">
        <ele>161.4</ele>
        <time>2025-05-26T15:03:29.476Z</time>
      </trkpt>
      <trkpt lat="48.79095" lon="-0.38785">
        <ele>160.3</ele>
        <time>2025-05-26T15:03:33.760Z</time>
      </trkpt>
      <trkpt lat="48.79102" lon="-0.38787">
        <ele>159.2</ele>
        <time>2025-05-26T15:03:38.044Z</time>
      </trkpt>
      <trkpt lat="48.79109" lon="-0.38789">
        <ele>158.2</ele>
        <time>2025-05-26T15:03:42.328Z</time>
      </trkpt>
      <trkpt lat="48.79116" lon="-0.38791">
        <ele>157.6</ele>
        <time>2025-05-26T15:03:46.612Z</time>
      </trkpt>
      <trkpt lat="48.79123" lon="-0.38793">
        <ele>157.2</ele>
        <time>2025-05-26T15:03:50.897Z</time>
      </trkpt>
      <trkpt lat="48.7913" lon="-0.38795">
        <ele>156.9</ele>
        <time>2025-05-26T15:03:55.182Z</time>
      </trkpt>
      <trkpt lat="48.79137" lon="-0.38797">
        <ele>156.5</ele>
        <time>2025-05-26T15:03:59.467Z</time>
      </trkpt>
      <trkpt lat="48.79142" lon="-0.38797">
        <ele>156.4</ele>
        <time>2025-05-26T15:04:02.336Z</time>
      </trkpt>
      <trkpt lat="48.79146" lon="-0.38797">
        <ele>156.4</ele>
        <time>2025-05-26T15:04:05.206Z</time>
      </trkpt>
      <trkpt lat="48.79154" lon="-0.38797">
        <ele>156.4</ele>
        <time>2025-05-26T15:04:10.945Z</time>
      </trkpt>
      <trkpt lat="48.79162" lon="-0.38795">
        <ele>156.2</ele>
        <time>2025-05-26T15:04:16.064Z</time>
      </trkpt>
      <trkpt lat="48.7917" lon="-0.38792">
        <ele>155.9</ele>
        <time>2025-05-26T15:04:21.183Z</time>
      </trkpt>
      <trkpt lat="48.79175" lon="-0.38793">
        <ele>155.8</ele>
        <time>2025-05-26T15:04:24.556Z</time>
      </trkpt>
      <trkpt lat="48.79181" lon="-0.38794">
        <ele>155.7</ele>
        <time>2025-05-26T15:04:27.929Z</time>
      </trkpt>
      <trkpt lat="48.79186" lon="-0.38794">
        <ele>155.5</ele>
        <time>2025-05-26T15:04:31.303Z</time>
      </trkpt>
      <trkpt lat="48.79191" lon="-0.38795">
        <ele>155.4</ele>
        <time>2025-05-26T15:04:34.677Z</time>
      </trkpt>
      <trkpt lat="48.79196" lon="-0.38797">
        <ele>155.2</ele>
        <time>2025-05-26T15:04:38.001Z</time>
      </trkpt>
      <trkpt lat="48.79202" lon="-0.38798">
        <ele>154.6</ele>
        <time>2025-05-26T15:04:41.325Z</time>
      </trkpt>
      <trkpt lat="48.79207" lon="-0.388">
        <ele>154.2</ele>
        <time>2025-05-26T15:04:44.649Z</time>
      </trkpt>
      <trkpt lat="48.79213" lon="-0.38801">
        <ele>153.7</ele>
        <time>2025-05-26T15:04:47.973Z</time>
      </trkpt>
      <trkpt lat="48.79218" lon="-0.38803">
        <ele>153.3</ele>
        <time>2025-05-26T15:04:51.297Z</time>
      </trkpt>
      <trkpt lat="48.79224" lon="-0.38804">
        <ele>152.7</ele>
        <time>2025-05-26T15:04:54.621Z</time>
      </trkpt>
      <trkpt lat="48.79229" lon="-0.38806">
        <ele>152.3</ele>
        <time>2025-05-26T15:04:57.945Z</time>
      </trkpt>
      <trkpt lat="48.79235" lon="-0.38807">
        <ele>151.7</ele>
        <time>2025-05-26T15:05:01.269Z</time>
      </trkpt>
      <trkpt lat="48.7924" lon="-0.38809">
        <ele>151.2</ele>
        <time>2025-05-26T15:05:04.593Z</time>
      </trkpt>
      <trkpt lat="48.79245" lon="-0.3881">
        <ele>150.7</ele>
        <time>2025-05-26T15:05:07.917Z</time>
      </trkpt>
      <trkpt lat="48.79251" lon="-0.38812">
        <ele>150.1</ele>
        <time>2025-05-26T15:05:11.241Z</time>
      </trkpt>
      <trkpt lat="48.79256" lon="-0.38813">
        <ele>149.4</ele>
        <time>2025-05-26T15:05:14.565Z</time>
      </trkpt>
      <trkpt lat="48.79262" lon="-0.38815">
        <ele>148.6</ele>
        <time>2025-05-26T15:05:17.890Z</time>
      </trkpt>
      <trkpt lat="48.79267" lon="-0.38816">
        <ele>147.9</ele>
        <time>2025-05-26T15:05:21.215Z</time>
      </trkpt>
      <trkpt lat="48.79273" lon="-0.38818">
        <ele>147.1</ele>
        <time>2025-05-26T15:05:24.540Z</time>
      </trkpt>
      <trkpt lat="48.79278" lon="-0.38819">
        <ele>146.5</ele>
        <time>2025-05-26T15:05:27.865Z</time>
      </trkpt>
      <trkpt lat="48.79278" lon="-0.38826">
        <ele>146.7</ele>
        <time>2025-05-26T15:05:32.587Z</time>
      </trkpt>
      <trkpt lat="48.79279" lon="-0.38834">
        <ele>147.1</ele>
        <time>2025-05-26T15:05:37.310Z</time>
      </trkpt>
      <trkpt lat="48.79279" lon="-0.38841">
        <ele>147.8</ele>
        <time>2025-05-26T15:05:42.033Z</time>
      </trkpt>
      <trkpt lat="48.79279" lon="-0.38848">
        <ele>148.6</ele>
        <time>2025-05-26T15:05:46.756Z</time>
      </trkpt>
      <trkpt lat="48.79281" lon="-0.38856">
        <ele>149.5</ele>
        <time>2025-05-26T15:05:53.717Z</time>
      </trkpt>
      <trkpt lat="48.79282" lon="-0.38863">
        <ele>150.6</ele>
        <time>2025-05-26T15:06:00.679Z</time>
      </trkpt>
      <trkpt lat="48.79286" lon="-0.38864">
        <ele>151</ele>
        <time>2025-05-26T15:06:04.529Z</time>
      </trkpt>
      <trkpt lat="48.79294" lon="-0.38863">
        <ele>151</ele>
        <time>2025-05-26T15:06:10.047Z</time>
      </trkpt>
      <trkpt lat="48.79302" lon="-0.38862">
        <ele>151</ele>
        <time>2025-05-26T15:06:15.566Z</time>
      </trkpt>
      <trkpt lat="48.79308" lon="-0.38863">
        <ele>151.2</ele>
        <time>2025-05-26T15:06:19.598Z</time>
      </trkpt>
      <trkpt lat="48.79314" lon="-0.38864">
        <ele>151.2</ele>
        <time>2025-05-26T15:06:23.630Z</time>
      </trkpt>
      <trkpt lat="48.79319" lon="-0.38865">
        <ele>151.1</ele>
        <time>2025-05-26T15:06:27.662Z</time>
      </trkpt>
      <trkpt lat="48.79325" lon="-0.38866">
        <ele>151.1</ele>
        <time>2025-05-26T15:06:31.694Z</time>
      </trkpt>
      <trkpt lat="48.7933" lon="-0.38871">
        <ele>151.6</ele>
        <time>2025-05-26T15:06:36.418Z</time>
      </trkpt>
      <trkpt lat="48.79336" lon="-0.38875">
        <ele>151.8</ele>
        <time>2025-05-26T15:06:41.143Z</time>
      </trkpt>
      <trkpt lat="48.79341" lon="-0.3888">
        <ele>152.1</ele>
        <time>2025-05-26T15:06:45.868Z</time>
      </trkpt>
      <trkpt lat="48.79346" lon="-0.38884">
        <ele>152.1</ele>
        <time>2025-05-26T15:06:50.593Z</time>
      </trkpt>
      <trkpt lat="48.79351" lon="-0.38891">
        <ele>152.4</ele>
        <time>2025-05-26T15:06:55.918Z</time>
      </trkpt>
      <trkpt lat="48.79355" lon="-0.38898">
        <ele>152.9</ele>
        <time>2025-05-26T15:07:01.243Z</time>
      </trkpt>
      <trkpt lat="48.7936" lon="-0.38904">
        <ele>153.3</ele>
        <time>2025-05-26T15:07:06.568Z</time>
      </trkpt>
      <trkpt lat="48.79364" lon="-0.38911">
        <ele>153.7</ele>
        <time>2025-05-26T15:07:11.894Z</time>
      </trkpt>
      <trkpt lat="48.79367" lon="-0.38918">
        <ele>154.1</ele>
        <time>2025-05-26T15:07:16.030Z</time>
      </trkpt>
      <trkpt lat="48.79369" lon="-0.38924">
        <ele>154.3</ele>
        <time>2025-05-26T15:07:20.166Z</time>
      </trkpt>
      <trkpt lat="48.7937" lon="-0.38931">
        <ele>154.8</ele>
        <time>2025-05-26T15:07:24.725Z</time>
      </trkpt>
      <trkpt lat="48.79371" lon="-0.38938">
        <ele>155.3</ele>
        <time>2025-05-26T15:07:29.284Z</time>
      </trkpt>
      <trkpt lat="48.79371" lon="-0.38944">
        <ele>155.9</ele>
        <time>2025-05-26T15:07:33.843Z</time>
      </trkpt>
      <trkpt lat="48.79372" lon="-0.38951">
        <ele>156.4</ele>
        <time>2025-05-26T15:07:38.403Z</time>
      </trkpt>
      <trkpt lat="48.79366" lon="-0.38958">
        <ele>157.5</ele>
        <time>2025-05-26T15:07:46.899Z</time>
      </trkpt>
      <trkpt lat="48.79363" lon="-0.38958">
        <ele>157.8</ele>
        <time>2025-05-26T15:07:49.761Z</time>
        <extensions>
          <visugpx:TrkExtension xmlns:visugpx="https://www.visugpx.com/editgpx/">
            <visugpx:node>10</visugpx:node>
            </visugpx:TrkExtension>
        </extensions>
      </trkpt>
      <trkpt lat="48.79358" lon="-0.38958">
        <ele>158.2</ele>
        <time>2025-05-26T15:07:54.214Z</time>
      </trkpt>
      <trkpt lat="48.79353" lon="-0.38958">
        <ele>158.6</ele>
        <time>2025-05-26T15:07:58.668Z</time>
      </trkpt>
      <trkpt lat="48.79347" lon="-0.38958">
        <ele>159</ele>
        <time>2025-05-26T15:08:03.690Z</time>
      </trkpt>
      <trkpt lat="48.79342" lon="-0.38957">
        <ele>159.3</ele>
        <time>2025-05-26T15:08:08.713Z</time>
      </trkpt>
      <trkpt lat="48.79336" lon="-0.38957">
        <ele>159.7</ele>
        <time>2025-05-26T15:08:13.736Z</time>
      </trkpt>
      <trkpt lat="48.7933" lon="-0.38956">
        <ele>160.3</ele>
        <time>2025-05-26T15:08:18.759Z</time>
      </trkpt>
      <trkpt lat="48.79324" lon="-0.38953">
        <ele>161</ele>
        <time>2025-05-26T15:08:25.374Z</time>
      </trkpt>
      <trkpt lat="48.79317" lon="-0.38949">
        <ele>161.7</ele>
        <time>2025-05-26T15:08:31.990Z</time>
      </trkpt>
      <trkpt lat="48.79312" lon="-0.38949">
        <ele>162.4</ele>
        <time>2025-05-26T15:08:36.937Z</time>
      </trkpt>
      <trkpt lat="48.79307" lon="-0.38948">
        <ele>163</ele>
        <time>2025-05-26T15:08:41.885Z</time>
      </trkpt>
      <trkpt lat="48.79302" lon="-0.38948">
        <ele>163.6</ele>
        <time>2025-05-26T15:08:46.833Z</time>
      </trkpt>
      <trkpt lat="48.79297" lon="-0.38947">
        <ele>164.1</ele>
        <time>2025-05-26T15:08:51.781Z</time>
      </trkpt>
      <trkpt lat="48.79292" lon="-0.38947">
        <ele>164.6</ele>
        <time>2025-05-26T15:08:56.729Z</time>
      </trkpt>
      <trkpt lat="48.79287" lon="-0.38946">
        <ele>165.1</ele>
        <time>2025-05-26T15:09:01.677Z</time>
      </trkpt>
      <trkpt lat="48.79282" lon="-0.38946">
        <ele>165.7</ele>
        <time>2025-05-26T15:09:06.625Z</time>
      </trkpt>
      <trkpt lat="48.79277" lon="-0.38945">
        <ele>166.1</ele>
        <time>2025-05-26T15:09:11.573Z</time>
      </trkpt>
      <trkpt lat="48.79271" lon="-0.38946">
        <ele>166.9</ele>
        <time>2025-05-26T15:09:18.024Z</time>
      </trkpt>
      <trkpt lat="48.79265" lon="-0.38946">
        <ele>167.5</ele>
        <time>2025-05-26T15:09:24.475Z</time>
      </trkpt>
      <trkpt lat="48.79259" lon="-0.38947">
        <ele>168.3</ele>
        <time>2025-05-26T15:09:30.926Z</time>
      </trkpt>
      <trkpt lat="48.79253" lon="-0.38947">
        <ele>168.9</ele>
        <time>2025-05-26T15:09:37.377Z</time>
      </trkpt>
      <trkpt lat="48.79247" lon="-0.38948">
        <ele>169.8</ele>
        <time>2025-05-26T15:09:43.829Z</time>
      </trkpt>
      <trkpt lat="48.79241" lon="-0.38948">
        <ele>170.7</ele>
        <time>2025-05-26T15:09:50.281Z</time>
      </trkpt>
      <trkpt lat="48.79235" lon="-0.38949">
        <ele>171.7</ele>
        <time>2025-05-26T15:09:56.733Z</time>
      </trkpt>
      <trkpt lat="48.79229" lon="-0.38949">
        <ele>172.5</ele>
        <time>2025-05-26T15:10:03.185Z</time>
      </trkpt>
      <trkpt lat="48.79224" lon="-0.38952">
        <ele>173.6</ele>
        <time>2025-05-26T15:10:10.155Z</time>
      </trkpt>
      <trkpt lat="48.79218" lon="-0.38955">
        <ele>174.6</ele>
        <time>2025-05-26T15:10:17.125Z</time>
      </trkpt>
      <trkpt lat="48.79213" lon="-0.38957">
        <ele>175.4</ele>
        <time>2025-05-26T15:10:24.095Z</time>
      </trkpt>
      <trkpt lat="48.79207" lon="-0.3896">
        <ele>176.3</ele>
        <time>2025-05-26T15:10:31.067Z</time>
      </trkpt>
      <trkpt lat="48.79202" lon="-0.38966">
        <ele>177.5</ele>
        <time>2025-05-26T15:10:38.114Z</time>
      </trkpt>
      <trkpt lat="48.79197" lon="-0.38971">
        <ele>178.6</ele>
        <time>2025-05-26T15:10:45.161Z</time>
      </trkpt>
      <trkpt lat="48.79192" lon="-0.38977">
        <ele>179.4</ele>
        <time>2025-05-26T15:10:52.208Z</time>
      </trkpt>
      <trkpt lat="48.79187" lon="-0.38982">
        <ele>180</ele>
        <time>2025-05-26T15:10:59.257Z</time>
      </trkpt>
      <trkpt lat="48.79184" lon="-0.38987">
        <ele>180.5</ele>
        <time>2025-05-26T15:11:04.229Z</time>
      </trkpt>
      <trkpt lat="48.7918" lon="-0.38993">
        <ele>181.2</ele>
        <time>2025-05-26T15:11:09.201Z</time>
      </trkpt>
      <trkpt lat="48.79177" lon="-0.38998">
        <ele>181.8</ele>
        <time>2025-05-26T15:11:14.173Z</time>
      </trkpt>
      <trkpt lat="48.79173" lon="-0.39004">
        <ele>182.5</ele>
        <time>2025-05-26T15:11:19.145Z</time>
      </trkpt>
      <trkpt lat="48.7917" lon="-0.39009">
        <ele>183</ele>
        <time>2025-05-26T15:11:24.117Z</time>
      </trkpt>
      <trkpt lat="48.79166" lon="-0.39014">
        <ele>183.6</ele>
        <time>2025-05-26T15:11:29.090Z</time>
      </trkpt>
      <trkpt lat="48.79163" lon="-0.3902">
        <ele>184</ele>
        <time>2025-05-26T15:11:34.063Z</time>
      </trkpt>
      <trkpt lat="48.79159" lon="-0.39025">
        <ele>184.5</ele>
        <time>2025-05-26T15:11:39.037Z</time>
      </trkpt>
      <trkpt lat="48.79155" lon="-0.39026">
        <ele>184.8</ele>
        <time>2025-05-26T15:11:43.046Z</time>
      </trkpt>
      <trkpt lat="48.7915" lon="-0.39027">
        <ele>185.2</ele>
        <time>2025-05-26T15:11:47.056Z</time>
      </trkpt>
      <trkpt lat="48.79145" lon="-0.3903">
        <ele>185.7</ele>
        <time>2025-05-26T15:11:52.562Z</time>
      </trkpt>
      <trkpt lat="48.7914" lon="-0.39032">
        <ele>186.2</ele>
        <time>2025-05-26T15:11:58.069Z</time>
      </trkpt>
      <trkpt lat="48.79134" lon="-0.39035">
        <ele>187</ele>
        <time>2025-05-26T15:12:03.576Z</time>
      </trkpt>
      <trkpt lat="48.79129" lon="-0.39037">
        <ele>187.7</ele>
        <time>2025-05-26T15:12:09.084Z</time>
      </trkpt>
      <trkpt lat="48.79124" lon="-0.39036">
        <ele>188.2</ele>
        <time>2025-05-26T15:12:13.754Z</time>
      </trkpt>
      <trkpt lat="48.79119" lon="-0.39034">
        <ele>188.6</ele>
        <time>2025-05-26T15:12:18.424Z</time>
      </trkpt>
      <trkpt lat="48.79114" lon="-0.39031">
        <ele>188.9</ele>
        <time>2025-05-26T15:12:22.595Z</time>
      </trkpt>
      <trkpt lat="48.7911" lon="-0.39028">
        <ele>189.1</ele>
        <time>2025-05-26T15:12:26.766Z</time>
      </trkpt>
      <trkpt lat="48.79105" lon="-0.39025">
        <ele>189.5</ele>
        <time>2025-05-26T15:12:30.938Z</time>
      </trkpt>
      <trkpt lat="48.791" lon="-0.39023">
        <ele>189.9</ele>
        <time>2025-05-26T15:12:35.110Z</time>
      </trkpt>
      <trkpt lat="48.79095" lon="-0.3902">
        <ele>190.2</ele>
        <time>2025-05-26T15:12:39.282Z</time>
      </trkpt>
      <trkpt lat="48.79091" lon="-0.39017">
        <ele>190.4</ele>
        <time>2025-05-26T15:12:43.454Z</time>
      </trkpt>
      <trkpt lat="48.79086" lon="-0.39014">
        <ele>190.7</ele>
        <time>2025-05-26T15:12:47.626Z</time>
      </trkpt>
      <trkpt lat="48.79081" lon="-0.39011">
        <ele>190.8</ele>
        <time>2025-05-26T15:12:51.799Z</time>
      </trkpt>
      <trkpt lat="48.79075" lon="-0.39008">
        <ele>190.7</ele>
        <time>2025-05-26T15:12:55.711Z</time>
      </trkpt>
      <trkpt lat="48.79069" lon="-0.39006">
        <ele>190.5</ele>
        <time>2025-05-26T15:12:59.624Z</time>
      </trkpt>
      <trkpt lat="48.79063" lon="-0.39003">
        <ele>190.3</ele>
        <time>2025-05-26T15:13:03.537Z</time>
      </trkpt>
      <trkpt lat="48.79057" lon="-0.39">
        <ele>190</ele>
        <time>2025-05-26T15:13:07.451Z</time>
      </trkpt>
      <trkpt lat="48.79052" lon="-0.38998">
        <ele>189.8</ele>
        <time>2025-05-26T15:13:10.996Z</time>
      </trkpt>
      <trkpt lat="48.79047" lon="-0.38997">
        <ele>189.9</ele>
        <time>2025-05-26T15:13:14.541Z</time>
      </trkpt>
      <trkpt lat="48.79042" lon="-0.38995">
        <ele>189.9</ele>
        <time>2025-05-26T15:13:18.086Z</time>
      </trkpt>
      <trkpt lat="48.79038" lon="-0.38993">
        <ele>189.8</ele>
        <time>2025-05-26T15:13:21.631Z</time>
      </trkpt>
      <trkpt lat="48.79033" lon="-0.38992">
        <ele>189.9</ele>
        <time>2025-05-26T15:13:25.176Z</time>
      </trkpt>
      <trkpt lat="48.79028" lon="-0.3899">
        <ele>189.9</ele>
        <time>2025-05-26T15:13:28.721Z</time>
      </trkpt>
      <trkpt lat="48.79023" lon="-0.38988">
        <ele>190</ele>
        <time>2025-05-26T15:13:32.266Z</time>
      </trkpt>
      <trkpt lat="48.79018" lon="-0.38987">
        <ele>190.1</ele>
        <time>2025-05-26T15:13:35.811Z</time>
      </trkpt>
      <trkpt lat="48.79013" lon="-0.38985">
        <ele>190.2</ele>
        <time>2025-05-26T15:13:39.356Z</time>
      </trkpt>
      <trkpt lat="48.79008" lon="-0.38983">
        <ele>190.3</ele>
        <time>2025-05-26T15:13:42.901Z</time>
      </trkpt>
      <trkpt lat="48.79003" lon="-0.38981">
        <ele>190.5</ele>
        <time>2025-05-26T15:13:46.446Z</time>
      </trkpt>
      <trkpt lat="48.78999" lon="-0.3898">
        <ele>190.6</ele>
        <time>2025-05-26T15:13:49.992Z</time>
      </trkpt>
      <trkpt lat="48.78994" lon="-0.38978">
        <ele>190.6</ele>
        <time>2025-05-26T15:13:53.538Z</time>
      </trkpt>
      <trkpt lat="48.78989" lon="-0.38976">
        <ele>190.7</ele>
        <time>2025-05-26T15:13:57.084Z</time>
      </trkpt>
      <trkpt lat="48.78984" lon="-0.38975">
        <ele>190.8</ele>
        <time>2025-05-26T15:14:00.630Z</time>
      </trkpt>
      <trkpt lat="48.78979" lon="-0.38973">
        <ele>190.8</ele>
        <time>2025-05-26T15:14:04.177Z</time>
      </trkpt>
      <trkpt lat="48.78974" lon="-0.38972">
        <ele>190.9</ele>
        <time>2025-05-26T15:14:08.352Z</time>
      </trkpt>
      <trkpt lat="48.7897" lon="-0.38971">
        <ele>191.2</ele>
        <time>2025-05-26T15:14:12.527Z</time>
      </trkpt>
      <trkpt lat="48.78965" lon="-0.38969">
        <ele>191.8</ele>
        <time>2025-05-26T15:14:16.702Z</time>
      </trkpt>
      <trkpt lat="48.78961" lon="-0.38968">
        <ele>192.2</ele>
        <time>2025-05-26T15:14:20.877Z</time>
      </trkpt>
      <trkpt lat="48.78956" lon="-0.38967">
        <ele>192.8</ele>
        <time>2025-05-26T15:14:25.052Z</time>
      </trkpt>
      <trkpt lat="48.78952" lon="-0.38966">
        <ele>193.2</ele>
        <time>2025-05-26T15:14:29.227Z</time>
      </trkpt>
      <trkpt lat="48.78947" lon="-0.38965">
        <ele>193.7</ele>
        <time>2025-05-26T15:14:33.402Z</time>
      </trkpt>
      <trkpt lat="48.78943" lon="-0.38964">
        <ele>194.1</ele>
        <time>2025-05-26T15:14:37.577Z</time>
      </trkpt>
      <trkpt lat="48.78938" lon="-0.38962">
        <ele>194.5</ele>
        <time>2025-05-26T15:14:41.752Z</time>
      </trkpt>
      <trkpt lat="48.78933" lon="-0.38961">
        <ele>194.8</ele>
        <time>2025-05-26T15:14:45.927Z</time>
      </trkpt>
      <trkpt lat="48.78929" lon="-0.3896">
        <ele>195.1</ele>
        <time>2025-05-26T15:14:50.103Z</time>
      </trkpt>
      <trkpt lat="48.78924" lon="-0.38959">
        <ele>195.5</ele>
        <time>2025-05-26T15:14:54.279Z</time>
      </trkpt>
      <trkpt lat="48.7892" lon="-0.38958">
        <ele>195.8</ele>
        <time>2025-05-26T15:14:58.455Z</time>
      </trkpt>
      <trkpt lat="48.78915" lon="-0.38956">
        <ele>196.2</ele>
        <time>2025-05-26T15:15:02.631Z</time>
      </trkpt>
      <trkpt lat="48.78911" lon="-0.38955">
        <ele>196.5</ele>
        <time>2025-05-26T15:15:06.807Z</time>
      </trkpt>
      <trkpt lat="48.78906" lon="-0.38954">
        <ele>197</ele>
        <time>2025-05-26T15:15:10.984Z</time>
      </trkpt>
      <trkpt lat="48.78902" lon="-0.38959">
        <ele>197.3</ele>
        <time>2025-05-26T15:15:14.798Z</time>
      </trkpt>
      <trkpt lat="48.78899" lon="-0.38963">
        <ele>197.5</ele>
        <time>2025-05-26T15:15:18.613Z</time>
      </trkpt>
      <trkpt lat="48.78895" lon="-0.38968">
        <ele>197.7</ele>
        <time>2025-05-26T15:15:22.428Z</time>
      </trkpt>
      <trkpt lat="48.78891" lon="-0.38972">
        <ele>197.9</ele>
        <time>2025-05-26T15:15:26.244Z</time>
      </trkpt>
      <trkpt lat="48.78885" lon="-0.38982">
        <ele>198.1</ele>
        <time>2025-05-26T15:15:32.503Z</time>
      </trkpt>
      <trkpt lat="48.78879" lon="-0.38992">
        <ele>198.4</ele>
        <time>2025-05-26T15:15:38.763Z</time>
      </trkpt>
      <trkpt lat="48.78873" lon="-0.39002">
        <ele>198.6</ele>
        <time>2025-05-26T15:15:45.023Z</time>
      </trkpt>
      <trkpt lat="48.78867" lon="-0.39012">
        <ele>198.7</ele>
        <time>2025-05-26T15:15:51.283Z</time>
      </trkpt>
      <trkpt lat="48.78861" lon="-0.39022">
        <ele>198.4</ele>
        <time>2025-05-26T15:15:57.543Z</time>
      </trkpt>
      <trkpt lat="48.78855" lon="-0.39032">
        <ele>198.3</ele>
        <time>2025-05-26T15:16:03.803Z</time>
      </trkpt>
      <trkpt lat="48.78849" lon="-0.39042">
        <ele>198.4</ele>
        <time>2025-05-26T15:16:10.063Z</time>
      </trkpt>
      <trkpt lat="48.78843" lon="-0.39052">
        <ele>198.4</ele>
        <time>2025-05-26T15:16:16.324Z</time>
      </trkpt>
      <trkpt lat="48.78839" lon="-0.39058">
        <ele>198.5</ele>
        <time>2025-05-26T15:16:20.660Z</time>
      </trkpt>
      <trkpt lat="48.78834" lon="-0.39064">
        <ele>198.6</ele>
        <time>2025-05-26T15:16:24.998Z</time>
      </trkpt>
      <trkpt lat="48.78829" lon="-0.39068">
        <ele>198.8</ele>
        <time>2025-05-26T15:16:29.120Z</time>
      </trkpt>
      <trkpt lat="48.78824" lon="-0.39071">
        <ele>198.9</ele>
        <time>2025-05-26T15:16:33.243Z</time>
        <extensions>
          <visugpx:TrkExtension xmlns:visugpx="https://www.visugpx.com/editgpx/">
            <visugpx:node>11</visugpx:node>
            </visugpx:TrkExtension>
        </extensions>
      </trkpt>
      <trkpt lat="48.7882" lon="-0.39082">
        <ele>198.6</ele>
        <time>2025-05-26T15:16:38.309Z</time>
      </trkpt>
      <trkpt lat="48.78815" lon="-0.39092">
        <ele>198.2</ele>
        <time>2025-05-26T15:16:43.377Z</time>
      </trkpt>
      <trkpt lat="48.78818" lon="-0.39099">
        <ele>197.7</ele>
        <time>2025-05-26T15:16:46.587Z</time>
      </trkpt>
      <trkpt lat="48.7882" lon="-0.39106">
        <ele>197.2</ele>
        <time>2025-05-26T15:16:49.798Z</time>
      </trkpt>
      <trkpt lat="48.78823" lon="-0.39113">
        <ele>196.7</ele>
        <time>2025-05-26T15:16:53.009Z</time>
      </trkpt>
      <trkpt lat="48.78825" lon="-0.39121">
        <ele>196.1</ele>
        <time>2025-05-26T15:16:56.220Z</time>
      </trkpt>
      <trkpt lat="48.78828" lon="-0.39128">
        <ele>195.7</ele>
        <time>2025-05-26T15:16:59.431Z</time>
      </trkpt>
      <trkpt lat="48.7883" lon="-0.39135">
        <ele>195.3</ele>
        <time>2025-05-26T15:17:02.642Z</time>
      </trkpt>
      <trkpt lat="48.78833" lon="-0.39142">
        <ele>194.9</ele>
        <time>2025-05-26T15:17:05.853Z</time>
      </trkpt>
      <trkpt lat="48.78835" lon="-0.39149">
        <ele>194.6</ele>
        <time>2025-05-26T15:17:09.064Z</time>
      </trkpt>
      <trkpt lat="48.78838" lon="-0.39156">
        <ele>194.2</ele>
        <time>2025-05-26T15:17:12.275Z</time>
      </trkpt>
      <trkpt lat="48.7884" lon="-0.39163">
        <ele>193.9</ele>
        <time>2025-05-26T15:17:15.486Z</time>
      </trkpt>
      <trkpt lat="48.78843" lon="-0.3917">
        <ele>193.6</ele>
        <time>2025-05-26T15:17:18.697Z</time>
      </trkpt>
      <trkpt lat="48.78845" lon="-0.39178">
        <ele>193.3</ele>
        <time>2025-05-26T15:17:21.908Z</time>
      </trkpt>
      <trkpt lat="48.78848" lon="-0.39185">
        <ele>193.2</ele>
        <time>2025-05-26T15:17:25.119Z</time>
      </trkpt>
      <trkpt lat="48.7885" lon="-0.39192">
        <ele>193</ele>
        <time>2025-05-26T15:17:28.330Z</time>
      </trkpt>
      <trkpt lat="48.78853" lon="-0.39199">
        <ele>192.9</ele>
        <time>2025-05-26T15:17:31.541Z</time>
      </trkpt>
      <trkpt lat="48.78855" lon="-0.39206">
        <ele>192.7</ele>
        <time>2025-05-26T15:17:34.752Z</time>
      </trkpt>
      <trkpt lat="48.78849" lon="-0.39208">
        <ele>192.7</ele>
        <time>2025-05-26T15:17:38.800Z</time>
      </trkpt>
      <trkpt lat="48.78844" lon="-0.39209">
        <ele>192.8</ele>
        <time>2025-05-26T15:17:42.848Z</time>
      </trkpt>
      <trkpt lat="48.78838" lon="-0.39211">
        <ele>192.9</ele>
        <time>2025-05-26T15:17:46.897Z</time>
      </trkpt>
      <trkpt lat="48.78832" lon="-0.39212">
        <ele>193</ele>
        <time>2025-05-26T15:17:50.946Z</time>
      </trkpt>
      <trkpt lat="48.78826" lon="-0.39214">
        <ele>193</ele>
        <time>2025-05-26T15:17:54.995Z</time>
      </trkpt>
      <trkpt lat="48.78821" lon="-0.39215">
        <ele>193</ele>
        <time>2025-05-26T15:17:59.044Z</time>
      </trkpt>
      <trkpt lat="48.78815" lon="-0.39217">
        <ele>193</ele>
        <time>2025-05-26T15:18:03.093Z</time>
      </trkpt>
      <trkpt lat="48.78809" lon="-0.39218">
        <ele>193</ele>
        <time>2025-05-26T15:18:07.143Z</time>
      </trkpt>
      <trkpt lat="48.78805" lon="-0.39222">
        <ele>193</ele>
        <time>2025-05-26T15:18:10.647Z</time>
      </trkpt>
      <trkpt lat="48.788" lon="-0.39226">
        <ele>192.9</ele>
        <time>2025-05-26T15:18:14.151Z</time>
      </trkpt>
      <trkpt lat="48.78796" lon="-0.39231">
        <ele>192.8</ele>
        <time>2025-05-26T15:18:17.655Z</time>
      </trkpt>
      <trkpt lat="48.78792" lon="-0.39235">
        <ele>192.8</ele>
        <time>2025-05-26T15:18:21.159Z</time>
      </trkpt>
      <trkpt lat="48.78787" lon="-0.39239">
        <ele>192.8</ele>
        <time>2025-05-26T15:18:24.663Z</time>
      </trkpt>
      <trkpt lat="48.78783" lon="-0.39243">
        <ele>192.9</ele>
        <time>2025-05-26T15:18:28.167Z</time>
      </trkpt>
      <trkpt lat="48.78778" lon="-0.39247">
        <ele>193</ele>
        <time>2025-05-26T15:18:31.671Z</time>
      </trkpt>
      <trkpt lat="48.78774" lon="-0.39252">
        <ele>192.9</ele>
        <time>2025-05-26T15:18:35.175Z</time>
      </trkpt>
      <trkpt lat="48.7877" lon="-0.39256">
        <ele>192.8</ele>
        <time>2025-05-26T15:18:38.679Z</time>
      </trkpt>
      <trkpt lat="48.78765" lon="-0.3926">
        <ele>192.6</ele>
        <time>2025-05-26T15:18:42.183Z</time>
      </trkpt>
      <trkpt lat="48.78761" lon="-0.39264">
        <ele>192.5</ele>
        <time>2025-05-26T15:18:45.687Z</time>
      </trkpt>
      <trkpt lat="48.78757" lon="-0.39268">
        <ele>192.4</ele>
        <time>2025-05-26T15:18:49.191Z</time>
      </trkpt>
      <trkpt lat="48.78752" lon="-0.39272">
        <ele>192.2</ele>
        <time>2025-05-26T15:18:52.695Z</time>
      </trkpt>
      <trkpt lat="48.78748" lon="-0.39277">
        <ele>192.2</ele>
        <time>2025-05-26T15:18:56.199Z</time>
      </trkpt>
      <trkpt lat="48.78743" lon="-0.39281">
        <ele>192.4</ele>
        <time>2025-05-26T15:18:59.703Z</time>
      </trkpt>
      <trkpt lat="48.78739" lon="-0.39285">
        <ele>192.5</ele>
        <time>2025-05-26T15:19:03.208Z</time>
      </trkpt>
      <trkpt lat="48.78733" lon="-0.39285">
        <ele>193</ele>
        <time>2025-05-26T15:19:07.421Z</time>
      </trkpt>
      <trkpt lat="48.78728" lon="-0.39285">
        <ele>193.3</ele>
        <time>2025-05-26T15:19:11.634Z</time>
      </trkpt>
      <trkpt lat="48.78722" lon="-0.39286">
        <ele>193.7</ele>
        <time>2025-05-26T15:19:15.847Z</time>
      </trkpt>
      <trkpt lat="48.78717" lon="-0.39286">
        <ele>193.9</ele>
        <time>2025-05-26T15:19:20.060Z</time>
      </trkpt>
      <trkpt lat="48.78711" lon="-0.39286">
        <ele>194.1</ele>
        <time>2025-05-26T15:19:24.273Z</time>
      </trkpt>
      <trkpt lat="48.78705" lon="-0.39286">
        <ele>194.3</ele>
        <time>2025-05-26T15:19:28.486Z</time>
      </trkpt>
      <trkpt lat="48.787" lon="-0.39286">
        <ele>194.5</ele>
        <time>2025-05-26T15:19:32.699Z</time>
      </trkpt>
      <trkpt lat="48.78694" lon="-0.39287">
        <ele>194.7</ele>
        <time>2025-05-26T15:19:36.913Z</time>
      </trkpt>
      <trkpt lat="48.78688" lon="-0.39287">
        <ele>194.8</ele>
        <time>2025-05-26T15:19:41.127Z</time>
      </trkpt>
      <trkpt lat="48.78683" lon="-0.39287">
        <ele>194.9</ele>
        <time>2025-05-26T15:19:45.341Z</time>
      </trkpt>
      <trkpt lat="48.78677" lon="-0.39287">
        <ele>195.1</ele>
        <time>2025-05-26T15:19:49.555Z</time>
      </trkpt>
      <trkpt lat="48.78672" lon="-0.39287">
        <ele>195.2</ele>
        <time>2025-05-26T15:19:53.769Z</time>
      </trkpt>
      <trkpt lat="48.78666" lon="-0.39287">
        <ele>195.3</ele>
        <time>2025-05-26T15:19:57.983Z</time>
      </trkpt>
      <trkpt lat="48.7866" lon="-0.39288">
        <ele>195.1</ele>
        <time>2025-05-26T15:20:02.197Z</time>
      </trkpt>
      <trkpt lat="48.78655" lon="-0.39288">
        <ele>195</ele>
        <time>2025-05-26T15:20:06.411Z</time>
      </trkpt>
      <trkpt lat="48.78649" lon="-0.39288">
        <ele>194.9</ele>
        <time>2025-05-26T15:20:10.625Z</time>
      </trkpt>
      <trkpt lat="48.78642" lon="-0.39292">
        <ele>194.5</ele>
        <time>2025-05-26T15:20:15.072Z</time>
      </trkpt>
      <trkpt lat="48.78635" lon="-0.39296">
        <ele>194.3</ele>
        <time>2025-05-26T15:20:19.519Z</time>
      </trkpt>
      <trkpt lat="48.78628" lon="-0.39299">
        <ele>193.9</ele>
        <time>2025-05-26T15:20:23.966Z</time>
      </trkpt>
      <trkpt lat="48.78621" lon="-0.39303">
        <ele>193.5</ele>
        <time>2025-05-26T15:20:28.414Z</time>
      </trkpt>
      <trkpt lat="48.78616" lon="-0.393">
        <ele>193.5</ele>
        <time>2025-05-26T15:20:32.552Z</time>
      </trkpt>
      <trkpt lat="48.78611" lon="-0.39296">
        <ele>193.7</ele>
        <time>2025-05-26T15:20:36.691Z</time>
        <extensions>
          <visugpx:TrkExtension xmlns:visugpx="https://www.visugpx.com/editgpx/">
            <visugpx:node>12</visugpx:node>
            </visugpx:TrkExtension>
        </extensions>
      </trkpt>
      <trkpt lat="48.78607" lon="-0.39293">
        <ele>193.8</ele>
        <time>2025-05-26T15:20:40.238Z</time>
      </trkpt>
      <trkpt lat="48.78602" lon="-0.39289">
        <ele>193.9</ele>
        <time>2025-05-26T15:20:43.787Z</time>
      </trkpt>
      <trkpt lat="48.78598" lon="-0.39287">
        <ele>193.9</ele>
        <time>2025-05-26T15:20:46.876Z</time>
      </trkpt>
      <trkpt lat="48.78593" lon="-0.39286">
        <ele>193.8</ele>
        <time>2025-05-26T15:20:49.966Z</time>
      </trkpt>
      <trkpt lat="48.78589" lon="-0.39284">
        <ele>193.8</ele>
        <time>2025-05-26T15:20:53.056Z</time>
      </trkpt>
      <trkpt lat="48.78584" lon="-0.39282">
        <ele>193.7</ele>
        <time>2025-05-26T15:20:56.147Z</time>
      </trkpt>
      <trkpt lat="48.78578" lon="-0.39281">
        <ele>194</ele>
        <time>2025-05-26T15:21:01.949Z</time>
      </trkpt>
      <trkpt lat="48.78571" lon="-0.39279">
        <ele>194.4</ele>
        <time>2025-05-26T15:21:07.751Z</time>
      </trkpt>
      <trkpt lat="48.78565" lon="-0.39278">
        <ele>194.6</ele>
        <time>2025-05-26T15:21:13.553Z</time>
      </trkpt>
      <trkpt lat="48.78559" lon="-0.39277">
        <ele>194.9</ele>
        <time>2025-05-26T15:21:19.355Z</time>
      </trkpt>
      <trkpt lat="48.78552" lon="-0.39275">
        <ele>195.3</ele>
        <time>2025-05-26T15:21:25.157Z</time>
      </trkpt>
      <trkpt lat="48.78546" lon="-0.39274">
        <ele>195.7</ele>
        <time>2025-05-26T15:21:30.959Z</time>
      </trkpt>
      <trkpt lat="48.7854" lon="-0.39272">
        <ele>196.1</ele>
        <time>2025-05-26T15:21:36.761Z</time>
      </trkpt>
      <trkpt lat="48.78534" lon="-0.39271">
        <ele>196.5</ele>
        <time>2025-05-26T15:21:42.563Z</time>
      </trkpt>
      <trkpt lat="48.78527" lon="-0.3927">
        <ele>196.9</ele>
        <time>2025-05-26T15:21:48.365Z</time>
      </trkpt>
      <trkpt lat="48.78521" lon="-0.39268">
        <ele>197.9</ele>
        <time>2025-05-26T15:21:54.167Z</time>
      </trkpt>
      <trkpt lat="48.78515" lon="-0.39267">
        <ele>198.6</ele>
        <time>2025-05-26T15:21:59.969Z</time>
      </trkpt>
      <trkpt lat="48.78508" lon="-0.39266">
        <ele>199.5</ele>
        <time>2025-05-26T15:22:05.771Z</time>
      </trkpt>
      <trkpt lat="48.78502" lon="-0.39264">
        <ele>200.3</ele>
        <time>2025-05-26T15:22:11.573Z</time>
      </trkpt>
      <trkpt lat="48.78496" lon="-0.39263">
        <ele>201</ele>
        <time>2025-05-26T15:22:17.376Z</time>
      </trkpt>
      <trkpt lat="48.78489" lon="-0.39261">
        <ele>201.8</ele>
        <time>2025-05-26T15:22:23.179Z</time>
      </trkpt>
      <trkpt lat="48.78483" lon="-0.3926">
        <ele>202.5</ele>
        <time>2025-05-26T15:22:28.983Z</time>
      </trkpt>
      <trkpt lat="48.78478" lon="-0.39259">
        <ele>203.1</ele>
        <time>2025-05-26T15:22:33.701Z</time>
      </trkpt>
      <trkpt lat="48.78474" lon="-0.39259">
        <ele>203.5</ele>
        <time>2025-05-26T15:22:38.419Z</time>
      </trkpt>
      <trkpt lat="48.78469" lon="-0.39258">
        <ele>204.1</ele>
        <time>2025-05-26T15:22:43.138Z</time>
      </trkpt>
      <trkpt lat="48.78464" lon="-0.39257">
        <ele>204.6</ele>
        <time>2025-05-26T15:22:47.857Z</time>
      </trkpt>
      <trkpt lat="48.78456" lon="-0.3926">
        <ele>205.4</ele>
        <time>2025-05-26T15:22:54.962Z</time>
      </trkpt>
      <trkpt lat="48.78449" lon="-0.39262">
        <ele>206.1</ele>
        <time>2025-05-26T15:23:02.068Z</time>
      </trkpt>
      <trkpt lat="48.78441" lon="-0.39265">
        <ele>206.7</ele>
        <time>2025-05-26T15:23:09.174Z</time>
      </trkpt>
      <trkpt lat="48.78433" lon="-0.39267">
        <ele>207.2</ele>
        <time>2025-05-26T15:23:16.281Z</time>
      </trkpt>
      <trkpt lat="48.78427" lon="-0.39262">
        <ele>207.8</ele>
        <time>2025-05-26T15:23:22.539Z</time>
      </trkpt>
      <trkpt lat="48.78421" lon="-0.39259">
        <ele>208.4</ele>
        <time>2025-05-26T15:23:28.463Z</time>
      </trkpt>
      <trkpt lat="48.78416" lon="-0.39261">
        <ele>208.7</ele>
        <time>2025-05-26T15:23:33.463Z</time>
      </trkpt>
      <trkpt lat="48.78411" lon="-0.39262">
        <ele>209.5</ele>
        <time>2025-05-26T15:23:38.463Z</time>
      </trkpt>
      <trkpt lat="48.78407" lon="-0.39265">
        <ele>210</ele>
        <time>2025-05-26T15:23:43.050Z</time>
      </trkpt>
      <trkpt lat="48.78403" lon="-0.39267">
        <ele>210.5</ele>
        <time>2025-05-26T15:23:47.638Z</time>
      </trkpt>
      <trkpt lat="48.78398" lon="-0.3927">
        <ele>211.2</ele>
        <time>2025-05-26T15:23:52.226Z</time>
      </trkpt>
      <trkpt lat="48.78394" lon="-0.39272">
        <ele>211.6</ele>
        <time>2025-05-26T15:23:56.815Z</time>
      </trkpt>
      <trkpt lat="48.78394" lon="-0.39281">
        <ele>211.1</ele>
        <time>2025-05-26T15:24:00.696Z</time>
      </trkpt>
      <trkpt lat="48.78393" lon="-0.39291">
        <ele>210.9</ele>
        <time>2025-05-26T15:24:04.578Z</time>
      </trkpt>
      <trkpt lat="48.78393" lon="-0.393">
        <ele>210.5</ele>
        <time>2025-05-26T15:24:08.460Z</time>
      </trkpt>
      <trkpt lat="48.78393" lon="-0.3931">
        <ele>210.2</ele>
        <time>2025-05-26T15:24:12.342Z</time>
      </trkpt>
      <trkpt lat="48.78392" lon="-0.39319">
        <ele>210.4</ele>
        <time>2025-05-26T15:24:16.224Z</time>
      </trkpt>
      <trkpt lat="48.78392" lon="-0.39328">
        <ele>210.3</ele>
        <time>2025-05-26T15:24:20.106Z</time>
      </trkpt>
      <trkpt lat="48.78391" lon="-0.39338">
        <ele>210.4</ele>
        <time>2025-05-26T15:24:23.988Z</time>
      </trkpt>
      <trkpt lat="48.78391" lon="-0.39347">
        <ele>210.1</ele>
        <time>2025-05-26T15:24:27.871Z</time>
      </trkpt>
      <trkpt lat="48.7839" lon="-0.39358">
        <ele>209.9</ele>
        <time>2025-05-26T15:24:32.654Z</time>
      </trkpt>
      <trkpt lat="48.78388" lon="-0.39369">
        <ele>209.8</ele>
        <time>2025-05-26T15:24:37.439Z</time>
      </trkpt>
      <trkpt lat="48.78383" lon="-0.3937">
        <ele>210.5</ele>
        <time>2025-05-26T15:24:42.967Z</time>
        <extensions>
          <visugpx:TrkExtension xmlns:visugpx="https://www.visugpx.com/editgpx/">
            <visugpx:node>13</visugpx:node>
            </visugpx:TrkExtension>
        </extensions>
      </trkpt>
      <trkpt lat="48.78381" lon="-0.39371">
        <ele>210.8</ele>
        <time>2025-05-26T15:24:45.306Z</time>
      </trkpt>
      <trkpt lat="48.78375" lon="-0.3937">
        <ele>211.7</ele>
        <time>2025-05-26T15:24:51.029Z</time>
      </trkpt>
      <trkpt lat="48.7837" lon="-0.39369">
        <ele>212.4</ele>
        <time>2025-05-26T15:24:56.752Z</time>
      </trkpt>
      <trkpt lat="48.78364" lon="-0.39368">
        <ele>213.3</ele>
        <time>2025-05-26T15:25:02.475Z</time>
      </trkpt>
      <trkpt lat="48.78359" lon="-0.39367">
        <ele>214</ele>
        <time>2025-05-26T15:25:08.198Z</time>
      </trkpt>
      <trkpt lat="48.78353" lon="-0.39366">
        <ele>214.7</ele>
        <time>2025-05-26T15:25:13.921Z</time>
      </trkpt>
      <trkpt lat="48.78348" lon="-0.39365">
        <ele>215.3</ele>
        <time>2025-05-26T15:25:19.644Z</time>
      </trkpt>
      <trkpt lat="48.78342" lon="-0.39364">
        <ele>216</ele>
        <time>2025-05-26T15:25:25.367Z</time>
      </trkpt>
      <trkpt lat="48.78337" lon="-0.39363">
        <ele>216.5</ele>
        <time>2025-05-26T15:25:31.090Z</time>
      </trkpt>
      <trkpt lat="48.78331" lon="-0.39362">
        <ele>217.2</ele>
        <time>2025-05-26T15:25:36.813Z</time>
      </trkpt>
      <trkpt lat="48.78325" lon="-0.39361">
        <ele>217.9</ele>
        <time>2025-05-26T15:25:42.536Z</time>
      </trkpt>
      <trkpt lat="48.7832" lon="-0.3936">
        <ele>218.4</ele>
        <time>2025-05-26T15:25:48.259Z</time>
      </trkpt>
      <trkpt lat="48.78314" lon="-0.39359">
        <ele>219.1</ele>
        <time>2025-05-26T15:25:53.983Z</time>
      </trkpt>
      <trkpt lat="48.78309" lon="-0.39358">
        <ele>219.6</ele>
        <time>2025-05-26T15:25:59.707Z</time>
      </trkpt>
      <trkpt lat="48.78303" lon="-0.39357">
        <ele>220.3</ele>
        <time>2025-05-26T15:26:05.431Z</time>
      </trkpt>
      <trkpt lat="48.78298" lon="-0.39356">
        <ele>220.8</ele>
        <time>2025-05-26T15:26:11.155Z</time>
      </trkpt>
      <trkpt lat="48.78292" lon="-0.39355">
        <ele>221.5</ele>
        <time>2025-05-26T15:26:16.880Z</time>
      </trkpt>
      <trkpt lat="48.78285" lon="-0.39354">
        <ele>222.2</ele>
        <time>2025-05-26T15:26:23.223Z</time>
      </trkpt>
      <trkpt lat="48.78278" lon="-0.39354">
        <ele>223</ele>
        <time>2025-05-26T15:26:29.566Z</time>
      </trkpt>
      <trkpt lat="48.78271" lon="-0.39353">
        <ele>223.6</ele>
        <time>2025-05-26T15:26:35.909Z</time>
      </trkpt>
      <trkpt lat="48.78264" lon="-0.39353">
        <ele>224.1</ele>
        <time>2025-05-26T15:26:42.252Z</time>
      </trkpt>
      <trkpt lat="48.78257" lon="-0.39352">
        <ele>224.7</ele>
        <time>2025-05-26T15:26:48.595Z</time>
      </trkpt>
      <trkpt lat="48.7825" lon="-0.39352">
        <ele>225.3</ele>
        <time>2025-05-26T15:26:54.938Z</time>
      </trkpt>
      <trkpt lat="48.78243" lon="-0.39351">
        <ele>226.1</ele>
        <time>2025-05-26T15:27:01.281Z</time>
      </trkpt>
      <trkpt lat="48.78237" lon="-0.39351">
        <ele>226.8</ele>
        <time>2025-05-26T15:27:07.624Z</time>
      </trkpt>
      <trkpt lat="48.7823" lon="-0.3935">
        <ele>227.6</ele>
        <time>2025-05-26T15:27:13.967Z</time>
      </trkpt>
      <trkpt lat="48.78223" lon="-0.39349">
        <ele>228.4</ele>
        <time>2025-05-26T15:27:20.310Z</time>
      </trkpt>
      <trkpt lat="48.78216" lon="-0.39349">
        <ele>228.9</ele>
        <time>2025-05-26T15:27:26.653Z</time>
      </trkpt>
      <trkpt lat="48.78209" lon="-0.39348">
        <ele>229.4</ele>
        <time>2025-05-26T15:27:32.996Z</time>
      </trkpt>
      <trkpt lat="48.78202" lon="-0.39348">
        <ele>229.9</ele>
        <time>2025-05-26T15:27:39.340Z</time>
      </trkpt>
      <trkpt lat="48.78195" lon="-0.39347">
        <ele>230.5</ele>
        <time>2025-05-26T15:27:45.684Z</time>
      </trkpt>
      <trkpt lat="48.78188" lon="-0.39347">
        <ele>230.9</ele>
        <time>2025-05-26T15:27:52.028Z</time>
      </trkpt>
      <trkpt lat="48.78181" lon="-0.39346">
        <ele>231.2</ele>
        <time>2025-05-26T15:27:58.372Z</time>
      </trkpt>
      <trkpt lat="48.78179" lon="-0.39344">
        <ele>231.4</ele>
        <time>2025-05-26T15:28:00.531Z</time>
        <extensions>
          <visugpx:TrkExtension xmlns:visugpx="https://www.visugpx.com/editgpx/">
            <visugpx:node>14</visugpx:node>
            </visugpx:TrkExtension>
        </extensions>
      </trkpt>
      <trkpt lat="48.78181" lon="-0.39346">
        <ele>231.2</ele>
        <time>2025-05-26T15:28:01.972Z</time>
      </trkpt>
      <trkpt lat="48.78179" lon="-0.39355">
        <ele>231.2</ele>
        <time>2025-05-26T15:28:05.908Z</time>
      </trkpt>
      <trkpt lat="48.78176" lon="-0.39364">
        <ele>231.1</ele>
        <time>2025-05-26T15:28:09.844Z</time>
      </trkpt>
      <trkpt lat="48.78174" lon="-0.39373">
        <ele>230.6</ele>
        <time>2025-05-26T15:28:13.780Z</time>
      </trkpt>
      <trkpt lat="48.78171" lon="-0.39382">
        <ele>230.2</ele>
        <time>2025-05-26T15:28:17.718Z</time>
      </trkpt>
      <trkpt lat="48.78169" lon="-0.39394">
        <ele>229.5</ele>
        <time>2025-05-26T15:28:22.623Z</time>
      </trkpt>
      <trkpt lat="48.78167" lon="-0.39406">
        <ele>228.8</ele>
        <time>2025-05-26T15:28:27.530Z</time>
      </trkpt>
      <trkpt lat="48.78167" lon="-0.39415">
        <ele>228.1</ele>
        <time>2025-05-26T15:28:31.100Z</time>
      </trkpt>
      <trkpt lat="48.78168" lon="-0.39424">
        <ele>227.7</ele>
        <time>2025-05-26T15:28:34.670Z</time>
      </trkpt>
      <trkpt lat="48.78168" lon="-0.39433">
        <ele>227.3</ele>
        <time>2025-05-26T15:28:38.240Z</time>
      </trkpt>
      <trkpt lat="48.78168" lon="-0.39442">
        <ele>227</ele>
        <time>2025-05-26T15:28:41.811Z</time>
      </trkpt>
      <trkpt lat="48.7817" lon="-0.39449">
        <ele>226.6</ele>
        <time>2025-05-26T15:28:44.640Z</time>
      </trkpt>
      <trkpt lat="48.78172" lon="-0.39455">
        <ele>226.2</ele>
        <time>2025-05-26T15:28:47.469Z</time>
      </trkpt>
      <trkpt lat="48.78173" lon="-0.39462">
        <ele>225.9</ele>
        <time>2025-05-26T15:28:50.298Z</time>
      </trkpt>
      <trkpt lat="48.78175" lon="-0.39469">
        <ele>225.5</ele>
        <time>2025-05-26T15:28:53.127Z</time>
      </trkpt>
      <trkpt lat="48.78177" lon="-0.39475">
        <ele>225.2</ele>
        <time>2025-05-26T15:28:55.956Z</time>
      </trkpt>
      <trkpt lat="48.78179" lon="-0.39482">
        <ele>224.8</ele>
        <time>2025-05-26T15:28:58.785Z</time>
      </trkpt>
      <trkpt lat="48.7818" lon="-0.39488">
        <ele>224.5</ele>
        <time>2025-05-26T15:29:01.614Z</time>
      </trkpt>
      <trkpt lat="48.78182" lon="-0.39495">
        <ele>224.1</ele>
        <time>2025-05-26T15:29:04.443Z</time>
      </trkpt>
      <trkpt lat="48.78181" lon="-0.39508">
        <ele>223.7</ele>
        <time>2025-05-26T15:29:09.671Z</time>
      </trkpt>
      <trkpt lat="48.7818" lon="-0.39521">
        <ele>223.3</ele>
        <time>2025-05-26T15:29:14.899Z</time>
      </trkpt>
      <trkpt lat="48.78179" lon="-0.39534">
        <ele>222.8</ele>
        <time>2025-05-26T15:29:20.127Z</time>
      </trkpt>
      <trkpt lat="48.78179" lon="-0.39541">
        <ele>222.4</ele>
        <time>2025-05-26T15:29:22.741Z</time>
      </trkpt>
      <trkpt lat="48.78179" lon="-0.39548">
        <ele>222</ele>
        <time>2025-05-26T15:29:25.355Z</time>
      </trkpt>
      <trkpt lat="48.78178" lon="-0.39561">
        <ele>221.4</ele>
        <time>2025-05-26T15:29:30.584Z</time>
      </trkpt>
      <trkpt lat="48.78177" lon="-0.39574">
        <ele>221</ele>
        <time>2025-05-26T15:29:35.813Z</time>
      </trkpt>
      <trkpt lat="48.78176" lon="-0.39587">
        <ele>220.4</ele>
        <time>2025-05-26T15:29:41.042Z</time>
      </trkpt>
      <trkpt lat="48.78175" lon="-0.396">
        <ele>219.5</ele>
        <time>2025-05-26T15:29:46.272Z</time>
      </trkpt>
      <trkpt lat="48.78174" lon="-0.39607">
        <ele>219</ele>
        <time>2025-05-26T15:29:49.014Z</time>
      </trkpt>
      <trkpt lat="48.78173" lon="-0.39614">
        <ele>218.6</ele>
        <time>2025-05-26T15:29:51.756Z</time>
      </trkpt>
      <trkpt lat="48.78172" lon="-0.3962">
        <ele>218.4</ele>
        <time>2025-05-26T15:29:54.498Z</time>
      </trkpt>
      <trkpt lat="48.78171" lon="-0.39627">
        <ele>218.2</ele>
        <time>2025-05-26T15:29:57.241Z</time>
      </trkpt>
      <trkpt lat="48.7817" lon="-0.39636">
        <ele>217.9</ele>
        <time>2025-05-26T15:30:01.175Z</time>
      </trkpt>
      <trkpt lat="48.7817" lon="-0.39646">
        <ele>217.7</ele>
        <time>2025-05-26T15:30:05.109Z</time>
      </trkpt>
      <trkpt lat="48.78169" lon="-0.39655">
        <ele>217.8</ele>
        <time>2025-05-26T15:30:09.043Z</time>
      </trkpt>
      <trkpt lat="48.78169" lon="-0.39664">
        <ele>217.8</ele>
        <time>2025-05-26T15:30:12.977Z</time>
      </trkpt>
      <trkpt lat="48.78168" lon="-0.39674">
        <ele>217.8</ele>
        <time>2025-05-26T15:30:16.911Z</time>
      </trkpt>
      <trkpt lat="48.78168" lon="-0.39683">
        <ele>217.8</ele>
        <time>2025-05-26T15:30:20.845Z</time>
      </trkpt>
      <trkpt lat="48.78167" lon="-0.39692">
        <ele>218</ele>
        <time>2025-05-26T15:30:24.779Z</time>
      </trkpt>
      <trkpt lat="48.78167" lon="-0.39702">
        <ele>217.4</ele>
        <time>2025-05-26T15:30:28.713Z</time>
      </trkpt>
      <trkpt lat="48.78166" lon="-0.39711">
        <ele>216.9</ele>
        <time>2025-05-26T15:30:32.648Z</time>
      </trkpt>
      <trkpt lat="48.78165" lon="-0.3972">
        <ele>216.4</ele>
        <time>2025-05-26T15:30:36.583Z</time>
      </trkpt>
      <trkpt lat="48.78165" lon="-0.39729">
        <ele>216</ele>
        <time>2025-05-26T15:30:40.518Z</time>
      </trkpt>
      <trkpt lat="48.78164" lon="-0.39739">
        <ele>215.8</ele>
        <time>2025-05-26T15:30:44.453Z</time>
      </trkpt>
      <trkpt lat="48.78164" lon="-0.39748">
        <ele>215.5</ele>
        <time>2025-05-26T15:30:48.388Z</time>
      </trkpt>
      <trkpt lat="48.78163" lon="-0.39757">
        <ele>215.7</ele>
        <time>2025-05-26T15:30:52.323Z</time>
      </trkpt>
      <trkpt lat="48.78163" lon="-0.39767">
        <ele>215.7</ele>
        <time>2025-05-26T15:30:56.258Z</time>
      </trkpt>
      <trkpt lat="48.78162" lon="-0.39776">
        <ele>215.8</ele>
        <time>2025-05-26T15:31:00.194Z</time>
      </trkpt>
      <trkpt lat="48.78163" lon="-0.39786">
        <ele>215.9</ele>
        <time>2025-05-26T15:31:04.786Z</time>
      </trkpt>
      <trkpt lat="48.78164" lon="-0.39795">
        <ele>216</ele>
        <time>2025-05-26T15:31:09.378Z</time>
      </trkpt>
      <trkpt lat="48.78165" lon="-0.39805">
        <ele>216.2</ele>
        <time>2025-05-26T15:31:13.970Z</time>
      </trkpt>
      <trkpt lat="48.78166" lon="-0.39814">
        <ele>216.4</ele>
        <time>2025-05-26T15:31:18.562Z</time>
      </trkpt>
      <trkpt lat="48.78166" lon="-0.39824">
        <ele>216.7</ele>
        <time>2025-05-26T15:31:23.155Z</time>
      </trkpt>
      <trkpt lat="48.78167" lon="-0.39833">
        <ele>216.9</ele>
        <time>2025-05-26T15:31:27.748Z</time>
      </trkpt>
      <trkpt lat="48.78168" lon="-0.39843">
        <ele>216.8</ele>
        <time>2025-05-26T15:31:32.341Z</time>
      </trkpt>
      <trkpt lat="48.78169" lon="-0.39852">
        <ele>216.7</ele>
        <time>2025-05-26T15:31:36.934Z</time>
      </trkpt>
      <trkpt lat="48.7817" lon="-0.39862">
        <ele>216.5</ele>
        <time>2025-05-26T15:31:41.158Z</time>
      </trkpt>
      <trkpt lat="48.78172" lon="-0.39872">
        <ele>216.2</ele>
        <time>2025-05-26T15:31:45.382Z</time>
      </trkpt>
      <trkpt lat="48.78173" lon="-0.39882">
        <ele>215.9</ele>
        <time>2025-05-26T15:31:49.606Z</time>
      </trkpt>
      <trkpt lat="48.78174" lon="-0.39892">
        <ele>215.6</ele>
        <time>2025-05-26T15:31:53.831Z</time>
      </trkpt>
      <trkpt lat="48.78175" lon="-0.39902">
        <ele>215.2</ele>
        <time>2025-05-26T15:31:58.056Z</time>
      </trkpt>
      <trkpt lat="48.78177" lon="-0.39912">
        <ele>214.6</ele>
        <time>2025-05-26T15:32:02.281Z</time>
      </trkpt>
      <trkpt lat="48.78178" lon="-0.39922">
        <ele>214.4</ele>
        <time>2025-05-26T15:32:06.506Z</time>
      </trkpt>
      <trkpt lat="48.78179" lon="-0.39932">
        <ele>214.5</ele>
        <time>2025-05-26T15:32:10.731Z</time>
      </trkpt>
      <trkpt lat="48.7818" lon="-0.39942">
        <ele>214.5</ele>
        <time>2025-05-26T15:32:14.956Z</time>
      </trkpt>
      <trkpt lat="48.78182" lon="-0.39952">
        <ele>214.3</ele>
        <time>2025-05-26T15:32:19.181Z</time>
      </trkpt>
      <trkpt lat="48.78183" lon="-0.39962">
        <ele>214.2</ele>
        <time>2025-05-26T15:32:23.406Z</time>
      </trkpt>
      <trkpt lat="48.78184" lon="-0.39972">
        <ele>214.1</ele>
        <time>2025-05-26T15:32:27.631Z</time>
      </trkpt>
      <trkpt lat="48.78185" lon="-0.39982">
        <ele>214</ele>
        <time>2025-05-26T15:32:31.856Z</time>
      </trkpt>
      <trkpt lat="48.78187" lon="-0.39992">
        <ele>213.8</ele>
        <time>2025-05-26T15:32:36.081Z</time>
      </trkpt>
      <trkpt lat="48.78188" lon="-0.40002">
        <ele>213.7</ele>
        <time>2025-05-26T15:32:40.306Z</time>
      </trkpt>
      <trkpt lat="48.78189" lon="-0.40012">
        <ele>213.6</ele>
        <time>2025-05-26T15:32:44.531Z</time>
        <extensions>
          <visugpx:TrkExtension xmlns:visugpx="https://www.visugpx.com/editgpx/">
            <visugpx:node>15</visugpx:node>
            </visugpx:TrkExtension>
        </extensions>
      </trkpt>
      <trkpt lat="48.7819" lon="-0.40019">
        <ele>213.5</ele>
        <time>2025-05-26T15:32:47.574Z</time>
      </trkpt>
      <trkpt lat="48.78186" lon="-0.40014">
        <ele>213.9</ele>
        <time>2025-05-26T15:32:52.835Z</time>
      </trkpt>
      <trkpt lat="48.78181" lon="-0.40008">
        <ele>214.5</ele>
        <time>2025-05-26T15:32:58.098Z</time>
      </trkpt>
      <trkpt lat="48.78173" lon="-0.40008">
        <ele>215.3</ele>
        <time>2025-05-26T15:33:06.053Z</time>
      </trkpt>
      <trkpt lat="48.78165" lon="-0.40008">
        <ele>216.2</ele>
        <time>2025-05-26T15:33:14.009Z</time>
      </trkpt>
      <trkpt lat="48.78161" lon="-0.40008">
        <ele>216.7</ele>
        <time>2025-05-26T15:33:17.987Z</time>
      </trkpt>
      <trkpt lat="48.78156" lon="-0.40008">
        <ele>217.2</ele>
        <time>2025-05-26T15:33:21.965Z</time>
      </trkpt>
      <trkpt lat="48.78148" lon="-0.40008">
        <ele>218</ele>
        <time>2025-05-26T15:33:29.921Z</time>
      </trkpt>
      <trkpt lat="48.7814" lon="-0.40008">
        <ele>218.9</ele>
        <time>2025-05-26T15:33:37.877Z</time>
      </trkpt>
      <trkpt lat="48.78132" lon="-0.40008">
        <ele>219.7</ele>
        <time>2025-05-26T15:33:45.833Z</time>
      </trkpt>
      <trkpt lat="48.78128" lon="-0.40008">
        <ele>220.1</ele>
        <time>2025-05-26T15:33:49.811Z</time>
      </trkpt>
      <trkpt lat="48.78123" lon="-0.40008">
        <ele>220.6</ele>
        <time>2025-05-26T15:33:53.789Z</time>
      </trkpt>
      <trkpt lat="48.78115" lon="-0.40008">
        <ele>221.3</ele>
        <time>2025-05-26T15:34:01.745Z</time>
      </trkpt>
      <trkpt lat="48.78109" lon="-0.4001">
        <ele>221.9</ele>
        <time>2025-05-26T15:34:07.520Z</time>
      </trkpt>
      <trkpt lat="48.78103" lon="-0.40011">
        <ele>222.5</ele>
        <time>2025-05-26T15:34:13.295Z</time>
      </trkpt>
      <trkpt lat="48.78097" lon="-0.40013">
        <ele>223.1</ele>
        <time>2025-05-26T15:34:19.070Z</time>
      </trkpt>
      <trkpt lat="48.78091" lon="-0.40014">
        <ele>223.7</ele>
        <time>2025-05-26T15:34:24.846Z</time>
      </trkpt>
      <trkpt lat="48.78087" lon="-0.40018">
        <ele>224</ele>
        <time>2025-05-26T15:34:28.863Z</time>
      </trkpt>
      <trkpt lat="48.78083" lon="-0.40023">
        <ele>224.2</ele>
        <time>2025-05-26T15:34:32.880Z</time>
      </trkpt>
      <trkpt lat="48.78079" lon="-0.40027">
        <ele>224.5</ele>
        <time>2025-05-26T15:34:36.897Z</time>
      </trkpt>
      <trkpt lat="48.78075" lon="-0.40031">
        <ele>224.8</ele>
        <time>2025-05-26T15:34:40.915Z</time>
      </trkpt>
      <trkpt lat="48.7807" lon="-0.40041">
        <ele>225</ele>
        <time>2025-05-26T15:34:46.751Z</time>
      </trkpt>
      <trkpt lat="48.78066" lon="-0.40051">
        <ele>225</ele>
        <time>2025-05-26T15:34:52.587Z</time>
      </trkpt>
      <trkpt lat="48.78061" lon="-0.40061">
        <ele>225.3</ele>
        <time>2025-05-26T15:34:58.423Z</time>
      </trkpt>
      <trkpt lat="48.78057" lon="-0.40071">
        <ele>225.3</ele>
        <time>2025-05-26T15:35:04.259Z</time>
      </trkpt>
      <trkpt lat="48.78052" lon="-0.40081">
        <ele>225.5</ele>
        <time>2025-05-26T15:35:10.095Z</time>
      </trkpt>
      <trkpt lat="48.78047" lon="-0.40091">
        <ele>225.6</ele>
        <time>2025-05-26T15:35:15.931Z</time>
      </trkpt>
      <trkpt lat="48.78043" lon="-0.40101">
        <ele>225.7</ele>
        <time>2025-05-26T15:35:21.767Z</time>
      </trkpt>
      <trkpt lat="48.78038" lon="-0.40111">
        <ele>225.9</ele>
        <time>2025-05-26T15:35:27.605Z</time>
      </trkpt>
      <trkpt lat="48.78034" lon="-0.40118">
        <ele>226.1</ele>
        <time>2025-05-26T15:35:32.116Z</time>
      </trkpt>
      <trkpt lat="48.78031" lon="-0.40125">
        <ele>226.2</ele>
        <time>2025-05-26T15:35:36.627Z</time>
      </trkpt>
      <trkpt lat="48.78027" lon="-0.40132">
        <ele>226.3</ele>
        <time>2025-05-26T15:35:41.139Z</time>
      </trkpt>
      <trkpt lat="48.78023" lon="-0.40139">
        <ele>226.5</ele>
        <time>2025-05-26T15:35:45.651Z</time>
      </trkpt>
      <trkpt lat="48.78019" lon="-0.40146">
        <ele>226.9</ele>
        <time>2025-05-26T15:35:50.163Z</time>
      </trkpt>
      <trkpt lat="48.78016" lon="-0.40153">
        <ele>227.1</ele>
        <time>2025-05-26T15:35:54.675Z</time>
      </trkpt>
      <trkpt lat="48.78012" lon="-0.4016">
        <ele>227.3</ele>
        <time>2025-05-26T15:35:59.187Z</time>
      </trkpt>
      <trkpt lat="48.78008" lon="-0.40167">
        <ele>227.4</ele>
        <time>2025-05-26T15:36:03.700Z</time>
      </trkpt>
      <trkpt lat="48.78005" lon="-0.40176">
        <ele>227.6</ele>
        <time>2025-05-26T15:36:08.521Z</time>
      </trkpt>
      <trkpt lat="48.78002" lon="-0.40184">
        <ele>227.8</ele>
        <time>2025-05-26T15:36:13.343Z</time>
      </trkpt>
      <trkpt lat="48.77998" lon="-0.40189">
        <ele>228.2</ele>
        <time>2025-05-26T15:36:17.914Z</time>
      </trkpt>
      <trkpt lat="48.77994" lon="-0.40194">
        <ele>228.6</ele>
        <time>2025-05-26T15:36:22.487Z</time>
      </trkpt>
      <trkpt lat="48.7799" lon="-0.40203">
        <ele>228.8</ele>
        <time>2025-05-26T15:36:27.550Z</time>
      </trkpt>
      <trkpt lat="48.77986" lon="-0.40211">
        <ele>228.9</ele>
        <time>2025-05-26T15:36:32.615Z</time>
      </trkpt>
      <trkpt lat="48.77978" lon="-0.40214">
        <ele>229.7</ele>
        <time>2025-05-26T15:36:39.559Z</time>
      </trkpt>
      <trkpt lat="48.77971" lon="-0.40217">
        <ele>230.3</ele>
        <time>2025-05-26T15:36:46.503Z</time>
      </trkpt>
      <trkpt lat="48.77963" lon="-0.4022">
        <ele>230.7</ele>
        <time>2025-05-26T15:36:53.447Z</time>
      </trkpt>
      <trkpt lat="48.77955" lon="-0.40224">
        <ele>231.2</ele>
        <time>2025-05-26T15:37:00.391Z</time>
      </trkpt>
      <trkpt lat="48.77947" lon="-0.40227">
        <ele>231.8</ele>
        <time>2025-05-26T15:37:07.335Z</time>
      </trkpt>
      <trkpt lat="48.7794" lon="-0.4023">
        <ele>232.3</ele>
        <time>2025-05-26T15:37:14.279Z</time>
      </trkpt>
      <trkpt lat="48.77932" lon="-0.40233">
        <ele>232.9</ele>
        <time>2025-05-26T15:37:21.224Z</time>
      </trkpt>
      <trkpt lat="48.77924" lon="-0.40236">
        <ele>233.5</ele>
        <time>2025-05-26T15:37:28.170Z</time>
      </trkpt>
      <trkpt lat="48.77918" lon="-0.40243">
        <ele>233.9</ele>
        <time>2025-05-26T15:37:33.840Z</time>
      </trkpt>
      <trkpt lat="48.77912" lon="-0.4025">
        <ele>234.2</ele>
        <time>2025-05-26T15:37:39.511Z</time>
      </trkpt>
      <trkpt lat="48.77905" lon="-0.40257">
        <ele>234.2</ele>
        <time>2025-05-26T15:37:45.182Z</time>
      </trkpt>
      <trkpt lat="48.77899" lon="-0.40264">
        <ele>234.1</ele>
        <time>2025-05-26T15:37:50.854Z</time>
      </trkpt>
      <trkpt lat="48.77892" lon="-0.40266">
        <ele>234.3</ele>
        <time>2025-05-26T15:37:56.201Z</time>
        <extensions>
          <visugpx:TrkExtension xmlns:visugpx="https://www.visugpx.com/editgpx/">
            <visugpx:node>16</visugpx:node>
            </visugpx:TrkExtension>
        </extensions>
      </trkpt>
      <trkpt lat="48.77889" lon="-0.40267">
        <ele>234.4</ele>
        <time>2025-05-26T15:37:58.540Z</time>
      </trkpt>
      <trkpt lat="48.77883" lon="-0.40264">
        <ele>234.7</ele>
        <time>2025-05-26T15:38:04.110Z</time>
      </trkpt>
      <trkpt lat="48.77876" lon="-0.4026">
        <ele>235.1</ele>
        <time>2025-05-26T15:38:09.682Z</time>
      </trkpt>
      <trkpt lat="48.77871" lon="-0.40257">
        <ele>235.4</ele>
        <time>2025-05-26T15:38:14.184Z</time>
      </trkpt>
      <trkpt lat="48.77866" lon="-0.40253">
        <ele>235.7</ele>
        <time>2025-05-26T15:38:18.686Z</time>
      </trkpt>
      <trkpt lat="48.77861" lon="-0.4025">
        <ele>236</ele>
        <time>2025-05-26T15:38:23.188Z</time>
      </trkpt>
      <trkpt lat="48.77856" lon="-0.40246">
        <ele>236.3</ele>
        <time>2025-05-26T15:38:27.692Z</time>
      </trkpt>
      <trkpt lat="48.77851" lon="-0.40246">
        <ele>236.5</ele>
        <time>2025-05-26T15:38:31.763Z</time>
      </trkpt>
      <trkpt lat="48.77846" lon="-0.40246">
        <ele>236.7</ele>
        <time>2025-05-26T15:38:35.834Z</time>
      </trkpt>
      <trkpt lat="48.7784" lon="-0.40245">
        <ele>236.9</ele>
        <time>2025-05-26T15:38:39.906Z</time>
      </trkpt>
      <trkpt lat="48.77835" lon="-0.40245">
        <ele>237.1</ele>
        <time>2025-05-26T15:38:43.978Z</time>
      </trkpt>
      <trkpt lat="48.77831" lon="-0.40246">
        <ele>237.2</ele>
        <time>2025-05-26T15:38:47.395Z</time>
      </trkpt>
      <trkpt lat="48.77826" lon="-0.40246">
        <ele>237.4</ele>
        <time>2025-05-26T15:38:50.812Z</time>
      </trkpt>
      <trkpt lat="48.77822" lon="-0.40247">
        <ele>237.5</ele>
        <time>2025-05-26T15:38:54.229Z</time>
      </trkpt>
      <trkpt lat="48.77817" lon="-0.40248">
        <ele>237.7</ele>
        <time>2025-05-26T15:38:57.646Z</time>
      </trkpt>
      <trkpt lat="48.77813" lon="-0.40248">
        <ele>237.8</ele>
        <time>2025-05-26T15:39:01.064Z</time>
      </trkpt>
      <trkpt lat="48.77808" lon="-0.40249">
        <ele>237.9</ele>
        <time>2025-05-26T15:39:04.482Z</time>
      </trkpt>
      <trkpt lat="48.77804" lon="-0.40249">
        <ele>238.1</ele>
        <time>2025-05-26T15:39:07.900Z</time>
      </trkpt>
      <trkpt lat="48.77799" lon="-0.4025">
        <ele>238.2</ele>
        <time>2025-05-26T15:39:11.318Z</time>
      </trkpt>
      <trkpt lat="48.77792" lon="-0.40254">
        <ele>238.3</ele>
        <time>2025-05-26T15:39:17.095Z</time>
      </trkpt>
      <trkpt lat="48.77784" lon="-0.40259">
        <ele>238.5</ele>
        <time>2025-05-26T15:39:22.872Z</time>
      </trkpt>
      <trkpt lat="48.77777" lon="-0.40263">
        <ele>238.6</ele>
        <time>2025-05-26T15:39:28.649Z</time>
      </trkpt>
      <trkpt lat="48.77769" lon="-0.40267">
        <ele>238.7</ele>
        <time>2025-05-26T15:39:34.427Z</time>
      </trkpt>
      <trkpt lat="48.77763" lon="-0.40267">
        <ele>238.9</ele>
        <time>2025-05-26T15:39:39.007Z</time>
      </trkpt>
      <trkpt lat="48.77756" lon="-0.40266">
        <ele>239.2</ele>
        <time>2025-05-26T15:39:44.190Z</time>
      </trkpt>
      <trkpt lat="48.77749" lon="-0.40264">
        <ele>239.5</ele>
        <time>2025-05-26T15:39:49.373Z</time>
      </trkpt>
      <trkpt lat="48.77742" lon="-0.40263">
        <ele>239.5</ele>
        <time>2025-05-26T15:39:54.556Z</time>
      </trkpt>
      <trkpt lat="48.77735" lon="-0.40262">
        <ele>239.6</ele>
        <time>2025-05-26T15:39:59.740Z</time>
      </trkpt>
      <trkpt lat="48.77727" lon="-0.4026">
        <ele>239.6</ele>
        <time>2025-05-26T15:40:04.924Z</time>
      </trkpt>
      <trkpt lat="48.7772" lon="-0.40259">
        <ele>239.7</ele>
        <time>2025-05-26T15:40:10.108Z</time>
      </trkpt>
      <trkpt lat="48.77713" lon="-0.40257">
        <ele>239.7</ele>
        <time>2025-05-26T15:40:15.292Z</time>
      </trkpt>
      <trkpt lat="48.77706" lon="-0.40256">
        <ele>239.8</ele>
        <time>2025-05-26T15:40:20.477Z</time>
        <extensions>
          <visugpx:TrkExtension xmlns:visugpx="https://www.visugpx.com/editgpx/">
            <visugpx:node>17</visugpx:node>
            </visugpx:TrkExtension>
        </extensions>
      </trkpt>
      <trkpt lat="48.77698" lon="-0.40254">
        <ele>239.9</ele>
        <time>2025-05-26T15:40:26.937Z</time>
      </trkpt>
      <trkpt lat="48.77694" lon="-0.40254">
        <ele>239.9</ele>
        <time>2025-05-26T15:40:30.167Z</time>
      </trkpt>
      <trkpt lat="48.77689" lon="-0.40253">
        <ele>240.1</ele>
        <time>2025-05-26T15:40:33.397Z</time>
      </trkpt>
      <trkpt lat="48.77681" lon="-0.40251">
        <ele>240.4</ele>
        <time>2025-05-26T15:40:39.858Z</time>
      </trkpt>
      <trkpt lat="48.77677" lon="-0.4025">
        <ele>240.6</ele>
        <time>2025-05-26T15:40:43.089Z</time>
      </trkpt>
      <trkpt lat="48.77672" lon="-0.40249">
        <ele>240.8</ele>
        <time>2025-05-26T15:40:46.320Z</time>
      </trkpt>
      <trkpt lat="48.77667" lon="-0.40249">
        <ele>241</ele>
        <time>2025-05-26T15:40:50.271Z</time>
      </trkpt>
      <trkpt lat="48.77661" lon="-0.40248">
        <ele>241.1</ele>
        <time>2025-05-26T15:40:54.222Z</time>
      </trkpt>
      <trkpt lat="48.77656" lon="-0.40248">
        <ele>241.1</ele>
        <time>2025-05-26T15:40:58.173Z</time>
      </trkpt>
      <trkpt lat="48.7765" lon="-0.40247">
        <ele>241.1</ele>
        <time>2025-05-26T15:41:02.125Z</time>
      </trkpt>
      <trkpt lat="48.77643" lon="-0.40243">
        <ele>241.3</ele>
        <time>2025-05-26T15:41:07.596Z</time>
      </trkpt>
      <trkpt lat="48.77636" lon="-0.40238">
        <ele>241.4</ele>
        <time>2025-05-26T15:41:13.067Z</time>
      </trkpt>
      <trkpt lat="48.77629" lon="-0.40234">
        <ele>241.4</ele>
        <time>2025-05-26T15:41:18.539Z</time>
      </trkpt>
      <trkpt lat="48.77622" lon="-0.40229">
        <ele>241.6</ele>
        <time>2025-05-26T15:41:24.011Z</time>
      </trkpt>
      <trkpt lat="48.77615" lon="-0.40225">
        <ele>241.8</ele>
        <time>2025-05-26T15:41:29.483Z</time>
      </trkpt>
      <trkpt lat="48.77608" lon="-0.4022">
        <ele>242</ele>
        <time>2025-05-26T15:41:34.955Z</time>
      </trkpt>
      <trkpt lat="48.77601" lon="-0.40216">
        <ele>241.9</ele>
        <time>2025-05-26T15:41:40.427Z</time>
      </trkpt>
      <trkpt lat="48.77594" lon="-0.40211">
        <ele>242</ele>
        <time>2025-05-26T15:41:45.900Z</time>
      </trkpt>
      <trkpt lat="48.77588" lon="-0.40211">
        <ele>241.9</ele>
        <time>2025-05-26T15:41:49.927Z</time>
      </trkpt>
      <trkpt lat="48.77582" lon="-0.4021">
        <ele>241.9</ele>
        <time>2025-05-26T15:41:53.954Z</time>
      </trkpt>
      <trkpt lat="48.77575" lon="-0.40212">
        <ele>241.7</ele>
        <time>2025-05-26T15:41:58.389Z</time>
      </trkpt>
      <trkpt lat="48.77569" lon="-0.40213">
        <ele>241.7</ele>
        <time>2025-05-26T15:42:02.824Z</time>
      </trkpt>
      <trkpt lat="48.77562" lon="-0.40215">
        <ele>241.5</ele>
        <time>2025-05-26T15:42:07.259Z</time>
      </trkpt>
      <trkpt lat="48.77555" lon="-0.40216">
        <ele>241.4</ele>
        <time>2025-05-26T15:42:11.695Z</time>
      </trkpt>
      <trkpt lat="48.7755" lon="-0.40217">
        <ele>241.4</ele>
        <time>2025-05-26T15:42:14.990Z</time>
      </trkpt>
      <trkpt lat="48.77545" lon="-0.40217">
        <ele>241.4</ele>
        <time>2025-05-26T15:42:18.285Z</time>
      </trkpt>
      <trkpt lat="48.7754" lon="-0.40218">
        <ele>241.3</ele>
        <time>2025-05-26T15:42:21.580Z</time>
      </trkpt>
      <trkpt lat="48.77536" lon="-0.40218">
        <ele>241.3</ele>
        <time>2025-05-26T15:42:24.875Z</time>
      </trkpt>
      <trkpt lat="48.77531" lon="-0.40219">
        <ele>241.2</ele>
        <time>2025-05-26T15:42:28.170Z</time>
      </trkpt>
      <trkpt lat="48.77526" lon="-0.40219">
        <ele>241.2</ele>
        <time>2025-05-26T15:42:31.466Z</time>
      </trkpt>
      <trkpt lat="48.77521" lon="-0.4022">
        <ele>241.1</ele>
        <time>2025-05-26T15:42:34.762Z</time>
      </trkpt>
      <trkpt lat="48.77516" lon="-0.40221">
        <ele>241.1</ele>
        <time>2025-05-26T15:42:38.058Z</time>
      </trkpt>
      <trkpt lat="48.77511" lon="-0.40221">
        <ele>241.1</ele>
        <time>2025-05-26T15:42:41.354Z</time>
      </trkpt>
      <trkpt lat="48.77506" lon="-0.40222">
        <ele>241</ele>
        <time>2025-05-26T15:42:44.650Z</time>
      </trkpt>
      <trkpt lat="48.77501" lon="-0.40222">
        <ele>241</ele>
        <time>2025-05-26T15:42:47.946Z</time>
      </trkpt>
      <trkpt lat="48.77497" lon="-0.40223">
        <ele>241</ele>
        <time>2025-05-26T15:42:51.242Z</time>
      </trkpt>
      <trkpt lat="48.77492" lon="-0.40223">
        <ele>241</ele>
        <time>2025-05-26T15:42:54.538Z</time>
      </trkpt>
      <trkpt lat="48.77487" lon="-0.40224">
        <ele>240.9</ele>
        <time>2025-05-26T15:42:57.834Z</time>
      </trkpt>
      <trkpt lat="48.77482" lon="-0.40224">
        <ele>240.9</ele>
        <time>2025-05-26T15:43:01.130Z</time>
      </trkpt>
      <trkpt lat="48.77477" lon="-0.40225">
        <ele>240.9</ele>
        <time>2025-05-26T15:43:04.426Z</time>
      </trkpt>
      <trkpt lat="48.77476" lon="-0.40227">
        <ele>240.8</ele>
        <time>2025-05-26T15:43:05.422Z</time>
        <extensions>
          <visugpx:TrkExtension xmlns:visugpx="https://www.visugpx.com/editgpx/">
            <visugpx:node>18</visugpx:node>
            </visugpx:TrkExtension>
        </extensions>
      </trkpt>
      <trkpt lat="48.77477" lon="-0.40225">
        <ele>240.9</ele>
        <time>2025-05-26T15:43:06.801Z</time>
      </trkpt>
      <trkpt lat="48.7747" lon="-0.40217">
        <ele>241.1</ele>
        <time>2025-05-26T15:43:13.042Z</time>
      </trkpt>
      <trkpt lat="48.77463" lon="-0.40209">
        <ele>241.1</ele>
        <time>2025-05-26T15:43:19.284Z</time>
      </trkpt>
      <trkpt lat="48.77459" lon="-0.40206">
        <ele>241.1</ele>
        <time>2025-05-26T15:43:22.707Z</time>
      </trkpt>
      <trkpt lat="48.77454" lon="-0.40202">
        <ele>241.1</ele>
        <time>2025-05-26T15:43:26.130Z</time>
      </trkpt>
      <trkpt lat="48.7745" lon="-0.40199">
        <ele>241</ele>
        <time>2025-05-26T15:43:29.554Z</time>
      </trkpt>
      <trkpt lat="48.77445" lon="-0.40195">
        <ele>241</ele>
        <time>2025-05-26T15:43:32.979Z</time>
      </trkpt>
      <trkpt lat="48.77437" lon="-0.40191">
        <ele>241.1</ele>
        <time>2025-05-26T15:43:38.986Z</time>
      </trkpt>
      <trkpt lat="48.77432" lon="-0.40184">
        <ele>241.4</ele>
        <time>2025-05-26T15:43:44.565Z</time>
      </trkpt>
      <trkpt lat="48.77426" lon="-0.40177">
        <ele>241.6</ele>
        <time>2025-05-26T15:43:50.144Z</time>
      </trkpt>
      <trkpt lat="48.77421" lon="-0.40169">
        <ele>241.9</ele>
        <time>2025-05-26T15:43:55.723Z</time>
      </trkpt>
      <trkpt lat="48.77415" lon="-0.40162">
        <ele>242.1</ele>
        <time>2025-05-26T15:44:01.303Z</time>
      </trkpt>
      <trkpt lat="48.77413" lon="-0.40152">
        <ele>242.4</ele>
        <time>2025-05-26T15:44:06.950Z</time>
      </trkpt>
      <trkpt lat="48.77411" lon="-0.40141">
        <ele>242.7</ele>
        <time>2025-05-26T15:44:12.599Z</time>
      </trkpt>
      <trkpt lat="48.77411" lon="-0.40128">
        <ele>243.2</ele>
        <time>2025-05-26T15:44:19.569Z</time>
      </trkpt>
      <trkpt lat="48.7741" lon="-0.40115">
        <ele>243.6</ele>
        <time>2025-05-26T15:44:26.539Z</time>
      </trkpt>
      <trkpt lat="48.7741" lon="-0.40102">
        <ele>244.1</ele>
        <time>2025-05-26T15:44:33.509Z</time>
      </trkpt>
      <trkpt lat="48.77409" lon="-0.40089">
        <ele>244.5</ele>
        <time>2025-05-26T15:44:40.480Z</time>
      </trkpt>
      <trkpt lat="48.77409" lon="-0.40082">
        <ele>244.8</ele>
        <time>2025-05-26T15:44:44.427Z</time>
      </trkpt>
      <trkpt lat="48.77409" lon="-0.40075">
        <ele>245</ele>
        <time>2025-05-26T15:44:48.374Z</time>
      </trkpt>
      <trkpt lat="48.77409" lon="-0.40067">
        <ele>245.3</ele>
        <time>2025-05-26T15:44:52.321Z</time>
      </trkpt>
      <trkpt lat="48.77409" lon="-0.4006">
        <ele>245.6</ele>
        <time>2025-05-26T15:44:56.268Z</time>
      </trkpt>
      <trkpt lat="48.77404" lon="-0.40057">
        <ele>245.5</ele>
        <time>2025-05-26T15:45:00.231Z</time>
      </trkpt>
      <trkpt lat="48.77398" lon="-0.40055">
        <ele>245.3</ele>
        <time>2025-05-26T15:45:04.194Z</time>
      </trkpt>
      <trkpt lat="48.77393" lon="-0.40052">
        <ele>245.3</ele>
        <time>2025-05-26T15:45:08.157Z</time>
      </trkpt>
      <trkpt lat="48.77387" lon="-0.4005">
        <ele>245.2</ele>
        <time>2025-05-26T15:45:12.120Z</time>
      </trkpt>
      <trkpt lat="48.77382" lon="-0.40047">
        <ele>245.3</ele>
        <time>2025-05-26T15:45:16.083Z</time>
      </trkpt>
      <trkpt lat="48.77376" lon="-0.40044">
        <ele>245.4</ele>
        <time>2025-05-26T15:45:20.047Z</time>
      </trkpt>
      <trkpt lat="48.77371" lon="-0.40042">
        <ele>245.5</ele>
        <time>2025-05-26T15:45:24.011Z</time>
      </trkpt>
      <trkpt lat="48.77365" lon="-0.40039">
        <ele>245.6</ele>
        <time>2025-05-26T15:45:27.976Z</time>
      </trkpt>
      <trkpt lat="48.77361" lon="-0.40034">
        <ele>245.8</ele>
        <time>2025-05-26T15:45:31.519Z</time>
      </trkpt>
      <trkpt lat="48.77357" lon="-0.40028">
        <ele>245.8</ele>
        <time>2025-05-26T15:45:35.063Z</time>
      </trkpt>
      <trkpt lat="48.77353" lon="-0.40023">
        <ele>245.7</ele>
        <time>2025-05-26T15:45:38.607Z</time>
      </trkpt>
      <trkpt lat="48.77349" lon="-0.40018">
        <ele>245.6</ele>
        <time>2025-05-26T15:45:42.151Z</time>
      </trkpt>
      <trkpt lat="48.77345" lon="-0.40012">
        <ele>245.4</ele>
        <time>2025-05-26T15:45:45.695Z</time>
      </trkpt>
      <trkpt lat="48.77341" lon="-0.40007">
        <ele>245.3</ele>
        <time>2025-05-26T15:45:49.239Z</time>
      </trkpt>
      <trkpt lat="48.77337" lon="-0.40001">
        <ele>245.1</ele>
        <time>2025-05-26T15:45:52.783Z</time>
      </trkpt>
      <trkpt lat="48.77333" lon="-0.39996">
        <ele>245.1</ele>
        <time>2025-05-26T15:45:56.328Z</time>
      </trkpt>
      <trkpt lat="48.77327" lon="-0.3999">
        <ele>245.3</ele>
        <time>2025-05-26T15:46:01.718Z</time>
        <extensions>
          <visugpx:TrkExtension xmlns:visugpx="https://www.visugpx.com/editgpx/">
            <visugpx:node>19</visugpx:node>
            </visugpx:TrkExtension>
        </extensions>
      </trkpt>
      <trkpt lat="48.77323" lon="-0.39986">
        <ele>245.3</ele>
        <time>2025-05-26T15:46:05.011Z</time>
      </trkpt>
      <trkpt lat="48.7733" lon="-0.39979">
        <ele>245.7</ele>
        <time>2025-05-26T15:46:11.347Z</time>
      </trkpt>
      <trkpt lat="48.77338" lon="-0.39973">
        <ele>246</ele>
        <time>2025-05-26T15:46:17.684Z</time>
      </trkpt>
      <trkpt lat="48.77345" lon="-0.39966">
        <ele>246</ele>
        <time>2025-05-26T15:46:24.021Z</time>
      </trkpt>
      <trkpt lat="48.77349" lon="-0.39963">
        <ele>246</ele>
        <time>2025-05-26T15:46:27.189Z</time>
      </trkpt>
      <trkpt lat="48.77353" lon="-0.39959">
        <ele>246</ele>
        <time>2025-05-26T15:46:30.358Z</time>
      </trkpt>
      <trkpt lat="48.7736" lon="-0.39952">
        <ele>246</ele>
        <time>2025-05-26T15:46:36.695Z</time>
      </trkpt>
      <trkpt lat="48.77367" lon="-0.39946">
        <ele>246.2</ele>
        <time>2025-05-26T15:46:43.032Z</time>
      </trkpt>
      <trkpt lat="48.77371" lon="-0.39943">
        <ele>246.4</ele>
        <time>2025-05-26T15:46:46.200Z</time>
      </trkpt>
      <trkpt lat="48.77375" lon="-0.39939">
        <ele>246.5</ele>
        <time>2025-05-26T15:46:49.369Z</time>
      </trkpt>
      <trkpt lat="48.77382" lon="-0.39932">
        <ele>246.8</ele>
        <time>2025-05-26T15:46:55.706Z</time>
      </trkpt>
      <trkpt lat="48.77386" lon="-0.39929">
        <ele>246.9</ele>
        <time>2025-05-26T15:46:58.996Z</time>
      </trkpt>
      <trkpt lat="48.7739" lon="-0.39925">
        <ele>247</ele>
        <time>2025-05-26T15:47:02.593Z</time>
      </trkpt>
      <trkpt lat="48.77395" lon="-0.39921">
        <ele>247</ele>
        <time>2025-05-26T15:47:06.190Z</time>
      </trkpt>
      <trkpt lat="48.77399" lon="-0.39916">
        <ele>247</ele>
        <time>2025-05-26T15:47:09.787Z</time>
      </trkpt>
      <trkpt lat="48.77404" lon="-0.39912">
        <ele>247</ele>
        <time>2025-05-26T15:47:13.385Z</time>
      </trkpt>
      <trkpt lat="48.77408" lon="-0.39908">
        <ele>247</ele>
        <time>2025-05-26T15:47:16.983Z</time>
      </trkpt>
      <trkpt lat="48.77412" lon="-0.39904">
        <ele>247</ele>
        <time>2025-05-26T15:47:20.581Z</time>
      </trkpt>
      <trkpt lat="48.77417" lon="-0.39899">
        <ele>247</ele>
        <time>2025-05-26T15:47:24.179Z</time>
      </trkpt>
      <trkpt lat="48.77421" lon="-0.39895">
        <ele>247</ele>
        <time>2025-05-26T15:47:27.777Z</time>
      </trkpt>
      <trkpt lat="48.77426" lon="-0.39892">
        <ele>247</ele>
        <time>2025-05-26T15:47:31.406Z</time>
      </trkpt>
      <trkpt lat="48.77431" lon="-0.39888">
        <ele>247</ele>
        <time>2025-05-26T15:47:35.036Z</time>
      </trkpt>
      <trkpt lat="48.77435" lon="-0.39885">
        <ele>247</ele>
        <time>2025-05-26T15:47:38.666Z</time>
      </trkpt>
      <trkpt lat="48.7744" lon="-0.39881">
        <ele>247</ele>
        <time>2025-05-26T15:47:42.296Z</time>
      </trkpt>
      <trkpt lat="48.77445" lon="-0.39879">
        <ele>247</ele>
        <time>2025-05-26T15:47:45.964Z</time>
      </trkpt>
      <trkpt lat="48.7745" lon="-0.39877">
        <ele>247.2</ele>
        <time>2025-05-26T15:47:49.632Z</time>
      </trkpt>
      <trkpt lat="48.77454" lon="-0.39875">
        <ele>247.3</ele>
        <time>2025-05-26T15:47:53.301Z</time>
      </trkpt>
      <trkpt lat="48.77459" lon="-0.39873">
        <ele>247.5</ele>
        <time>2025-05-26T15:47:56.970Z</time>
      </trkpt>
      <trkpt lat="48.77464" lon="-0.39868">
        <ele>247.7</ele>
        <time>2025-05-26T15:48:01.117Z</time>
      </trkpt>
      <trkpt lat="48.77469" lon="-0.39863">
        <ele>247.9</ele>
        <time>2025-05-26T15:48:05.264Z</time>
      </trkpt>
      <trkpt lat="48.77473" lon="-0.39857">
        <ele>247.9</ele>
        <time>2025-05-26T15:48:09.412Z</time>
      </trkpt>
      <trkpt lat="48.77478" lon="-0.39852">
        <ele>247.7</ele>
        <time>2025-05-26T15:48:13.560Z</time>
      </trkpt>
      <trkpt lat="48.77482" lon="-0.39847">
        <ele>247.7</ele>
        <time>2025-05-26T15:48:17.085Z</time>
      </trkpt>
      <trkpt lat="48.77485" lon="-0.39842">
        <ele>247.6</ele>
        <time>2025-05-26T15:48:20.610Z</time>
      </trkpt>
      <trkpt lat="48.77489" lon="-0.39836">
        <ele>247.6</ele>
        <time>2025-05-26T15:48:24.135Z</time>
      </trkpt>
      <trkpt lat="48.77493" lon="-0.39831">
        <ele>247.7</ele>
        <time>2025-05-26T15:48:27.660Z</time>
      </trkpt>
      <trkpt lat="48.77496" lon="-0.39826">
        <ele>247.9</ele>
        <time>2025-05-26T15:48:31.186Z</time>
      </trkpt>
      <trkpt lat="48.775" lon="-0.39821">
        <ele>248</ele>
        <time>2025-05-26T15:48:34.712Z</time>
      </trkpt>
      <trkpt lat="48.77503" lon="-0.39815">
        <ele>248</ele>
        <time>2025-05-26T15:48:38.238Z</time>
      </trkpt>
      <trkpt lat="48.77507" lon="-0.3981">
        <ele>248</ele>
        <time>2025-05-26T15:48:41.764Z</time>
      </trkpt>
      <trkpt lat="48.77513" lon="-0.398">
        <ele>248</ele>
        <time>2025-05-26T15:48:47.776Z</time>
      </trkpt>
      <trkpt lat="48.77519" lon="-0.3979">
        <ele>248</ele>
        <time>2025-05-26T15:48:53.788Z</time>
      </trkpt>
      <trkpt lat="48.77524" lon="-0.3978">
        <ele>248</ele>
        <time>2025-05-26T15:48:59.800Z</time>
      </trkpt>
      <trkpt lat="48.7753" lon="-0.3977">
        <ele>248</ele>
        <time>2025-05-26T15:49:05.813Z</time>
      </trkpt>
      <trkpt lat="48.77534" lon="-0.39759">
        <ele>248</ele>
        <time>2025-05-26T15:49:11.551Z</time>
      </trkpt>
      <trkpt lat="48.77537" lon="-0.39747">
        <ele>248</ele>
        <time>2025-05-26T15:49:17.289Z</time>
      </trkpt>
      <trkpt lat="48.77541" lon="-0.39736">
        <ele>248</ele>
        <time>2025-05-26T15:49:23.028Z</time>
      </trkpt>
      <trkpt lat="48.77544" lon="-0.39724">
        <ele>248</ele>
        <time>2025-05-26T15:49:28.767Z</time>
      </trkpt>
      <trkpt lat="48.77548" lon="-0.39716">
        <ele>248</ele>
        <time>2025-05-26T15:49:33.549Z</time>
      </trkpt>
      <trkpt lat="48.77552" lon="-0.39707">
        <ele>248</ele>
        <time>2025-05-26T15:49:38.331Z</time>
      </trkpt>
      <trkpt lat="48.77556" lon="-0.39699">
        <ele>248</ele>
        <time>2025-05-26T15:49:43.113Z</time>
      </trkpt>
      <trkpt lat="48.77561" lon="-0.3969">
        <ele>248</ele>
        <time>2025-05-26T15:49:47.895Z</time>
      </trkpt>
      <trkpt lat="48.77565" lon="-0.39682">
        <ele>248</ele>
        <time>2025-05-26T15:49:52.677Z</time>
      </trkpt>
      <trkpt lat="48.77569" lon="-0.39673">
        <ele>248</ele>
        <time>2025-05-26T15:49:57.459Z</time>
      </trkpt>
      <trkpt lat="48.77573" lon="-0.39665">
        <ele>248</ele>
        <time>2025-05-26T15:50:02.241Z</time>
      </trkpt>
      <trkpt lat="48.77577" lon="-0.39656">
        <ele>248</ele>
        <time>2025-05-26T15:50:07.024Z</time>
      </trkpt>
      <trkpt lat="48.77581" lon="-0.39652">
        <ele>248</ele>
        <time>2025-05-26T15:50:10.420Z</time>
      </trkpt>
      <trkpt lat="48.77585" lon="-0.39648">
        <ele>248</ele>
        <time>2025-05-26T15:50:13.816Z</time>
      </trkpt>
      <trkpt lat="48.77589" lon="-0.39644">
        <ele>248</ele>
        <time>2025-05-26T15:50:17.212Z</time>
      </trkpt>
      <trkpt lat="48.77594" lon="-0.3964">
        <ele>248</ele>
        <time>2025-05-26T15:50:20.608Z</time>
      </trkpt>
      <trkpt lat="48.77598" lon="-0.39635">
        <ele>248</ele>
        <time>2025-05-26T15:50:24.004Z</time>
      </trkpt>
      <trkpt lat="48.77602" lon="-0.39631">
        <ele>248</ele>
        <time>2025-05-26T15:50:27.400Z</time>
      </trkpt>
      <trkpt lat="48.77606" lon="-0.39627">
        <ele>248</ele>
        <time>2025-05-26T15:50:30.796Z</time>
      </trkpt>
      <trkpt lat="48.7761" lon="-0.39623">
        <ele>248</ele>
        <time>2025-05-26T15:50:34.193Z</time>
      </trkpt>
      <trkpt lat="48.77615" lon="-0.39615">
        <ele>248</ele>
        <time>2025-05-26T15:50:38.983Z</time>
      </trkpt>
      <trkpt lat="48.77621" lon="-0.39608">
        <ele>247.9</ele>
        <time>2025-05-26T15:50:43.773Z</time>
      </trkpt>
      <trkpt lat="48.77626" lon="-0.396">
        <ele>247.8</ele>
        <time>2025-05-26T15:50:48.563Z</time>
      </trkpt>
      <trkpt lat="48.77631" lon="-0.39593">
        <ele>247.8</ele>
        <time>2025-05-26T15:50:53.353Z</time>
      </trkpt>
      <trkpt lat="48.77636" lon="-0.39585">
        <ele>247.9</ele>
        <time>2025-05-26T15:50:58.143Z</time>
      </trkpt>
      <trkpt lat="48.77642" lon="-0.39577">
        <ele>247.8</ele>
        <time>2025-05-26T15:51:02.933Z</time>
      </trkpt>
      <trkpt lat="48.77647" lon="-0.3957">
        <ele>247.5</ele>
        <time>2025-05-26T15:51:07.724Z</time>
      </trkpt>
      <trkpt lat="48.77652" lon="-0.39562">
        <ele>247.2</ele>
        <time>2025-05-26T15:51:12.515Z</time>
        <extensions>
          <visugpx:TrkExtension xmlns:visugpx="https://www.visugpx.com/editgpx/">
            <visugpx:node>20</visugpx:node>
            </visugpx:TrkExtension>
        </extensions>
      </trkpt>
      <trkpt lat="48.77656" lon="-0.39555">
        <ele>247</ele>
        <time>2025-05-26T15:51:16.317Z</time>
      </trkpt>
      <trkpt lat="48.77659" lon="-0.39546">
        <ele>247</ele>
        <time>2025-05-26T15:51:21.065Z</time>
      </trkpt>
      <trkpt lat="48.77663" lon="-0.39537">
        <ele>247</ele>
        <time>2025-05-26T15:51:25.814Z</time>
      </trkpt>
      <trkpt lat="48.77666" lon="-0.39527">
        <ele>247</ele>
        <time>2025-05-26T15:51:30.563Z</time>
      </trkpt>
      <trkpt lat="48.77669" lon="-0.39518">
        <ele>247</ele>
        <time>2025-05-26T15:51:35.312Z</time>
      </trkpt>
      <trkpt lat="48.77671" lon="-0.39512">
        <ele>247</ele>
        <time>2025-05-26T15:51:38.493Z</time>
      </trkpt>
      <trkpt lat="48.77673" lon="-0.39505">
        <ele>247</ele>
        <time>2025-05-26T15:51:41.674Z</time>
      </trkpt>
      <trkpt lat="48.77674" lon="-0.39499">
        <ele>247</ele>
        <time>2025-05-26T15:51:44.855Z</time>
      </trkpt>
      <trkpt lat="48.77676" lon="-0.39492">
        <ele>247</ele>
        <time>2025-05-26T15:51:48.036Z</time>
      </trkpt>
      <trkpt lat="48.77677" lon="-0.39484">
        <ele>247</ele>
        <time>2025-05-26T15:51:51.981Z</time>
      </trkpt>
      <trkpt lat="48.77679" lon="-0.39475">
        <ele>247</ele>
        <time>2025-05-26T15:51:55.926Z</time>
      </trkpt>
      <trkpt lat="48.7768" lon="-0.39467">
        <ele>247</ele>
        <time>2025-05-26T15:51:59.871Z</time>
      </trkpt>
      <trkpt lat="48.77681" lon="-0.39458">
        <ele>247</ele>
        <time>2025-05-26T15:52:03.817Z</time>
      </trkpt>
      <trkpt lat="48.77682" lon="-0.3945">
        <ele>247</ele>
        <time>2025-05-26T15:52:07.262Z</time>
      </trkpt>
      <trkpt lat="48.77683" lon="-0.39443">
        <ele>247</ele>
        <time>2025-05-26T15:52:10.707Z</time>
      </trkpt>
      <trkpt lat="48.77683" lon="-0.39435">
        <ele>246.9</ele>
        <time>2025-05-26T15:52:14.152Z</time>
      </trkpt>
      <trkpt lat="48.77684" lon="-0.39427">
        <ele>246.8</ele>
        <time>2025-05-26T15:52:17.597Z</time>
      </trkpt>
      <trkpt lat="48.77684" lon="-0.39418">
        <ele>246.6</ele>
        <time>2025-05-26T15:52:21.279Z</time>
      </trkpt>
      <trkpt lat="48.77684" lon="-0.39409">
        <ele>246.5</ele>
        <time>2025-05-26T15:52:24.962Z</time>
      </trkpt>
      <trkpt lat="48.77684" lon="-0.394">
        <ele>246.2</ele>
        <time>2025-05-26T15:52:28.645Z</time>
      </trkpt>
      <trkpt lat="48.77684" lon="-0.39391">
        <ele>246</ele>
        <time>2025-05-26T15:52:32.328Z</time>
      </trkpt>
      <trkpt lat="48.77687" lon="-0.39379">
        <ele>246</ele>
        <time>2025-05-26T15:52:38.029Z</time>
      </trkpt>
      <trkpt lat="48.77689" lon="-0.39367">
        <ele>246</ele>
        <time>2025-05-26T15:52:43.730Z</time>
      </trkpt>
      <trkpt lat="48.77692" lon="-0.39355">
        <ele>246</ele>
        <time>2025-05-26T15:52:49.432Z</time>
      </trkpt>
      <trkpt lat="48.77694" lon="-0.39343">
        <ele>246</ele>
        <time>2025-05-26T15:52:55.134Z</time>
      </trkpt>
      <trkpt lat="48.77695" lon="-0.39335">
        <ele>246</ele>
        <time>2025-05-26T15:52:58.917Z</time>
      </trkpt>
      <trkpt lat="48.77696" lon="-0.39326">
        <ele>246</ele>
        <time>2025-05-26T15:53:02.700Z</time>
      </trkpt>
      <trkpt lat="48.77697" lon="-0.39318">
        <ele>246</ele>
        <time>2025-05-26T15:53:06.483Z</time>
      </trkpt>
      <trkpt lat="48.77698" lon="-0.3931">
        <ele>246</ele>
        <time>2025-05-26T15:53:10.266Z</time>
      </trkpt>
      <trkpt lat="48.77699" lon="-0.39301">
        <ele>245.9</ele>
        <time>2025-05-26T15:53:14.049Z</time>
      </trkpt>
      <trkpt lat="48.777" lon="-0.39293">
        <ele>245.6</ele>
        <time>2025-05-26T15:53:17.832Z</time>
      </trkpt>
      <trkpt lat="48.77701" lon="-0.39285">
        <ele>245.4</ele>
        <time>2025-05-26T15:53:21.615Z</time>
      </trkpt>
      <trkpt lat="48.77703" lon="-0.39277">
        <ele>245.3</ele>
        <time>2025-05-26T15:53:25.398Z</time>
      </trkpt>
      <trkpt lat="48.77704" lon="-0.39268">
        <ele>245.3</ele>
        <time>2025-05-26T15:53:29.181Z</time>
      </trkpt>
      <trkpt lat="48.77705" lon="-0.3926">
        <ele>245.4</ele>
        <time>2025-05-26T15:53:32.965Z</time>
      </trkpt>
      <trkpt lat="48.77706" lon="-0.39252">
        <ele>245.4</ele>
        <time>2025-05-26T15:53:36.749Z</time>
      </trkpt>
      <trkpt lat="48.77707" lon="-0.39243">
        <ele>245.5</ele>
        <time>2025-05-26T15:53:40.533Z</time>
      </trkpt>
      <trkpt lat="48.77708" lon="-0.39235">
        <ele>245.5</ele>
        <time>2025-05-26T15:53:44.317Z</time>
      </trkpt>
      <trkpt lat="48.77709" lon="-0.39227">
        <ele>245.5</ele>
        <time>2025-05-26T15:53:48.101Z</time>
      </trkpt>
      <trkpt lat="48.7771" lon="-0.39218">
        <ele>245.6</ele>
        <time>2025-05-26T15:53:51.885Z</time>
      </trkpt>
      <trkpt lat="48.77711" lon="-0.3921">
        <ele>245.6</ele>
        <time>2025-05-26T15:53:55.669Z</time>
      </trkpt>
      <trkpt lat="48.77714" lon="-0.39198">
        <ele>245.7</ele>
        <time>2025-05-26T15:54:01.776Z</time>
      </trkpt>
      <trkpt lat="48.77716" lon="-0.39185">
        <ele>245.8</ele>
        <time>2025-05-26T15:54:07.883Z</time>
      </trkpt>
      <trkpt lat="48.77719" lon="-0.39173">
        <ele>245.9</ele>
        <time>2025-05-26T15:54:13.990Z</time>
      </trkpt>
      <trkpt lat="48.77721" lon="-0.3916">
        <ele>246</ele>
        <time>2025-05-26T15:54:20.097Z</time>
      </trkpt>
      <trkpt lat="48.77724" lon="-0.39148">
        <ele>246.1</ele>
        <time>2025-05-26T15:54:26.204Z</time>
      </trkpt>
      <trkpt lat="48.77726" lon="-0.39135">
        <ele>246.1</ele>
        <time>2025-05-26T15:54:32.311Z</time>
      </trkpt>
      <trkpt lat="48.77729" lon="-0.39123">
        <ele>246.2</ele>
        <time>2025-05-26T15:54:38.418Z</time>
      </trkpt>
      <trkpt lat="48.77731" lon="-0.3911">
        <ele>246.3</ele>
        <time>2025-05-26T15:54:44.525Z</time>
      </trkpt>
      <trkpt lat="48.77735" lon="-0.39099">
        <ele>246.3</ele>
        <time>2025-05-26T15:54:50.209Z</time>
      </trkpt>
      <trkpt lat="48.77739" lon="-0.39087">
        <ele>246.1</ele>
        <time>2025-05-26T15:54:55.894Z</time>
      </trkpt>
      <trkpt lat="48.77746" lon="-0.39079">
        <ele>246</ele>
        <time>2025-05-26T15:55:01.647Z</time>
      </trkpt>
      <trkpt lat="48.77752" lon="-0.39071">
        <ele>246.1</ele>
        <time>2025-05-26T15:55:07.400Z</time>
      </trkpt>
      <trkpt lat="48.77756" lon="-0.39063">
        <ele>246.2</ele>
        <time>2025-05-26T15:55:12.338Z</time>
      </trkpt>
      <trkpt lat="48.7776" lon="-0.39055">
        <ele>246.4</ele>
        <time>2025-05-26T15:55:17.276Z</time>
      </trkpt>
      <trkpt lat="48.77764" lon="-0.39046">
        <ele>246.5</ele>
        <time>2025-05-26T15:55:22.214Z</time>
      </trkpt>
      <trkpt lat="48.77769" lon="-0.39038">
        <ele>246.7</ele>
        <time>2025-05-26T15:55:27.152Z</time>
      </trkpt>
      <trkpt lat="48.77773" lon="-0.3903">
        <ele>246.8</ele>
        <time>2025-05-26T15:55:32.090Z</time>
      </trkpt>
      <trkpt lat="48.77777" lon="-0.39022">
        <ele>247</ele>
        <time>2025-05-26T15:55:37.028Z</time>
      </trkpt>
      <trkpt lat="48.77781" lon="-0.39013">
        <ele>247</ele>
        <time>2025-05-26T15:55:41.966Z</time>
      </trkpt>
      <trkpt lat="48.77785" lon="-0.39005">
        <ele>247</ele>
        <time>2025-05-26T15:55:46.905Z</time>
      </trkpt>
      <trkpt lat="48.77788" lon="-0.38999">
        <ele>247</ele>
        <time>2025-05-26T15:55:50.081Z</time>
      </trkpt>
      <trkpt lat="48.77791" lon="-0.38994">
        <ele>247</ele>
        <time>2025-05-26T15:55:53.257Z</time>
      </trkpt>
      <trkpt lat="48.77793" lon="-0.38988">
        <ele>247</ele>
        <time>2025-05-26T15:55:56.433Z</time>
      </trkpt>
      <trkpt lat="48.77796" lon="-0.38983">
        <ele>247</ele>
        <time>2025-05-26T15:55:59.609Z</time>
      </trkpt>
      <trkpt lat="48.77799" lon="-0.38977">
        <ele>247</ele>
        <time>2025-05-26T15:56:02.785Z</time>
      </trkpt>
      <trkpt lat="48.77802" lon="-0.38972">
        <ele>247</ele>
        <time>2025-05-26T15:56:05.961Z</time>
      </trkpt>
      <trkpt lat="48.77805" lon="-0.38966">
        <ele>247</ele>
        <time>2025-05-26T15:56:09.137Z</time>
      </trkpt>
      <trkpt lat="48.77808" lon="-0.38961">
        <ele>247</ele>
        <time>2025-05-26T15:56:12.313Z</time>
      </trkpt>
      <trkpt lat="48.7781" lon="-0.38955">
        <ele>247</ele>
        <time>2025-05-26T15:56:15.489Z</time>
      </trkpt>
      <trkpt lat="48.77813" lon="-0.38949">
        <ele>247</ele>
        <time>2025-05-26T15:56:18.665Z</time>
      </trkpt>
      <trkpt lat="48.77816" lon="-0.38944">
        <ele>247</ele>
        <time>2025-05-26T15:56:21.841Z</time>
      </trkpt>
      <trkpt lat="48.77819" lon="-0.38938">
        <ele>247</ele>
        <time>2025-05-26T15:56:25.017Z</time>
      </trkpt>
      <trkpt lat="48.77822" lon="-0.38933">
        <ele>247</ele>
        <time>2025-05-26T15:56:28.193Z</time>
      </trkpt>
      <trkpt lat="48.77824" lon="-0.38927">
        <ele>247</ele>
        <time>2025-05-26T15:56:31.369Z</time>
      </trkpt>
      <trkpt lat="48.77827" lon="-0.38922">
        <ele>247</ele>
        <time>2025-05-26T15:56:34.546Z</time>
      </trkpt>
      <trkpt lat="48.7783" lon="-0.38916">
        <ele>247</ele>
        <time>2025-05-26T15:56:37.723Z</time>
      </trkpt>
      <trkpt lat="48.77832" lon="-0.38908">
        <ele>247</ele>
        <time>2025-05-26T15:56:41.599Z</time>
        <extensions>
          <visugpx:TrkExtension xmlns:visugpx="https://www.visugpx.com/editgpx/">
            <visugpx:node>21</visugpx:node>
            </visugpx:TrkExtension>
        </extensions>
      </trkpt>
      <trkpt lat="48.77834" lon="-0.38902">
        <ele>247</ele>
        <time>2025-05-26T15:56:44.745Z</time>
      </trkpt>
      <trkpt lat="48.77836" lon="-0.38895">
        <ele>246.9</ele>
        <time>2025-05-26T15:56:47.891Z</time>
      </trkpt>
      <trkpt lat="48.77839" lon="-0.38888">
        <ele>246.8</ele>
        <time>2025-05-26T15:56:51.484Z</time>
      </trkpt>
      <trkpt lat="48.77841" lon="-0.3888">
        <ele>246.7</ele>
        <time>2025-05-26T15:56:55.077Z</time>
      </trkpt>
      <trkpt lat="48.77844" lon="-0.38873">
        <ele>246.6</ele>
        <time>2025-05-26T15:56:58.670Z</time>
      </trkpt>
      <trkpt lat="48.77847" lon="-0.38866">
        <ele>246.5</ele>
        <time>2025-05-26T15:57:02.263Z</time>
      </trkpt>
      <trkpt lat="48.77849" lon="-0.38858">
        <ele>246.4</ele>
        <time>2025-05-26T15:57:05.857Z</time>
      </trkpt>
      <trkpt lat="48.77852" lon="-0.38851">
        <ele>246.3</ele>
        <time>2025-05-26T15:57:09.451Z</time>
      </trkpt>
      <trkpt lat="48.77854" lon="-0.38843">
        <ele>246.3</ele>
        <time>2025-05-26T15:57:13.045Z</time>
      </trkpt>
      <trkpt lat="48.77857" lon="-0.38836">
        <ele>246.1</ele>
        <time>2025-05-26T15:57:16.639Z</time>
      </trkpt>
      <trkpt lat="48.77862" lon="-0.38826">
        <ele>246</ele>
        <time>2025-05-26T15:57:21.931Z</time>
      </trkpt>
      <trkpt lat="48.77867" lon="-0.38816">
        <ele>245.9</ele>
        <time>2025-05-26T15:57:27.223Z</time>
      </trkpt>
      <trkpt lat="48.77872" lon="-0.38805">
        <ele>245.6</ele>
        <time>2025-05-26T15:57:32.515Z</time>
      </trkpt>
      <trkpt lat="48.77877" lon="-0.38795">
        <ele>245.4</ele>
        <time>2025-05-26T15:57:37.807Z</time>
      </trkpt>
      <trkpt lat="48.77882" lon="-0.38785">
        <ele>245.2</ele>
        <time>2025-05-26T15:57:43.100Z</time>
      </trkpt>
      <trkpt lat="48.77887" lon="-0.38775">
        <ele>245.1</ele>
        <time>2025-05-26T15:57:48.393Z</time>
      </trkpt>
      <trkpt lat="48.77892" lon="-0.38765">
        <ele>245</ele>
        <time>2025-05-26T15:57:53.686Z</time>
      </trkpt>
      <trkpt lat="48.77897" lon="-0.38755">
        <ele>245</ele>
        <time>2025-05-26T15:57:58.979Z</time>
      </trkpt>
      <trkpt lat="48.77902" lon="-0.38744">
        <ele>244.9</ele>
        <time>2025-05-26T15:58:04.272Z</time>
      </trkpt>
      <trkpt lat="48.77907" lon="-0.38734">
        <ele>244.6</ele>
        <time>2025-05-26T15:58:09.565Z</time>
      </trkpt>
      <trkpt lat="48.77912" lon="-0.38724">
        <ele>244.2</ele>
        <time>2025-05-26T15:58:14.858Z</time>
      </trkpt>
      <trkpt lat="48.77917" lon="-0.38714">
        <ele>243.7</ele>
        <time>2025-05-26T15:58:20.151Z</time>
      </trkpt>
      <trkpt lat="48.77922" lon="-0.38704">
        <ele>243.3</ele>
        <time>2025-05-26T15:58:25.444Z</time>
      </trkpt>
      <trkpt lat="48.77927" lon="-0.38693">
        <ele>243</ele>
        <time>2025-05-26T15:58:30.737Z</time>
      </trkpt>
      <trkpt lat="48.77932" lon="-0.38683">
        <ele>242.8</ele>
        <time>2025-05-26T15:58:36.030Z</time>
      </trkpt>
      <trkpt lat="48.77937" lon="-0.38673">
        <ele>242.4</ele>
        <time>2025-05-26T15:58:41.323Z</time>
      </trkpt>
      <trkpt lat="48.77942" lon="-0.38663">
        <ele>242</ele>
        <time>2025-05-26T15:58:46.213Z</time>
      </trkpt>
      <trkpt lat="48.77947" lon="-0.38653">
        <ele>241.5</ele>
        <time>2025-05-26T15:58:51.103Z</time>
      </trkpt>
      <trkpt lat="48.77952" lon="-0.38643">
        <ele>241.1</ele>
        <time>2025-05-26T15:58:55.993Z</time>
      </trkpt>
      <trkpt lat="48.77957" lon="-0.38634">
        <ele>240.8</ele>
        <time>2025-05-26T15:59:00.883Z</time>
      </trkpt>
      <trkpt lat="48.77961" lon="-0.38624">
        <ele>240.5</ele>
        <time>2025-05-26T15:59:05.773Z</time>
      </trkpt>
      <trkpt lat="48.77966" lon="-0.38614">
        <ele>240.1</ele>
        <time>2025-05-26T15:59:10.664Z</time>
      </trkpt>
      <trkpt lat="48.77971" lon="-0.38604">
        <ele>239.5</ele>
        <time>2025-05-26T15:59:15.555Z</time>
      </trkpt>
      <trkpt lat="48.77976" lon="-0.38594">
        <ele>238.6</ele>
        <time>2025-05-26T15:59:20.446Z</time>
      </trkpt>
      <trkpt lat="48.77981" lon="-0.38584">
        <ele>237.7</ele>
        <time>2025-05-26T15:59:25.337Z</time>
      </trkpt>
      <trkpt lat="48.77986" lon="-0.38574">
        <ele>236.8</ele>
        <time>2025-05-26T15:59:30.228Z</time>
      </trkpt>
      <trkpt lat="48.77991" lon="-0.38564">
        <ele>235.9</ele>
        <time>2025-05-26T15:59:35.119Z</time>
      </trkpt>
      <trkpt lat="48.77996" lon="-0.38555">
        <ele>235.1</ele>
        <time>2025-05-26T15:59:40.010Z</time>
      </trkpt>
      <trkpt lat="48.78" lon="-0.38545">
        <ele>234.6</ele>
        <time>2025-05-26T15:59:44.901Z</time>
      </trkpt>
      <trkpt lat="48.78005" lon="-0.38535">
        <ele>234.1</ele>
        <time>2025-05-26T15:59:49.792Z</time>
      </trkpt>
      <trkpt lat="48.7801" lon="-0.38525">
        <ele>233.3</ele>
        <time>2025-05-26T15:59:54.683Z</time>
      </trkpt>
      <trkpt lat="48.78015" lon="-0.38515">
        <ele>232.1</ele>
        <time>2025-05-26T15:59:59.574Z</time>
      </trkpt>
      <trkpt lat="48.78019" lon="-0.38513">
        <ele>231.7</ele>
        <time>2025-05-26T16:00:02.281Z</time>
      </trkpt>
      <trkpt lat="48.78024" lon="-0.38511">
        <ele>231.3</ele>
        <time>2025-05-26T16:00:04.988Z</time>
      </trkpt>
      <trkpt lat="48.78028" lon="-0.38508">
        <ele>230.9</ele>
        <time>2025-05-26T16:00:07.696Z</time>
      </trkpt>
      <trkpt lat="48.78032" lon="-0.38506">
        <ele>230.6</ele>
        <time>2025-05-26T16:00:10.404Z</time>
      </trkpt>
      <trkpt lat="48.7804" lon="-0.38503">
        <ele>230.2</ele>
        <time>2025-05-26T16:00:15.109Z</time>
      </trkpt>
      <trkpt lat="48.78047" lon="-0.38499">
        <ele>229.9</ele>
        <time>2025-05-26T16:00:19.814Z</time>
      </trkpt>
      <trkpt lat="48.78055" lon="-0.38496">
        <ele>229.6</ele>
        <time>2025-05-26T16:00:24.519Z</time>
      </trkpt>
      <trkpt lat="48.78062" lon="-0.38493">
        <ele>228.8</ele>
        <time>2025-05-26T16:00:29.224Z</time>
      </trkpt>
      <trkpt lat="48.7807" lon="-0.38489">
        <ele>228</ele>
        <time>2025-05-26T16:00:33.929Z</time>
      </trkpt>
      <trkpt lat="48.78077" lon="-0.38486">
        <ele>227.3</ele>
        <time>2025-05-26T16:00:38.635Z</time>
      </trkpt>
      <trkpt lat="48.78085" lon="-0.38482">
        <ele>226.6</ele>
        <time>2025-05-26T16:00:43.341Z</time>
      </trkpt>
      <trkpt lat="48.78092" lon="-0.38479">
        <ele>226.2</ele>
        <time>2025-05-26T16:00:48.047Z</time>
      </trkpt>
      <trkpt lat="48.78092" lon="-0.38476">
        <ele>226</ele>
        <time>2025-05-26T16:00:49.237Z</time>
        <extensions>
          <visugpx:TrkExtension xmlns:visugpx="https://www.visugpx.com/editgpx/">
            <visugpx:node>22</visugpx:node>
            </visugpx:TrkExtension>
        </extensions>
      </trkpt>
      <trkpt lat="48.78093" lon="-0.38469">
        <ele>225.4</ele>
        <time>2025-05-26T16:00:52.027Z</time>
      </trkpt>
      <trkpt lat="48.78093" lon="-0.38462">
        <ele>224.9</ele>
        <time>2025-05-26T16:00:54.818Z</time>
      </trkpt>
      <trkpt lat="48.78094" lon="-0.38455">
        <ele>224.4</ele>
        <time>2025-05-26T16:00:57.609Z</time>
      </trkpt>
      <trkpt lat="48.78094" lon="-0.38448">
        <ele>223.9</ele>
        <time>2025-05-26T16:01:00.400Z</time>
      </trkpt>
      <trkpt lat="48.78095" lon="-0.38438">
        <ele>223.1</ele>
        <time>2025-05-26T16:01:04.604Z</time>
      </trkpt>
      <trkpt lat="48.78096" lon="-0.38427">
        <ele>222.3</ele>
        <time>2025-05-26T16:01:08.809Z</time>
      </trkpt>
      <trkpt lat="48.78097" lon="-0.38417">
        <ele>221.5</ele>
        <time>2025-05-26T16:01:13.014Z</time>
      </trkpt>
      <trkpt lat="48.78098" lon="-0.38406">
        <ele>220.9</ele>
        <time>2025-05-26T16:01:17.219Z</time>
      </trkpt>
      <trkpt lat="48.781" lon="-0.38397">
        <ele>220.4</ele>
        <time>2025-05-26T16:01:21.078Z</time>
      </trkpt>
      <trkpt lat="48.78102" lon="-0.38387">
        <ele>219.9</ele>
        <time>2025-05-26T16:01:24.937Z</time>
      </trkpt>
      <trkpt lat="48.78104" lon="-0.38378">
        <ele>219.5</ele>
        <time>2025-05-26T16:01:28.796Z</time>
      </trkpt>
      <trkpt lat="48.78106" lon="-0.38369">
        <ele>219.2</ele>
        <time>2025-05-26T16:01:32.655Z</time>
      </trkpt>
      <trkpt lat="48.78107" lon="-0.38359">
        <ele>218.8</ele>
        <time>2025-05-26T16:01:36.514Z</time>
      </trkpt>
      <trkpt lat="48.78109" lon="-0.3835">
        <ele>218.5</ele>
        <time>2025-05-26T16:01:40.373Z</time>
      </trkpt>
      <trkpt lat="48.78111" lon="-0.38341">
        <ele>218.3</ele>
        <time>2025-05-26T16:01:44.232Z</time>
      </trkpt>
      <trkpt lat="48.78113" lon="-0.38332">
        <ele>217.8</ele>
        <time>2025-05-26T16:01:48.092Z</time>
      </trkpt>
      <trkpt lat="48.78115" lon="-0.38322">
        <ele>217</ele>
        <time>2025-05-26T16:01:51.952Z</time>
      </trkpt>
      <trkpt lat="48.78117" lon="-0.38313">
        <ele>216.3</ele>
        <time>2025-05-26T16:01:55.812Z</time>
      </trkpt>
      <trkpt lat="48.78119" lon="-0.38304">
        <ele>215.7</ele>
        <time>2025-05-26T16:01:59.672Z</time>
      </trkpt>
      <trkpt lat="48.78121" lon="-0.38294">
        <ele>215.2</ele>
        <time>2025-05-26T16:02:03.532Z</time>
      </trkpt>
      <trkpt lat="48.78122" lon="-0.38285">
        <ele>214.9</ele>
        <time>2025-05-26T16:02:07.392Z</time>
      </trkpt>
      <trkpt lat="48.78124" lon="-0.38276">
        <ele>214.5</ele>
        <time>2025-05-26T16:02:11.252Z</time>
      </trkpt>
      <trkpt lat="48.78126" lon="-0.38266">
        <ele>214</ele>
        <time>2025-05-26T16:02:15.112Z</time>
      </trkpt>
      <trkpt lat="48.78128" lon="-0.38257">
        <ele>213.6</ele>
        <time>2025-05-26T16:02:18.972Z</time>
      </trkpt>
      <trkpt lat="48.78129" lon="-0.38248">
        <ele>213.3</ele>
        <time>2025-05-26T16:02:22.726Z</time>
      </trkpt>
      <trkpt lat="48.78131" lon="-0.3824">
        <ele>213.2</ele>
        <time>2025-05-26T16:02:26.481Z</time>
      </trkpt>
      <trkpt lat="48.78132" lon="-0.38231">
        <ele>213.1</ele>
        <time>2025-05-26T16:02:30.236Z</time>
      </trkpt>
      <trkpt lat="48.78133" lon="-0.38222">
        <ele>213</ele>
        <time>2025-05-26T16:02:33.991Z</time>
      </trkpt>
      <trkpt lat="48.78134" lon="-0.3821">
        <ele>212.6</ele>
        <time>2025-05-26T16:02:38.677Z</time>
      </trkpt>
      <trkpt lat="48.78135" lon="-0.38199">
        <ele>212.2</ele>
        <time>2025-05-26T16:02:43.363Z</time>
      </trkpt>
      <trkpt lat="48.78136" lon="-0.38187">
        <ele>211.7</ele>
        <time>2025-05-26T16:02:48.050Z</time>
      </trkpt>
      <trkpt lat="48.78137" lon="-0.38175">
        <ele>211.3</ele>
        <time>2025-05-26T16:02:52.737Z</time>
      </trkpt>
      <trkpt lat="48.78137" lon="-0.38163">
        <ele>210.9</ele>
        <time>2025-05-26T16:02:57.424Z</time>
      </trkpt>
      <trkpt lat="48.78138" lon="-0.38152">
        <ele>210.5</ele>
        <time>2025-05-26T16:03:02.111Z</time>
      </trkpt>
      <trkpt lat="48.78139" lon="-0.3814">
        <ele>210</ele>
        <time>2025-05-26T16:03:06.798Z</time>
      </trkpt>
      <trkpt lat="48.7814" lon="-0.38128">
        <ele>209.6</ele>
        <time>2025-05-26T16:03:11.485Z</time>
      </trkpt>
      <trkpt lat="48.7814" lon="-0.38121">
        <ele>209.4</ele>
        <time>2025-05-26T16:03:14.367Z</time>
      </trkpt>
      <trkpt lat="48.78141" lon="-0.38114">
        <ele>209.1</ele>
        <time>2025-05-26T16:03:17.249Z</time>
      </trkpt>
      <trkpt lat="48.78141" lon="-0.38106">
        <ele>208.8</ele>
        <time>2025-05-26T16:03:20.131Z</time>
      </trkpt>
      <trkpt lat="48.78142" lon="-0.38099">
        <ele>208.6</ele>
        <time>2025-05-26T16:03:23.013Z</time>
      </trkpt>
      <trkpt lat="48.78142" lon="-0.38092">
        <ele>208.3</ele>
        <time>2025-05-26T16:03:25.895Z</time>
      </trkpt>
      <trkpt lat="48.78142" lon="-0.38085">
        <ele>208.1</ele>
        <time>2025-05-26T16:03:28.778Z</time>
      </trkpt>
      <trkpt lat="48.78143" lon="-0.38077">
        <ele>207.8</ele>
        <time>2025-05-26T16:03:31.661Z</time>
      </trkpt>
      <trkpt lat="48.78143" lon="-0.3807">
        <ele>207.6</ele>
        <time>2025-05-26T16:03:34.544Z</time>
      </trkpt>
      <trkpt lat="48.78147" lon="-0.38058">
        <ele>207.4</ele>
        <time>2025-05-26T16:03:40.233Z</time>
      </trkpt>
      <trkpt lat="48.78149" lon="-0.38051">
        <ele>207.4</ele>
        <time>2025-05-26T16:03:43.767Z</time>
      </trkpt>
      <trkpt lat="48.78152" lon="-0.38045">
        <ele>207.5</ele>
        <time>2025-05-26T16:03:47.301Z</time>
      </trkpt>
      <trkpt lat="48.78154" lon="-0.38038">
        <ele>207.5</ele>
        <time>2025-05-26T16:03:50.836Z</time>
      </trkpt>
      <trkpt lat="48.78156" lon="-0.38031">
        <ele>207.6</ele>
        <time>2025-05-26T16:03:54.371Z</time>
      </trkpt>
      <trkpt lat="48.78154" lon="-0.38027">
        <ele>207.5</ele>
        <time>2025-05-26T16:03:56.447Z</time>
        <extensions>
          <visugpx:TrkExtension xmlns:visugpx="https://www.visugpx.com/editgpx/">
            <visugpx:node>23</visugpx:node>
            </visugpx:TrkExtension>
        </extensions>
      </trkpt>
      <trkpt lat="48.7815" lon="-0.38019">
        <ele>207.1</ele>
        <time>2025-05-26T16:04:00.586Z</time>
      </trkpt>
      <trkpt lat="48.78146" lon="-0.3801">
        <ele>206.6</ele>
        <time>2025-05-26T16:04:04.725Z</time>
      </trkpt>
      <trkpt lat="48.78142" lon="-0.38002">
        <ele>206.2</ele>
        <time>2025-05-26T16:04:08.865Z</time>
      </trkpt>
      <trkpt lat="48.78138" lon="-0.37993">
        <ele>205.7</ele>
        <time>2025-05-26T16:04:13.005Z</time>
      </trkpt>
      <trkpt lat="48.78134" lon="-0.37985">
        <ele>205.5</ele>
        <time>2025-05-26T16:04:17.145Z</time>
      </trkpt>
      <trkpt lat="48.7813" lon="-0.37976">
        <ele>205.4</ele>
        <time>2025-05-26T16:04:21.285Z</time>
      </trkpt>
      <trkpt lat="48.78126" lon="-0.37968">
        <ele>205.3</ele>
        <time>2025-05-26T16:04:25.425Z</time>
      </trkpt>
      <trkpt lat="48.78122" lon="-0.37959">
        <ele>205</ele>
        <time>2025-05-26T16:04:29.565Z</time>
      </trkpt>
      <trkpt lat="48.78118" lon="-0.37951">
        <ele>204.6</ele>
        <time>2025-05-26T16:04:33.705Z</time>
      </trkpt>
      <trkpt lat="48.78114" lon="-0.37942">
        <ele>204</ele>
        <time>2025-05-26T16:04:37.845Z</time>
      </trkpt>
      <trkpt lat="48.7811" lon="-0.37934">
        <ele>203.6</ele>
        <time>2025-05-26T16:04:41.985Z</time>
      </trkpt>
      <trkpt lat="48.78106" lon="-0.37925">
        <ele>203.1</ele>
        <time>2025-05-26T16:04:46.125Z</time>
      </trkpt>
      <trkpt lat="48.78102" lon="-0.37917">
        <ele>202.7</ele>
        <time>2025-05-26T16:04:50.265Z</time>
      </trkpt>
      <trkpt lat="48.78098" lon="-0.37908">
        <ele>202.4</ele>
        <time>2025-05-26T16:04:54.405Z</time>
      </trkpt>
      <trkpt lat="48.78094" lon="-0.379">
        <ele>202</ele>
        <time>2025-05-26T16:04:58.545Z</time>
      </trkpt>
      <trkpt lat="48.7809" lon="-0.37891">
        <ele>201.5</ele>
        <time>2025-05-26T16:05:02.686Z</time>
      </trkpt>
      <trkpt lat="48.78086" lon="-0.37885">
        <ele>201.2</ele>
        <time>2025-05-26T16:05:06.470Z</time>
      </trkpt>
      <trkpt lat="48.78081" lon="-0.37878">
        <ele>201</ele>
        <time>2025-05-26T16:05:10.255Z</time>
        <extensions>
          <visugpx:TrkExtension xmlns:visugpx="https://www.visugpx.com/editgpx/">
            <visugpx:node>24</visugpx:node>
            </visugpx:TrkExtension>
        </extensions>
      </trkpt>
      <trkpt lat="48.78076" lon="-0.3787">
        <ele>200.8</ele>
        <time>2025-05-26T16:05:14.851Z</time>
      </trkpt>
      <trkpt lat="48.78069" lon="-0.37867">
        <ele>200.6</ele>
        <time>2025-05-26T16:05:19.680Z</time>
      </trkpt>
      <trkpt lat="48.78062" lon="-0.37864">
        <ele>200.3</ele>
        <time>2025-05-26T16:05:24.509Z</time>
      </trkpt>
      <trkpt lat="48.78055" lon="-0.37861">
        <ele>200</ele>
        <time>2025-05-26T16:05:29.338Z</time>
      </trkpt>
      <trkpt lat="48.78049" lon="-0.37858">
        <ele>200.1</ele>
        <time>2025-05-26T16:05:34.167Z</time>
      </trkpt>
      <trkpt lat="48.78042" lon="-0.37854">
        <ele>200.2</ele>
        <time>2025-05-26T16:05:38.996Z</time>
      </trkpt>
      <trkpt lat="48.78035" lon="-0.37851">
        <ele>200.4</ele>
        <time>2025-05-26T16:05:43.825Z</time>
      </trkpt>
      <trkpt lat="48.78028" lon="-0.37848">
        <ele>200.5</ele>
        <time>2025-05-26T16:05:48.654Z</time>
      </trkpt>
      <trkpt lat="48.78021" lon="-0.37845">
        <ele>200.4</ele>
        <time>2025-05-26T16:05:53.485Z</time>
      </trkpt>
      <trkpt lat="48.78016" lon="-0.37847">
        <ele>200.5</ele>
        <time>2025-05-26T16:05:57.593Z</time>
      </trkpt>
      <trkpt lat="48.7801" lon="-0.37849">
        <ele>200.6</ele>
        <time>2025-05-26T16:06:01.701Z</time>
      </trkpt>
      <trkpt lat="48.78004" lon="-0.3784">
        <ele>200.2</ele>
        <time>2025-05-26T16:06:07.131Z</time>
      </trkpt>
      <trkpt lat="48.77999" lon="-0.37831">
        <ele>199.9</ele>
        <time>2025-05-26T16:06:12.561Z</time>
      </trkpt>
      <trkpt lat="48.77993" lon="-0.37821">
        <ele>199.7</ele>
        <time>2025-05-26T16:06:17.991Z</time>
      </trkpt>
      <trkpt lat="48.77987" lon="-0.37812">
        <ele>199.6</ele>
        <time>2025-05-26T16:06:23.421Z</time>
      </trkpt>
      <trkpt lat="48.77981" lon="-0.37803">
        <ele>199.6</ele>
        <time>2025-05-26T16:06:28.851Z</time>
      </trkpt>
      <trkpt lat="48.77976" lon="-0.37794">
        <ele>199.4</ele>
        <time>2025-05-26T16:06:34.281Z</time>
      </trkpt>
      <trkpt lat="48.7797" lon="-0.37784">
        <ele>199.3</ele>
        <time>2025-05-26T16:06:39.712Z</time>
      </trkpt>
      <trkpt lat="48.77964" lon="-0.37775">
        <ele>199.3</ele>
        <time>2025-05-26T16:06:45.144Z</time>
      </trkpt>
      <trkpt lat="48.77959" lon="-0.37768">
        <ele>199.6</ele>
        <time>2025-05-26T16:06:50.195Z</time>
      </trkpt>
      <trkpt lat="48.77955" lon="-0.37762">
        <ele>200</ele>
        <time>2025-05-26T16:06:55.246Z</time>
      </trkpt>
      <trkpt lat="48.7795" lon="-0.37755">
        <ele>200.5</ele>
        <time>2025-05-26T16:07:00.297Z</time>
      </trkpt>
      <trkpt lat="48.77946" lon="-0.37748">
        <ele>201</ele>
        <time>2025-05-26T16:07:05.348Z</time>
      </trkpt>
      <trkpt lat="48.77941" lon="-0.37741">
        <ele>201.2</ele>
        <time>2025-05-26T16:07:10.399Z</time>
      </trkpt>
      <trkpt lat="48.77936" lon="-0.37735">
        <ele>201.2</ele>
        <time>2025-05-26T16:07:15.450Z</time>
      </trkpt>
      <trkpt lat="48.77932" lon="-0.37728">
        <ele>201.3</ele>
        <time>2025-05-26T16:07:20.501Z</time>
      </trkpt>
      <trkpt lat="48.77927" lon="-0.37721">
        <ele>201.5</ele>
        <time>2025-05-26T16:07:25.554Z</time>
        <extensions>
          <visugpx:TrkExtension xmlns:visugpx="https://www.visugpx.com/editgpx/">
            <visugpx:node>25</visugpx:node>
            </visugpx:TrkExtension>
        </extensions>
      </trkpt>
      <trkpt lat="48.77921" lon="-0.37712">
        <ele>201.9</ele>
        <time>2025-05-26T16:07:32.295Z</time>
        <extensions>
          <visugpx:TrkExtension xmlns:visugpx="https://www.visugpx.com/editgpx/">
            <visugpx:node>26</visugpx:node>
            </visugpx:TrkExtension>
        </extensions>
      </trkpt>
    </trkseg>
  </trk>
</gpx>